Wetterdaten: Samstag, 14.11.2015
Datum Zeit Temp. A. Feuchte A. Luftdruck Regen Wind Richtung Richtung Sonnenschein ET UV Solar Taupunkt Windchill Windben Empfang
14.11.2015 00:00 9,1 C 87 % 1025,4 hPa 0,0 l/m 4,4 km/h (1 Bft) W-SW 248 0 min 0,000 mm 0,0 UV-I 0 W/m 7,1 C 9,1 C 4,8 km/h (1 Bft) 100,00 %
14.11.2015 00:02 9,0 C 87 % 1025,4 hPa 0,0 l/m 3,4 km/h (1 Bft) W-NW 299 0 min 0,000 mm 0,0 UV-I 0 W/m 7,0 C 9,0 C 4,8 km/h (1 Bft) 97,30 %
14.11.2015 00:03 9,0 C 87 % 1025,4 hPa 0,0 l/m 4,0 km/h (1 Bft) W 265 0 min 0,000 mm 0,0 UV-I 0 W/m 7,0 C 9,0 C 6,4 km/h (2 Bft) 95,83 %
14.11.2015 00:04 9,0 C 87 % 1025,4 hPa 0,0 l/m 4,1 km/h (1 Bft) W-SW 237 0 min 0,000 mm 0,0 UV-I 0 W/m 7,0 C 9,0 C 6,4 km/h (2 Bft) 100,00 %
14.11.2015 00:05 9,0 C 87 % 1025,5 hPa 0,0 l/m 4,8 km/h (1 Bft) W-SW 252 0 min 0,000 mm 0,0 UV-I 0 W/m 7,0 C 9,0 C 6,4 km/h (2 Bft) 100,00 %
14.11.2015 00:06 9,0 C 87 % 1025,5 hPa 0,0 l/m 4,2 km/h (1 Bft) W-SW 240 0 min 0,000 mm 0,0 UV-I 0 W/m 7,0 C 9,0 C 6,4 km/h (2 Bft) 100,00 %
14.11.2015 00:07 9,0 C 88 % 1025,4 hPa 0,0 l/m 3,7 km/h (1 Bft) W-NW 282 0 min 0,000 mm 0,0 UV-I 0 W/m 7,1 C 9,0 C 9,7 km/h (2 Bft) 100,00 %
14.11.2015 00:08 9,0 C 87 % 1025,5 hPa 0,0 l/m 4,2 km/h (1 Bft) W 269 0 min 0,000 mm 0,0 UV-I 0 W/m 7,0 C 9,0 C 4,8 km/h (1 Bft) 96,15 %
14.11.2015 00:09 9,1 C 87 % 1025,5 hPa 0,0 l/m 5,6 km/h (1 Bft) S-SW 211 0 min 0,000 mm 0,0 UV-I 0 W/m 7,1 C 9,1 C 11,3 km/h (2 Bft) 100,00 %
14.11.2015 00:10 9,1 C 87 % 1025,5 hPa 0,0 l/m 5,6 km/h (1 Bft) W 263 0 min 0,000 mm 0,0 UV-I 0 W/m 7,1 C 9,1 C 11,3 km/h (2 Bft) 100,00 %
14.11.2015 00:11 9,1 C 87 % 1025,4 hPa 0,0 l/m 4,4 km/h (1 Bft) SW 227 0 min 0,000 mm 0,0 UV-I 0 W/m 7,1 C 9,1 C 8,0 km/h (2 Bft) 100,00 %
14.11.2015 00:12 9,2 C 87 % 1025,5 hPa 0,0 l/m 7,8 km/h (2 Bft) SW 222 0 min 0,000 mm 0,0 UV-I 0 W/m 7,2 C 8,2 C 12,9 km/h (3 Bft) 100,00 %
14.11.2015 00:13 9,2 C 87 % 1025,4 hPa 0,0 l/m 8,1 km/h (2 Bft) W-SW 252 0 min 0,000 mm 0,0 UV-I 0 W/m 7,2 C 7,9 C 14,5 km/h (3 Bft) 100,00 %
14.11.2015 00:14 9,3 C 87 % 1025,4 hPa 0,0 l/m 6,8 km/h (2 Bft) W-SW 246 0 min 0,000 mm 0,0 UV-I 0 W/m 7,2 C 9,0 C 11,3 km/h (2 Bft) 100,00 %
14.11.2015 00:15 9,3 C 87 % 1025,4 hPa 0,0 l/m 5,6 km/h (1 Bft) W 275 0 min 0,000 mm 0,0 UV-I 0 W/m 7,2 C 9,3 C 9,7 km/h (2 Bft) 100,00 %
14.11.2015 00:16 9,4 C 86 % 1025,4 hPa 0,0 l/m 7,2 km/h (2 Bft) W 273 0 min 0,000 mm 0,0 UV-I 0 W/m 7,2 C 8,8 C 9,7 km/h (2 Bft) 100,00 %
14.11.2015 00:17 9,4 C 86 % 1025,4 hPa 0,0 l/m 6,5 km/h (2 Bft) W 265 0 min 0,000 mm 0,0 UV-I 0 W/m 7,2 C 9,4 C 11,3 km/h (2 Bft) 100,00 %
14.11.2015 00:18 9,4 C 86 % 1025,4 hPa 0,0 l/m 6,4 km/h (2 Bft) W 263 0 min 0,000 mm 0,0 UV-I 0 W/m 7,2 C 9,4 C 11,3 km/h (2 Bft) 100,00 %
14.11.2015 00:19 9,5 C 86 % 1025,5 hPa 0,0 l/m 8,9 km/h (2 Bft) W 263 0 min 0,000 mm 0,0 UV-I 0 W/m 7,3 C 7,7 C 19,3 km/h (3 Bft) 96,15 %
14.11.2015 00:20 9,6 C 86 % 1025,6 hPa 0,0 l/m 6,3 km/h (2 Bft) W-SW 251 0 min 0,000 mm 0,0 UV-I 0 W/m 7,4 C 9,6 C 11,3 km/h (2 Bft) 100,00 %
14.11.2015 00:21 9,7 C 86 % 1025,7 hPa 0,0 l/m 10,2 km/h (2 Bft) SW 233 0 min 0,000 mm 0,0 UV-I 0 W/m 7,5 C 7,1 C 14,5 km/h (3 Bft) 100,00 %
14.11.2015 00:22 9,7 C 86 % 1025,7 hPa 0,0 l/m 10,3 km/h (2 Bft) W 260 0 min 0,000 mm 0,0 UV-I 0 W/m 7,5 C 7,1 C 17,7 km/h (3 Bft) 100,00 %
14.11.2015 00:23 9,7 C 85 % 1025,8 hPa 0,0 l/m 9,6 km/h (2 Bft) W 275 0 min 0,000 mm 0,0 UV-I 0 W/m 7,3 C 7,5 C 14,5 km/h (3 Bft) 100,00 %
14.11.2015 00:24 9,8 C 85 % 1025,8 hPa 0,0 l/m 7,9 km/h (2 Bft) W 279 0 min 0,000 mm 0,0 UV-I 0 W/m 7,4 C 8,7 C 11,3 km/h (2 Bft) 93,33 %
14.11.2015 00:25 9,8 C 85 % 1025,7 hPa 0,0 l/m 10,6 km/h (2 Bft) W-SW 257 0 min 0,000 mm 0,0 UV-I 0 W/m 7,4 C 7,0 C 19,3 km/h (3 Bft) 100,00 %
14.11.2015 00:26 9,9 C 85 % 1025,7 hPa 0,0 l/m 9,2 km/h (2 Bft) W 277 0 min 0,000 mm 0,0 UV-I 0 W/m 7,5 C 8,0 C 12,9 km/h (3 Bft) 100,00 %
14.11.2015 00:27 9,9 C 85 % 1025,7 hPa 0,0 l/m 12,1 km/h (2 Bft) W-SW 255 0 min 0,000 mm 0,0 UV-I 0 W/m 7,5 C 6,3 C 17,7 km/h (3 Bft) 100,00 %
14.11.2015 00:28 10,0 C 85 % 1025,7 hPa 0,0 l/m 7,3 km/h (2 Bft) W 267 0 min 0,000 mm 0,0 UV-I 0 W/m 7,6 C 9,3 C 9,7 km/h (2 Bft) 100,00 %
14.11.2015 00:29 10,1 C 84 % 1025,6 hPa 0,0 l/m 6,4 km/h (2 Bft) W-SW 244 0 min 0,000 mm 0,0 UV-I 0 W/m 7,5 C 10,1 C 11,3 km/h (2 Bft) 100,00 %
14.11.2015 00:30 10,1 C 84 % 1025,6 hPa 0,0 l/m 7,6 km/h (2 Bft) S-SW 213 0 min 0,000 mm 0,0 UV-I 0 W/m 7,5 C 9,2 C 11,3 km/h (2 Bft) 100,00 %
14.11.2015 00:31 10,1 C 84 % 1025,6 hPa 0,0 l/m 11,1 km/h (2 Bft) W 268 0 min 0,000 mm 0,0 UV-I 0 W/m 7,5 C 7,1 C 20,9 km/h (4 Bft) 100,00 %
14.11.2015 00:32 10,2 C 84 % 1025,7 hPa 0,0 l/m 7,8 km/h (2 Bft) SW 227 0 min 0,000 mm 0,0 UV-I 0 W/m 7,6 C 9,2 C 11,3 km/h (2 Bft) 100,00 %
14.11.2015 00:33 10,2 C 84 % 1025,7 hPa 0,0 l/m 10,7 km/h (2 Bft) S-SW 207 0 min 0,000 mm 0,0 UV-I 0 W/m 7,6 C 7,4 C 19,3 km/h (3 Bft) 100,00 %
14.11.2015 00:34 10,2 C 84 % 1025,7 hPa 0,0 l/m 8,3 km/h (2 Bft) SW 216 0 min 0,000 mm 0,0 UV-I 0 W/m 7,6 C 8,9 C 16,1 km/h (3 Bft) 100,00 %
14.11.2015 00:35 10,2 C 84 % 1025,7 hPa 0,0 l/m 9,6 km/h (2 Bft) SW 223 0 min 0,000 mm 0,0 UV-I 0 W/m 7,6 C 8,0 C 12,9 km/h (3 Bft) 100,00 %
14.11.2015 00:36 10,2 C 84 % 1025,7 hPa 0,0 l/m 11,9 km/h (2 Bft) W 273 0 min 0,000 mm 0,0 UV-I 0 W/m 7,6 C 6,8 C 20,9 km/h (4 Bft) 100,00 %
14.11.2015 00:37 10,2 C 84 % 1025,9 hPa 0,0 l/m 9,0 km/h (2 Bft) S-SW 208 0 min 0,000 mm 0,0 UV-I 0 W/m 7,6 C 8,4 C 16,1 km/h (3 Bft) 100,00 %
14.11.2015 00:38 10,3 C 84 % 1025,9 hPa 0,0 l/m 10,1 km/h (2 Bft) S-SW 207 0 min 0,000 mm 0,0 UV-I 0 W/m 7,7 C 7,9 C 17,7 km/h (3 Bft) 100,00 %
14.11.2015 00:39 10,3 C 84 % 1025,9 hPa 0,0 l/m 11,3 km/h (2 Bft) W-SW 249 0 min 0,000 mm 0,0 UV-I 0 W/m 7,7 C 7,2 C 14,5 km/h (3 Bft) 100,00 %
14.11.2015 00:40 10,3 C 84 % 1025,8 hPa 0,0 l/m 9,7 km/h (2 Bft) SW 225 0 min 0,000 mm 0,0 UV-I 0 W/m 7,7 C 8,1 C 16,1 km/h (3 Bft) 100,00 %
14.11.2015 00:41 10,3 C 84 % 1025,9 hPa 0,0 l/m 7,4 km/h (2 Bft) SW 228 0 min 0,000 mm 0,0 UV-I 0 W/m 7,7 C 9,6 C 11,3 km/h (2 Bft) 100,00 %
14.11.2015 00:42 10,3 C 84 % 1025,9 hPa 0,0 l/m 6,5 km/h (2 Bft) W 276 0 min 0,000 mm 0,0 UV-I 0 W/m 7,7 C 10,3 C 11,3 km/h (2 Bft) 100,00 %
14.11.2015 00:43 10,3 C 84 % 1025,8 hPa 0,0 l/m 10,3 km/h (2 Bft) W-NW 290 0 min 0,000 mm 0,0 UV-I 0 W/m 7,7 C 7,8 C 14,5 km/h (3 Bft) 100,00 %
14.11.2015 00:44 10,3 C 84 % 1025,8 hPa 0,0 l/m 9,7 km/h (2 Bft) W-NW 284 0 min 0,000 mm 0,0 UV-I 0 W/m 7,7 C 8,1 C 12,9 km/h (3 Bft) 100,00 %
14.11.2015 00:45 10,3 C 85 % 1025,9 hPa 0,0 l/m 8,2 km/h (2 Bft) W-SW 248 0 min 0,000 mm 0,0 UV-I 0 W/m 7,9 C 9,0 C 16,1 km/h (3 Bft) 100,00 %
14.11.2015 00:46 10,3 C 85 % 1025,8 hPa 0,0 l/m 9,0 km/h (2 Bft) W-SW 248 0 min 0,000 mm 0,0 UV-I 0 W/m 7,9 C 8,5 C 17,7 km/h (3 Bft) 100,00 %
14.11.2015 00:47 10,3 C 85 % 1025,8 hPa 0,0 l/m 12,6 km/h (3 Bft) W-SW 258 0 min 0,000 mm 0,0 UV-I 0 W/m 7,9 C 6,6 C 22,5 km/h (4 Bft) 100,00 %
14.11.2015 00:48 10,3 C 86 % 1025,9 hPa 0,0 l/m 8,9 km/h (2 Bft) W 265 0 min 0,000 mm 0,0 UV-I 0 W/m 8,1 C 8,6 C 11,3 km/h (2 Bft) 100,00 %
14.11.2015 00:49 10,3 C 86 % 1025,9 hPa 0,0 l/m 12,1 km/h (2 Bft) W 273 0 min 0,000 mm 0,0 UV-I 0 W/m 8,1 C 6,8 C 16,1 km/h (3 Bft) 100,00 %
14.11.2015 00:50 10,3 C 86 % 1026,0 hPa 0,0 l/m 9,3 km/h (2 Bft) SW 236 0 min 0,000 mm 0,0 UV-I 0 W/m 8,1 C 8,3 C 16,1 km/h (3 Bft) 100,00 %
14.11.2015 00:51 10,3 C 86 % 1026,0 hPa 0,0 l/m 9,8 km/h (2 Bft) W-NW 292 0 min 0,000 mm 0,0 UV-I 0 W/m 8,1 C 8,0 C 14,5 km/h (3 Bft) 100,00 %
14.11.2015 00:52 10,2 C 86 % 1026,0 hPa 0,0 l/m 10,1 km/h (2 Bft) W 278 0 min 0,000 mm 0,0 UV-I 0 W/m 8,0 C 7,8 C 14,5 km/h (3 Bft) 96,15 %
14.11.2015 00:53 10,2 C 87 % 1026,0 hPa 0,0 l/m 7,5 km/h (2 Bft) W 270 0 min 0,000 mm 0,0 UV-I 0 W/m 8,1 C 9,4 C 11,3 km/h (2 Bft) 100,00 %
14.11.2015 00:54 10,2 C 87 % 1026,0 hPa 0,0 l/m 7,8 km/h (2 Bft) W 271 0 min 0,000 mm 0,0 UV-I 0 W/m 8,1 C 9,2 C 12,9 km/h (3 Bft) 100,00 %
14.11.2015 00:55 10,1 C 87 % 1026,0 hPa 0,0 l/m 8,4 km/h (2 Bft) W-SW 249 0 min 0,000 mm 0,0 UV-I 0 W/m 8,0 C 8,7 C 12,9 km/h (3 Bft) 100,00 %
14.11.2015 00:56 10,1 C 87 % 1026,1 hPa 0,0 l/m 7,6 km/h (2 Bft) SW 221 0 min 0,000 mm 0,0 UV-I 0 W/m 8,0 C 9,2 C 12,9 km/h (3 Bft) 95,83 %
14.11.2015 00:57 10,0 C 88 % 1026,1 hPa 0,0 l/m 6,8 km/h (2 Bft) W 276 0 min 0,000 mm 0,0 UV-I 0 W/m 8,1 C 9,7 C 11,3 km/h (2 Bft) 100,00 %
14.11.2015 00:58 10,0 C 88 % 1026,1 hPa 0,0 l/m 7,2 km/h (2 Bft) S-SW 198 0 min 0,000 mm 0,0 UV-I 0 W/m 8,1 C 9,4 C 14,5 km/h (3 Bft) 100,00 %
14.11.2015 00:59 9,9 C 89 % 1026,0 hPa 0,2 l/m 7,2 km/h (2 Bft) W-SW 239 0 min 0,000 mm 0,0 UV-I 0 W/m 8,2 C 9,3 C 14,5 km/h (3 Bft) 100,00 %
14.11.2015 01:00 9,9 C 89 % 1026,0 hPa 0,0 l/m 7,8 km/h (2 Bft) SW 223 0 min 0,025 mm 0,0 UV-I 0 W/m 8,2 C 8,9 C 12,9 km/h (3 Bft) 95,83 %
14.11.2015 01:01 9,9 C 89 % 1026,0 hPa 0,0 l/m 4,3 km/h (1 Bft) W 274 0 min 0,000 mm 0,0 UV-I 0 W/m 8,2 C 9,9 C 9,7 km/h (2 Bft) 100,00 %
14.11.2015 01:02 9,8 C 89 % 1025,9 hPa 0,0 l/m 5,5 km/h (1 Bft) SW 223 0 min 0,000 mm 0,0 UV-I 0 W/m 8,1 C 9,8 C 8,0 km/h (2 Bft) 100,00 %
14.11.2015 01:03 9,8 C 89 % 1025,8 hPa 0,0 l/m 8,9 km/h (2 Bft) SW 223 0 min 0,000 mm 0,0 UV-I 0 W/m 8,1 C 8,0 C 16,1 km/h (3 Bft) 100,00 %
14.11.2015 01:04 9,8 C 89 % 1025,8 hPa 0,0 l/m 9,6 km/h (2 Bft) W-SW 258 0 min 0,000 mm 0,0 UV-I 0 W/m 8,1 C 7,6 C 14,5 km/h (3 Bft) 100,00 %
14.11.2015 01:05 9,8 C 90 % 1025,7 hPa 0,0 l/m 8,6 km/h (2 Bft) SW 229 0 min 0,000 mm 0,0 UV-I 0 W/m 8,2 C 8,2 C 11,3 km/h (2 Bft) 100,00 %
14.11.2015 01:06 9,8 C 90 % 1025,7 hPa 0,0 l/m 8,7 km/h (2 Bft) SW 224 0 min 0,000 mm 0,0 UV-I 0 W/m 8,2 C 8,2 C 16,1 km/h (3 Bft) 100,00 %
14.11.2015 01:07 9,8 C 90 % 1025,7 hPa 0,0 l/m 8,4 km/h (2 Bft) SW 223 0 min 0,000 mm 0,0 UV-I 0 W/m 8,2 C 8,4 C 11,3 km/h (2 Bft) 100,00 %
14.11.2015 01:08 9,8 C 90 % 1025,6 hPa 0,0 l/m 8,7 km/h (2 Bft) SW 226 0 min 0,000 mm 0,0 UV-I 0 W/m 8,2 C 8,2 C 14,5 km/h (3 Bft) 100,00 %
14.11.2015 01:09 9,8 C 90 % 1025,6 hPa 0,0 l/m 10,0 km/h (2 Bft) SW 232 0 min 0,000 mm 0,0 UV-I 0 W/m 8,2 C 7,4 C 14,5 km/h (3 Bft) 100,00 %
14.11.2015 01:10 9,8 C 90 % 1025,6 hPa 0,0 l/m 10,4 km/h (2 Bft) SW 225 0 min 0,000 mm 0,0 UV-I 0 W/m 8,2 C 7,1 C 16,1 km/h (3 Bft) 100,00 %
14.11.2015 01:11 9,8 C 90 % 1025,6 hPa 0,0 l/m 9,2 km/h (2 Bft) SW 236 0 min 0,000 mm 0,0 UV-I 0 W/m 8,2 C 7,9 C 12,9 km/h (3 Bft) 100,00 %
14.11.2015 01:12 9,8 C 90 % 1025,6 hPa 0,0 l/m 8,6 km/h (2 Bft) W 259 0 min 0,000 mm 0,0 UV-I 0 W/m 8,2 C 8,2 C 14,5 km/h (3 Bft) 100,00 %
14.11.2015 01:13 9,8 C 90 % 1025,5 hPa 0,0 l/m 10,1 km/h (2 Bft) SW 223 0 min 0,000 mm 0,0 UV-I 0 W/m 8,2 C 7,3 C 14,5 km/h (3 Bft) 100,00 %
14.11.2015 01:14 9,8 C 90 % 1025,4 hPa 0,0 l/m 9,5 km/h (2 Bft) S-SW 200 0 min 0,000 mm 0,0 UV-I 0 W/m 8,2 C 7,7 C 12,9 km/h (3 Bft) 100,00 %
14.11.2015 01:15 9,8 C 90 % 1025,4 hPa 0,0 l/m 9,3 km/h (2 Bft) SW 217 0 min 0,000 mm 0,0 UV-I 0 W/m 8,2 C 7,8 C 11,3 km/h (2 Bft) 100,00 %
14.11.2015 01:16 9,8 C 90 % 1025,4 hPa 0,0 l/m 8,0 km/h (2 Bft) SW 217 0 min 0,000 mm 0,0 UV-I 0 W/m 8,2 C 8,6 C 12,9 km/h (3 Bft) 100,00 %
14.11.2015 01:17 9,8 C 90 % 1025,4 hPa 0,0 l/m 9,7 km/h (2 Bft) S 181 0 min 0,000 mm 0,0 UV-I 0 W/m 8,2 C 7,6 C 14,5 km/h (3 Bft) 100,00 %
14.11.2015 01:18 9,8 C 90 % 1025,4 hPa 0,0 l/m 9,7 km/h (2 Bft) SW 221 0 min 0,000 mm 0,0 UV-I 0 W/m 8,2 C 7,6 C 20,9 km/h (4 Bft) 100,00 %
14.11.2015 01:19 9,8 C 90 % 1025,4 hPa 0,0 l/m 9,8 km/h (2 Bft) SW 221 0 min 0,000 mm 0,0 UV-I 0 W/m 8,2 C 7,5 C 16,1 km/h (3 Bft) 100,00 %
14.11.2015 01:20 9,8 C 90 % 1025,4 hPa 0,0 l/m 7,2 km/h (2 Bft) SW 232 0 min 0,000 mm 0,0 UV-I 0 W/m 8,2 C 9,2 C 12,9 km/h (3 Bft) 100,00 %
14.11.2015 01:21 9,8 C 90 % 1025,4 hPa 0,0 l/m 10,4 km/h (2 Bft) S-SW 213 0 min 0,000 mm 0,0 UV-I 0 W/m 8,2 C 7,1 C 16,1 km/h (3 Bft) 100,00 %
14.11.2015 01:22 9,8 C 90 % 1025,4 hPa 0,0 l/m 11,9 km/h (2 Bft) SW 231 0 min 0,000 mm 0,0 UV-I 0 W/m 8,2 C 6,3 C 17,7 km/h (3 Bft) 96,15 %
14.11.2015 01:23 9,8 C 90 % 1025,5 hPa 0,0 l/m 10,1 km/h (2 Bft) SW 228 0 min 0,000 mm 0,0 UV-I 0 W/m 8,2 C 7,3 C 17,7 km/h (3 Bft) 95,83 %
14.11.2015 01:24 9,8 C 90 % 1025,6 hPa 0,0 l/m 9,9 km/h (2 Bft) W-SW 258 0 min 0,000 mm 0,0 UV-I 0 W/m 8,2 C 7,4 C 14,5 km/h (3 Bft) 100,00 %
14.11.2015 01:25 9,9 C 90 % 1025,5 hPa 0,0 l/m 11,3 km/h (2 Bft) SW 214 0 min 0,000 mm 0,0 UV-I 0 W/m 8,3 C 6,8 C 16,1 km/h (3 Bft) 100,00 %
14.11.2015 01:26 9,9 C 90 % 1025,5 hPa 0,0 l/m 10,0 km/h (2 Bft) W-SW 242 0 min 0,000 mm 0,0 UV-I 0 W/m 8,3 C 7,5 C 14,5 km/h (3 Bft) 100,00 %
14.11.2015 01:27 9,9 C 90 % 1025,6 hPa 0,0 l/m 8,8 km/h (2 Bft) W-SW 241 0 min 0,000 mm 0,0 UV-I 0 W/m 8,3 C 8,2 C 14,5 km/h (3 Bft) 100,00 %
14.11.2015 01:28 9,9 C 90 % 1025,6 hPa 0,0 l/m 13,0 km/h (3 Bft) S-SW 202 0 min 0,000 mm 0,0 UV-I 0 W/m 8,3 C 5,9 C 19,3 km/h (3 Bft) 100,00 %
14.11.2015 01:29 9,9 C 90 % 1025,6 hPa 0,0 l/m 10,6 km/h (2 Bft) S-SW 202 0 min 0,000 mm 0,0 UV-I 0 W/m 8,3 C 7,1 C 16,1 km/h (3 Bft) 100,00 %
14.11.2015 01:30 10,0 C 90 % 1025,6 hPa 0,0 l/m 7,6 km/h (2 Bft) S-SW 202 0 min 0,000 mm 0,0 UV-I 0 W/m 8,4 C 9,1 C 17,7 km/h (3 Bft) 100,00 %
14.11.2015 01:31 10,0 C 91 % 1025,7 hPa 0,0 l/m 14,1 km/h (3 Bft) S-SW 207 0 min 0,000 mm 0,0 UV-I 0 W/m 8,6 C 5,5 C 22,5 km/h (4 Bft) 100,00 %
14.11.2015 01:32 10,0 C 91 % 1025,7 hPa 0,0 l/m 12,1 km/h (2 Bft) S-SW 206 0 min 0,000 mm 0,0 UV-I 0 W/m 8,6 C 6,5 C 17,7 km/h (3 Bft) 100,00 %
14.11.2015 01:33 10,0 C 91 % 1025,7 hPa 0,0 l/m 8,2 km/h (2 Bft) SW 219 0 min 0,000 mm 0,0 UV-I 0 W/m 8,6 C 8,7 C 12,9 km/h (3 Bft) 100,00 %
14.11.2015 01:34 10,0 C 91 % 1025,7 hPa 0,0 l/m 8,5 km/h (2 Bft) SW 217 0 min 0,000 mm 0,0 UV-I 0 W/m 8,6 C 8,5 C 12,9 km/h (3 Bft) 100,00 %
14.11.2015 01:35 10,0 C 91 % 1025,7 hPa 0,0 l/m 9,7 km/h (2 Bft) S 189 0 min 0,000 mm 0,0 UV-I 0 W/m 8,6 C 7,8 C 14,5 km/h (3 Bft) 100,00 %
14.11.2015 01:36 9,9 C 91 % 1025,7 hPa 0,0 l/m 9,8 km/h (2 Bft) W-SW 246 0 min 0,000 mm 0,0 UV-I 0 W/m 8,5 C 7,6 C 16,1 km/h (3 Bft) 100,00 %
14.11.2015 01:37 9,9 C 91 % 1025,7 hPa 0,0 l/m 13,1 km/h (3 Bft) SW 223 0 min 0,000 mm 0,0 UV-I 0 W/m 8,5 C 5,9 C 17,7 km/h (3 Bft) 100,00 %
14.11.2015 01:38 9,9 C 91 % 1025,7 hPa 0,0 l/m 17,3 km/h (3 Bft) S-SW 213 0 min 0,000 mm 0,0 UV-I 0 W/m 8,5 C 4,1 C 20,9 km/h (4 Bft) 100,00 %
14.11.2015 01:39 10,0 C 91 % 1025,7 hPa 0,0 l/m 12,7 km/h (3 Bft) SW 221 0 min 0,000 mm 0,0 UV-I 0 W/m 8,6 C 6,2 C 19,3 km/h (3 Bft) 100,00 %
14.11.2015 01:40 10,0 C 91 % 1025,7 hPa 0,0 l/m 10,7 km/h (2 Bft) SW 231 0 min 0,000 mm 0,0 UV-I 0 W/m 8,6 C 7,2 C 16,1 km/h (3 Bft) 100,00 %
14.11.2015 01:41 10,0 C 91 % 1025,7 hPa 0,0 l/m 14,8 km/h (3 Bft) S-SW 211 0 min 0,000 mm 0,0 UV-I 0 W/m 8,6 C 5,2 C 22,5 km/h (4 Bft) 100,00 %
14.11.2015 01:42 10,0 C 91 % 1025,7 hPa 0,0 l/m 10,7 km/h (2 Bft) W-SW 248 0 min 0,000 mm 0,0 UV-I 0 W/m 8,6 C 7,2 C 19,3 km/h (3 Bft) 100,00 %
14.11.2015 01:43 10,0 C 91 % 1025,6 hPa 0,0 l/m 9,4 km/h (2 Bft) SW 229 0 min 0,000 mm 0,0 UV-I 0 W/m 8,6 C 8,0 C 14,5 km/h (3 Bft) 96,15 %
14.11.2015 01:44 10,0 C 91 % 1025,7 hPa 0,0 l/m 10,3 km/h (2 Bft) SW 225 0 min 0,000 mm 0,0 UV-I 0 W/m 8,6 C 7,4 C 19,3 km/h (3 Bft) 100,00 %
14.11.2015 01:45 10,0 C 91 % 1025,7 hPa 0,0 l/m 14,2 km/h (3 Bft) W-NW 284 0 min 0,000 mm 0,0 UV-I 0 W/m 8,6 C 5,5 C 20,9 km/h (4 Bft) 92,86 %
14.11.2015 01:46 10,1 C 91 % 1025,6 hPa 0,0 l/m 11,9 km/h (2 Bft) SW 234 0 min 0,000 mm 0,0 UV-I 0 W/m 8,7 C 6,7 C 20,9 km/h (4 Bft) 100,00 %
14.11.2015 01:47 10,0 C 91 % 1025,7 hPa 0,0 l/m 10,1 km/h (2 Bft) S-SW 213 0 min 0,000 mm 0,0 UV-I 0 W/m 8,6 C 7,5 C 17,7 km/h (3 Bft) 100,00 %
14.11.2015 01:48 10,1 C 91 % 1025,6 hPa 0,0 l/m 12,0 km/h (2 Bft) W-SW 251 0 min 0,000 mm 0,0 UV-I 0 W/m 8,7 C 6,6 C 17,7 km/h (3 Bft) 100,00 %
14.11.2015 01:49 10,1 C 91 % 1025,6 hPa 0,0 l/m 17,0 km/h (3 Bft) S-SW 211 0 min 0,000 mm 0,0 UV-I 0 W/m 8,7 C 4,5 C 24,1 km/h (4 Bft) 96,15 %
14.11.2015 01:50 10,1 C 91 % 1025,7 hPa 0,2 l/m 9,9 km/h (2 Bft) S-SW 203 0 min 0,000 mm 0,0 UV-I 0 W/m 8,7 C 7,8 C 17,7 km/h (3 Bft) 95,83 %
14.11.2015 01:51 10,1 C 91 % 1025,6 hPa 0,0 l/m 13,5 km/h (3 Bft) W 277 0 min 0,000 mm 0,0 UV-I 0 W/m 8,7 C 5,9 C 24,1 km/h (4 Bft) 96,15 %
14.11.2015 01:52 10,1 C 91 % 1025,6 hPa 0,0 l/m 14,8 km/h (3 Bft) W-SW 254 0 min 0,000 mm 0,0 UV-I 0 W/m 8,7 C 5,3 C 25,7 km/h (4 Bft) 100,00 %
14.11.2015 01:53 10,1 C 91 % 1025,6 hPa 0,0 l/m 12,4 km/h (3 Bft) SW 234 0 min 0,000 mm 0,0 UV-I 0 W/m 8,7 C 6,4 C 20,9 km/h (4 Bft) 100,00 %
14.11.2015 01:54 10,1 C 91 % 1025,6 hPa 0,0 l/m 11,9 km/h (2 Bft) SW 228 0 min 0,000 mm 0,0 UV-I 0 W/m 8,7 C 6,7 C 17,7 km/h (3 Bft) 96,15 %
14.11.2015 01:55 10,2 C 91 % 1025,6 hPa 0,0 l/m 14,3 km/h (3 Bft) W-SW 245 0 min 0,000 mm 0,0 UV-I 0 W/m 8,8 C 5,7 C 22,5 km/h (4 Bft) 100,00 %
14.11.2015 01:56 10,2 C 91 % 1025,6 hPa 0,0 l/m 15,1 km/h (3 Bft) SW 227 0 min 0,000 mm 0,0 UV-I 0 W/m 8,8 C 5,3 C 25,7 km/h (4 Bft) 100,00 %
14.11.2015 01:57 10,2 C 91 % 1025,5 hPa 0,0 l/m 12,1 km/h (2 Bft) SW 236 0 min 0,000 mm 0,0 UV-I 0 W/m 8,8 C 6,7 C 16,1 km/h (3 Bft) 100,00 %
14.11.2015 01:58 10,2 C 91 % 1025,5 hPa 0,0 l/m 11,5 km/h (2 Bft) SW 223 0 min 0,000 mm 0,0 UV-I 0 W/m 8,8 C 7,0 C 17,7 km/h (3 Bft) 100,00 %
14.11.2015 01:59 10,2 C 90 % 1025,6 hPa 0,0 l/m 12,8 km/h (3 Bft) SW 231 0 min 0,000 mm 0,0 UV-I 0 W/m 8,6 C 6,4 C 19,3 km/h (3 Bft) 100,00 %
14.11.2015 02:00 10,2 C 90 % 1025,5 hPa 0,0 l/m 11,7 km/h (2 Bft) W-SW 255 0 min 0,026 mm 0,0 UV-I 0 W/m 8,6 C 6,9 C 16,1 km/h (3 Bft) 100,00 %
14.11.2015 02:01 10,2 C 90 % 1025,5 hPa 0,0 l/m 11,1 km/h (2 Bft) W-NW 292 0 min 0,000 mm 0,0 UV-I 0 W/m 8,6 C 7,2 C 16,1 km/h (3 Bft) 100,00 %
14.11.2015 02:02 10,2 C 91 % 1025,5 hPa 0,0 l/m 13,0 km/h (3 Bft) SW 225 0 min 0,000 mm 0,0 UV-I 0 W/m 8,8 C 6,3 C 17,7 km/h (3 Bft) 96,55 %
14.11.2015 02:03 10,2 C 90 % 1025,5 hPa 0,0 l/m 12,9 km/h (3 Bft) SW 216 0 min 0,000 mm 0,0 UV-I 0 W/m 8,6 C 6,3 C 19,3 km/h (3 Bft) 100,00 %
14.11.2015 02:04 10,2 C 90 % 1025,5 hPa 0,0 l/m 12,7 km/h (3 Bft) SW 215 0 min 0,000 mm 0,0 UV-I 0 W/m 8,6 C 6,4 C 22,5 km/h (4 Bft) 100,00 %
14.11.2015 02:05 10,2 C 90 % 1025,6 hPa 0,0 l/m 14,1 km/h (3 Bft) S-SW 213 0 min 0,000 mm 0,0 UV-I 0 W/m 8,6 C 5,8 C 22,5 km/h (4 Bft) 100,00 %
14.11.2015 02:06 10,2 C 90 % 1025,5 hPa 0,0 l/m 18,3 km/h (3 Bft) SW 224 0 min 0,000 mm 0,0 UV-I 0 W/m 8,6 C 4,1 C 25,7 km/h (4 Bft) 100,00 %
14.11.2015 02:07 10,2 C 90 % 1025,4 hPa 0,0 l/m 14,8 km/h (3 Bft) SW 232 0 min 0,000 mm 0,0 UV-I 0 W/m 8,6 C 5,5 C 20,9 km/h (4 Bft) 95,83 %
14.11.2015 02:08 10,3 C 90 % 1025,5 hPa 0,0 l/m 16,0 km/h (3 Bft) S-SW 213 0 min 0,000 mm 0,0 UV-I 0 W/m 8,7 C 5,1 C 22,5 km/h (4 Bft) 96,15 %
14.11.2015 02:09 10,3 C 90 % 1025,4 hPa 0,0 l/m 18,1 km/h (3 Bft) SW 233 0 min 0,000 mm 0,0 UV-I 0 W/m 8,7 C 4,3 C 24,1 km/h (4 Bft) 91,67 %
14.11.2015 02:10 10,3 C 90 % 1025,5 hPa 0,0 l/m 14,5 km/h (3 Bft) SW 216 0 min 0,000 mm 0,0 UV-I 0 W/m 8,7 C 5,7 C 20,9 km/h (4 Bft) 96,55 %
14.11.2015 02:11 10,3 C 90 % 1025,4 hPa 0,0 l/m 13,3 km/h (3 Bft) W-NW 283 0 min 0,000 mm 0,0 UV-I 0 W/m 8,7 C 6,2 C 20,9 km/h (4 Bft) 100,00 %
14.11.2015 02:12 10,3 C 90 % 1025,5 hPa 0,0 l/m 14,7 km/h (3 Bft) W-SW 254 0 min 0,000 mm 0,0 UV-I 0 W/m 8,7 C 5,6 C 20,9 km/h (4 Bft) 100,00 %
14.11.2015 02:13 10,3 C 90 % 1025,5 hPa 0,0 l/m 13,2 km/h (3 Bft) S-SW 211 0 min 0,000 mm 0,0 UV-I 0 W/m 8,7 C 6,3 C 20,9 km/h (4 Bft) 100,00 %
14.11.2015 02:14 10,3 C 90 % 1025,5 hPa 0,0 l/m 11,7 km/h (2 Bft) SW 221 0 min 0,000 mm 0,0 UV-I 0 W/m 8,7 C 7,0 C 16,1 km/h (3 Bft) 100,00 %
14.11.2015 02:15 10,3 C 90 % 1025,5 hPa 0,0 l/m 11,7 km/h (2 Bft) S-SW 211 0 min 0,000 mm 0,0 UV-I 0 W/m 8,7 C 7,0 C 16,1 km/h (3 Bft) 100,00 %
14.11.2015 02:16 10,3 C 90 % 1025,5 hPa 0,0 l/m 13,2 km/h (3 Bft) W-SW 240 0 min 0,000 mm 0,0 UV-I 0 W/m 8,7 C 6,3 C 22,5 km/h (4 Bft) 100,00 %
14.11.2015 02:17 10,3 C 90 % 1025,5 hPa 0,0 l/m 15,4 km/h (3 Bft) SW 219 0 min 0,000 mm 0,0 UV-I 0 W/m 8,7 C 5,3 C 24,1 km/h (4 Bft) 100,00 %
14.11.2015 02:18 10,3 C 90 % 1025,4 hPa 0,0 l/m 16,6 km/h (3 Bft) SW 235 0 min 0,000 mm 0,0 UV-I 0 W/m 8,7 C 4,9 C 25,7 km/h (4 Bft) 100,00 %
14.11.2015 02:19 10,3 C 89 % 1025,3 hPa 0,0 l/m 9,5 km/h (2 Bft) SW 223 0 min 0,000 mm 0,0 UV-I 0 W/m 8,6 C 8,2 C 14,5 km/h (3 Bft) 100,00 %
14.11.2015 02:20 10,3 C 89 % 1025,3 hPa 0,0 l/m 14,9 km/h (3 Bft) S-SW 200 0 min 0,000 mm 0,0 UV-I 0 W/m 8,6 C 5,5 C 25,7 km/h (4 Bft) 100,00 %
14.11.2015 02:21 10,4 C 89 % 1025,3 hPa 0,0 l/m 16,2 km/h (3 Bft) W-SW 238 0 min 0,000 mm 0,0 UV-I 0 W/m 8,7 C 5,1 C 27,4 km/h (4 Bft) 95,65 %
14.11.2015 02:22 10,4 C 89 % 1025,3 hPa 0,0 l/m 14,9 km/h (3 Bft) S-SW 209 0 min 0,000 mm 0,0 UV-I 0 W/m 8,7 C 5,7 C 22,5 km/h (4 Bft) 100,00 %
14.11.2015 02:23 10,4 C 89 % 1025,4 hPa 0,0 l/m 15,1 km/h (3 Bft) SW 236 0 min 0,000 mm 0,0 UV-I 0 W/m 8,7 C 5,6 C 20,9 km/h (4 Bft) 100,00 %
14.11.2015 02:24 10,4 C 89 % 1025,3 hPa 0,0 l/m 15,4 km/h (3 Bft) S-SW 194 0 min 0,000 mm 0,0 UV-I 0 W/m 8,7 C 5,5 C 22,5 km/h (4 Bft) 100,00 %
14.11.2015 02:25 10,5 C 89 % 1025,3 hPa 0,0 l/m 12,5 km/h (3 Bft) S-SW 203 0 min 0,000 mm 0,0 UV-I 0 W/m 8,8 C 6,8 C 17,7 km/h (3 Bft) 100,00 %
14.11.2015 02:26 10,5 C 88 % 1025,3 hPa 0,0 l/m 15,2 km/h (3 Bft) SW 234 0 min 0,000 mm 0,0 UV-I 0 W/m 8,6 C 5,7 C 22,5 km/h (4 Bft) 100,00 %
14.11.2015 02:27 10,6 C 88 % 1025,3 hPa 0,0 l/m 13,5 km/h (3 Bft) SW 223 0 min 0,000 mm 0,0 UV-I 0 W/m 8,7 C 6,5 C 20,9 km/h (4 Bft) 95,65 %
14.11.2015 02:28 10,6 C 88 % 1025,3 hPa 0,0 l/m 12,9 km/h (3 Bft) S-SW 207 0 min 0,000 mm 0,0 UV-I 0 W/m 8,7 C 6,8 C 19,3 km/h (3 Bft) 100,00 %
14.11.2015 02:29 10,6 C 88 % 1025,4 hPa 0,0 l/m 15,4 km/h (3 Bft) S-SW 210 0 min 0,000 mm 0,0 UV-I 0 W/m 8,7 C 5,7 C 22,5 km/h (4 Bft) 100,00 %
14.11.2015 02:30 10,6 C 88 % 1025,4 hPa 0,0 l/m 12,8 km/h (3 Bft) SW 215 0 min 0,000 mm 0,0 UV-I 0 W/m 8,7 C 6,8 C 22,5 km/h (4 Bft) 96,15 %
14.11.2015 02:31 10,7 C 88 % 1025,4 hPa 0,0 l/m 11,3 km/h (2 Bft) SW 215 0 min 0,000 mm 0,0 UV-I 0 W/m 8,8 C 7,7 C 16,1 km/h (3 Bft) 95,83 %
14.11.2015 02:32 10,7 C 88 % 1025,4 hPa 0,0 l/m 12,1 km/h (2 Bft) W-SW 240 0 min 0,000 mm 0,0 UV-I 0 W/m 8,8 C 7,3 C 20,9 km/h (4 Bft) 100,00 %
14.11.2015 02:33 10,7 C 88 % 1025,4 hPa 0,0 l/m 8,9 km/h (2 Bft) W-SW 250 0 min 0,000 mm 0,0 UV-I 0 W/m 8,8 C 9,0 C 16,1 km/h (3 Bft) 100,00 %
14.11.2015 02:34 10,7 C 88 % 1025,4 hPa 0,0 l/m 9,4 km/h (2 Bft) W-SW 257 0 min 0,000 mm 0,0 UV-I 0 W/m 8,8 C 8,7 C 16,1 km/h (3 Bft) 100,00 %
14.11.2015 02:35 10,7 C 88 % 1025,5 hPa 0,0 l/m 10,9 km/h (2 Bft) SW 217 0 min 0,000 mm 0,0 UV-I 0 W/m 8,8 C 7,9 C 16,1 km/h (3 Bft) 100,00 %
14.11.2015 02:36 10,7 C 88 % 1025,5 hPa 0,0 l/m 12,6 km/h (3 Bft) W-SW 255 0 min 0,000 mm 0,0 UV-I 0 W/m 8,8 C 7,0 C 19,3 km/h (3 Bft) 100,00 %
14.11.2015 02:37 10,7 C 88 % 1025,5 hPa 0,0 l/m 10,7 km/h (2 Bft) S-SW 204 0 min 0,000 mm 0,0 UV-I 0 W/m 8,8 C 8,0 C 16,1 km/h (3 Bft) 93,33 %
14.11.2015 02:38 10,7 C 88 % 1025,6 hPa 0,0 l/m 8,3 km/h (2 Bft) SW 214 0 min 0,000 mm 0,0 UV-I 0 W/m 8,8 C 9,4 C 14,5 km/h (3 Bft) 96,15 %
14.11.2015 02:39 10,7 C 88 % 1025,6 hPa 0,0 l/m 10,5 km/h (2 Bft) W-SW 257 0 min 0,000 mm 0,0 UV-I 0 W/m 8,8 C 8,1 C 17,7 km/h (3 Bft) 100,00 %
14.11.2015 02:40 10,7 C 88 % 1025,6 hPa 0,0 l/m 9,8 km/h (2 Bft) W-SW 249 0 min 0,000 mm 0,0 UV-I 0 W/m 8,8 C 8,5 C 14,5 km/h (3 Bft) 95,65 %
14.11.2015 02:41 10,7 C 88 % 1025,8 hPa 0,0 l/m 12,2 km/h (2 Bft) W-NW 286 0 min 0,000 mm 0,0 UV-I 0 W/m 8,8 C 7,2 C 17,7 km/h (3 Bft) 100,00 %
14.11.2015 02:42 10,7 C 88 % 1025,7 hPa 0,0 l/m 10,5 km/h (2 Bft) SW 234 0 min 0,000 mm 0,0 UV-I 0 W/m 8,8 C 8,1 C 14,5 km/h (3 Bft) 100,00 %
14.11.2015 02:43 10,7 C 88 % 1025,7 hPa 0,0 l/m 9,7 km/h (2 Bft) SW 229 0 min 0,000 mm 0,0 UV-I 0 W/m 8,8 C 8,5 C 17,7 km/h (3 Bft) 92,59 %
14.11.2015 02:44 10,7 C 89 % 1025,7 hPa 0,2 l/m 10,1 km/h (2 Bft) W 264 0 min 0,000 mm 0,0 UV-I 0 W/m 9,0 C 8,3 C 14,5 km/h (3 Bft) 100,00 %
14.11.2015 02:45 10,7 C 89 % 1025,7 hPa 0,0 l/m 10,3 km/h (2 Bft) W 267 0 min 0,000 mm 0,0 UV-I 0 W/m 9,0 C 8,2 C 14,5 km/h (3 Bft) 95,83 %
14.11.2015 02:46 10,7 C 89 % 1025,8 hPa 0,0 l/m 9,6 km/h (2 Bft) W 275 0 min 0,000 mm 0,0 UV-I 0 W/m 9,0 C 8,6 C 12,9 km/h (3 Bft) 100,00 %
14.11.2015 02:47 10,7 C 89 % 1025,8 hPa 0,0 l/m 11,3 km/h (2 Bft) W-NW 299 0 min 0,000 mm 0,0 UV-I 0 W/m 9,0 C 7,7 C 17,7 km/h (3 Bft) 100,00 %
14.11.2015 02:48 10,7 C 89 % 1025,8 hPa 0,0 l/m 11,9 km/h (2 Bft) W-NW 297 0 min 0,000 mm 0,0 UV-I 0 W/m 9,0 C 7,4 C 17,7 km/h (3 Bft) 100,00 %
14.11.2015 02:49 10,7 C 89 % 1025,8 hPa 0,2 l/m 13,1 km/h (3 Bft) W-NW 288 0 min 0,000 mm 0,0 UV-I 0 W/m 9,0 C 6,8 C 17,7 km/h (3 Bft) 100,00 %
14.11.2015 02:50 10,7 C 90 % 1025,8 hPa 0,0 l/m 10,4 km/h (2 Bft) W 269 0 min 0,000 mm 0,0 UV-I 0 W/m 9,1 C 8,1 C 16,1 km/h (3 Bft) 100,00 %
14.11.2015 02:51 10,6 C 90 % 1025,8 hPa 0,0 l/m 8,2 km/h (2 Bft) W-NW 284 0 min 0,000 mm 0,0 UV-I 0 W/m 9,0 C 9,4 C 11,3 km/h (2 Bft) 100,00 %
14.11.2015 02:52 10,6 C 90 % 1025,8 hPa 0,0 l/m 7,3 km/h (2 Bft) W-NW 283 0 min 0,000 mm 0,0 UV-I 0 W/m 9,0 C 10,0 C 12,9 km/h (3 Bft) 100,00 %
14.11.2015 02:53 10,6 C 90 % 1025,9 hPa 0,0 l/m 11,0 km/h (2 Bft) W 273 0 min 0,000 mm 0,0 UV-I 0 W/m 9,0 C 7,7 C 16,1 km/h (3 Bft) 100,00 %
14.11.2015 02:54 10,6 C 90 % 1025,9 hPa 0,2 l/m 7,6 km/h (2 Bft) W 281 0 min 0,000 mm 0,0 UV-I 0 W/m 9,0 C 9,8 C 11,3 km/h (2 Bft) 95,83 %
14.11.2015 02:55 10,5 C 90 % 1025,9 hPa 0,0 l/m 9,1 km/h (2 Bft) W 267 0 min 0,000 mm 0,0 UV-I 0 W/m 8,9 C 8,7 C 14,5 km/h (3 Bft) 100,00 %
14.11.2015 02:56 10,4 C 91 % 1025,9 hPa 0,0 l/m 9,7 km/h (2 Bft) NW 307 0 min 0,000 mm 0,0 UV-I 0 W/m 9,0 C 8,2 C 17,7 km/h (3 Bft) 100,00 %
14.11.2015 02:57 10,4 C 91 % 1025,9 hPa 0,0 l/m 10,2 km/h (2 Bft) W-SW 257 0 min 0,000 mm 0,0 UV-I 0 W/m 9,0 C 7,9 C 16,1 km/h (3 Bft) 100,00 %
14.11.2015 02:58 10,4 C 91 % 1025,9 hPa 0,0 l/m 12,3 km/h (3 Bft) W 261 0 min 0,000 mm 0,0 UV-I 0 W/m 9,0 C 6,8 C 16,1 km/h (3 Bft) 95,83 %
14.11.2015 02:59 10,4 C 91 % 1025,8 hPa 0,0 l/m 10,4 km/h (2 Bft) W 262 0 min 0,000 mm 0,0 UV-I 0 W/m 9,0 C 7,8 C 16,1 km/h (3 Bft) 96,15 %
14.11.2015 03:00 10,3 C 91 % 1025,9 hPa 0,0 l/m 7,4 km/h (2 Bft) W 260 0 min 0,025 mm 0,0 UV-I 0 W/m 8,9 C 9,6 C 11,3 km/h (2 Bft) 96,30 %
14.11.2015 03:01 10,3 C 91 % 1025,8 hPa 0,0 l/m 12,4 km/h (3 Bft) W 279 0 min 0,000 mm 0,0 UV-I 0 W/m 8,9 C 6,7 C 19,3 km/h (3 Bft) 100,00 %
14.11.2015 03:02 10,3 C 91 % 1025,9 hPa 0,2 l/m 12,7 km/h (3 Bft) W 262 0 min 0,000 mm 0,0 UV-I 0 W/m 8,9 C 6,5 C 20,9 km/h (4 Bft) 100,00 %
14.11.2015 03:03 10,3 C 91 % 1026,0 hPa 0,0 l/m 12,1 km/h (2 Bft) W-NW 283 0 min 0,000 mm 0,0 UV-I 0 W/m 8,9 C 6,8 C 16,1 km/h (3 Bft) 100,00 %
14.11.2015 03:04 10,3 C 91 % 1025,9 hPa 0,0 l/m 13,2 km/h (3 Bft) W-NW 303 0 min 0,000 mm 0,0 UV-I 0 W/m 8,9 C 6,3 C 19,3 km/h (3 Bft) 100,00 %
14.11.2015 03:05 10,3 C 91 % 1026,0 hPa 0,0 l/m 12,0 km/h (2 Bft) W-NW 301 0 min 0,000 mm 0,0 UV-I 0 W/m 8,9 C 6,9 C 19,3 km/h (3 Bft) 100,00 %
14.11.2015 03:06 10,3 C 91 % 1026,1 hPa 0,0 l/m 14,3 km/h (3 Bft) SW 227 0 min 0,000 mm 0,0 UV-I 0 W/m 8,9 C 5,8 C 20,9 km/h (4 Bft) 100,00 %
14.11.2015 03:07 10,3 C 91 % 1026,1 hPa 0,0 l/m 10,8 km/h (2 Bft) W 271 0 min 0,000 mm 0,0 UV-I 0 W/m 8,9 C 7,5 C 17,7 km/h (3 Bft) 100,00 %
14.11.2015 03:08 10,3 C 91 % 1026,1 hPa 0,0 l/m 10,9 km/h (2 Bft) W-NW 302 0 min 0,000 mm 0,0 UV-I 0 W/m 8,9 C 7,4 C 14,5 km/h (3 Bft) 100,00 %
14.11.2015 03:09 10,3 C 91 % 1026,2 hPa 0,0 l/m 10,1 km/h (2 Bft) W-NW 298 0 min 0,000 mm 0,0 UV-I 0 W/m 8,9 C 7,9 C 16,1 km/h (3 Bft) 100,00 %
14.11.2015 03:10 10,3 C 91 % 1026,2 hPa 0,0 l/m 8,4 km/h (2 Bft) W-SW 248 0 min 0,000 mm 0,0 UV-I 0 W/m 8,9 C 8,9 C 17,7 km/h (3 Bft) 100,00 %
14.11.2015 03:11 10,3 C 91 % 1026,4 hPa 0,2 l/m 18,2 km/h (3 Bft) W 269 0 min 0,000 mm 0,0 UV-I 0 W/m 8,9 C 4,3 C 32,2 km/h (5 Bft) 100,00 %
14.11.2015 03:12 10,2 C 90 % 1026,5 hPa 0,0 l/m 8,2 km/h (2 Bft) NW 304 0 min 0,000 mm 0,0 UV-I 0 W/m 8,6 C 8,9 C 19,3 km/h (3 Bft) 100,00 %
14.11.2015 03:13 10,2 C 91 % 1026,5 hPa 0,0 l/m 10,2 km/h (2 Bft) W 272 0 min 0,000 mm 0,0 UV-I 0 W/m 8,8 C 7,7 C 16,1 km/h (3 Bft) 100,00 %
14.11.2015 03:14 10,2 C 90 % 1026,5 hPa 0,0 l/m 13,0 km/h (3 Bft) W 281 0 min 0,000 mm 0,0 UV-I 0 W/m 8,6 C 6,3 C 20,9 km/h (4 Bft) 100,00 %
14.11.2015 03:15 10,1 C 90 % 1026,5 hPa 0,0 l/m 11,0 km/h (2 Bft) W 269 0 min 0,000 mm 0,0 UV-I 0 W/m 8,5 C 7,1 C 17,7 km/h (3 Bft) 95,83 %
14.11.2015 03:16 10,0 C 88 % 1026,5 hPa 0,0 l/m 20,4 km/h (4 Bft) W 269 0 min 0,000 mm 0,0 UV-I 0 W/m 8,1 C 3,2 C 33,8 km/h (5 Bft) 100,00 %
14.11.2015 03:17 9,9 C 86 % 1026,2 hPa 0,0 l/m 15,6 km/h (3 Bft) NW 309 0 min 0,000 mm 0,0 UV-I 0 W/m 7,7 C 4,8 C 20,9 km/h (4 Bft) 100,00 %
14.11.2015 03:18 9,8 C 86 % 1026,6 hPa 0,0 l/m 13,3 km/h (3 Bft) W-SW 258 0 min 0,000 mm 0,0 UV-I 0 W/m 7,6 C 5,6 C 20,9 km/h (4 Bft) 100,00 %
14.11.2015 03:19 9,8 C 86 % 1026,6 hPa 0,0 l/m 17,9 km/h (3 Bft) W 271 0 min 0,000 mm 0,0 UV-I 0 W/m 7,6 C 3,8 C 30,6 km/h (5 Bft) 100,00 %
14.11.2015 03:20 9,7 C 86 % 1026,6 hPa 0,0 l/m 10,9 km/h (2 Bft) W-SW 248 0 min 0,000 mm 0,0 UV-I 0 W/m 7,5 C 6,8 C 22,5 km/h (4 Bft) 100,00 %
14.11.2015 03:21 9,6 C 86 % 1026,6 hPa 0,0 l/m 10,3 km/h (2 Bft) W-NW 284 0 min 0,000 mm 0,0 UV-I 0 W/m 7,4 C 7,0 C 19,3 km/h (3 Bft) 100,00 %
14.11.2015 03:22 9,6 C 86 % 1026,7 hPa 0,0 l/m 10,7 km/h (2 Bft) W 277 0 min 0,000 mm 0,0 UV-I 0 W/m 7,4 C 6,8 C 16,1 km/h (3 Bft) 100,00 %
14.11.2015 03:23 9,5 C 86 % 1026,8 hPa 0,0 l/m 10,7 km/h (2 Bft) W-SW 255 0 min 0,000 mm 0,0 UV-I 0 W/m 7,3 C 6,6 C 17,7 km/h (3 Bft) 100,00 %
14.11.2015 03:24 9,4 C 86 % 1026,8 hPa 0,0 l/m 13,1 km/h (3 Bft) W-NW 292 0 min 0,000 mm 0,0 UV-I 0 W/m 7,2 C 5,3 C 20,9 km/h (4 Bft) 100,00 %
14.11.2015 03:25 9,4 C 86 % 1026,8 hPa 0,0 l/m 12,9 km/h (3 Bft) W-NW 298 0 min 0,000 mm 0,0 UV-I 0 W/m 7,2 C 5,4 C 19,3 km/h (3 Bft) 100,00 %
14.11.2015 03:26 9,3 C 86 % 1026,8 hPa 0,0 l/m 11,4 km/h (2 Bft) W-SW 254 0 min 0,000 mm 0,0 UV-I 0 W/m 7,1 C 6,0 C 16,1 km/h (3 Bft) 99,23 %
14.11.2015 03:27 9,3 C 86 % 1026,9 hPa 0,0 l/m 12,5 km/h (3 Bft) W-SW 247 0 min 0,000 mm 0,0 UV-I 0 W/m 7,1 C 5,5 C 20,9 km/h (4 Bft) 100,00 %
14.11.2015 03:28 9,2 C 86 % 1026,8 hPa 0,0 l/m 12,0 km/h (2 Bft) W-SW 248 0 min 0,000 mm 0,0 UV-I 0 W/m 7,0 C 5,6 C 19,3 km/h (3 Bft) 100,00 %
14.11.2015 03:29 9,2 C 86 % 1026,8 hPa 0,0 l/m 15,4 km/h (3 Bft) W 281 0 min 0,000 mm 0,0 UV-I 0 W/m 7,0 C 4,0 C 29,0 km/h (5 Bft) 100,00 %
14.11.2015 03:30 9,1 C 87 % 1026,8 hPa 0,0 l/m 10,1 km/h (2 Bft) NW 320 0 min 0,000 mm 0,0 UV-I 0 W/m 7,1 C 6,5 C 14,5 km/h (3 Bft) 100,00 %
14.11.2015 03:31 9,1 C 87 % 1026,8 hPa 0,2 l/m 11,1 km/h (2 Bft) SW 228 0 min 0,000 mm 0,0 UV-I 0 W/m 7,1 C 6,0 C 19,3 km/h (3 Bft) 100,00 %
14.11.2015 03:32 9,1 C 88 % 1026,8 hPa 0,0 l/m 12,3 km/h (3 Bft) W-NW 286 0 min 0,000 mm 0,0 UV-I 0 W/m 7,2 C 5,3 C 16,1 km/h (3 Bft) 100,00 %
14.11.2015 03:33 9,0 C 88 % 1026,9 hPa 0,0 l/m 15,3 km/h (3 Bft) W-NW 290 0 min 0,000 mm 0,0 UV-I 0 W/m 7,1 C 3,8 C 25,7 km/h (4 Bft) 100,00 %
14.11.2015 03:34 8,9 C 87 % 1026,8 hPa 0,0 l/m 16,8 km/h (3 Bft) W 273 0 min 0,000 mm 0,0 UV-I 0 W/m 6,9 C 3,0 C 20,9 km/h (4 Bft) 100,00 %
14.11.2015 03:35 8,9 C 87 % 1026,8 hPa 0,0 l/m 20,5 km/h (4 Bft) W-NW 296 0 min 0,000 mm 0,0 UV-I 0 W/m 6,9 C 1,7 C 27,4 km/h (4 Bft) 96,15 %
14.11.2015 03:36 8,9 C 87 % 1026,8 hPa 0,0 l/m 13,1 km/h (3 Bft) W-NW 286 0 min 0,000 mm 0,0 UV-I 0 W/m 6,9 C 4,7 C 24,1 km/h (4 Bft) 100,00 %
14.11.2015 03:37 8,8 C 88 % 1026,8 hPa 0,0 l/m 13,4 km/h (3 Bft) W 267 0 min 0,000 mm 0,0 UV-I 0 W/m 6,9 C 4,4 C 22,5 km/h (4 Bft) 96,15 %
14.11.2015 03:38 8,8 C 88 % 1026,9 hPa 0,0 l/m 16,4 km/h (3 Bft) W 273 0 min 0,000 mm 0,0 UV-I 0 W/m 6,9 C 3,1 C 22,5 km/h (4 Bft) 100,00 %
14.11.2015 03:39 8,8 C 88 % 1026,9 hPa 0,0 l/m 14,1 km/h (3 Bft) W 263 0 min 0,000 mm 0,0 UV-I 0 W/m 6,9 C 4,1 C 20,9 km/h (4 Bft) 100,00 %
14.11.2015 03:40 8,8 C 88 % 1026,9 hPa 0,0 l/m 14,3 km/h (3 Bft) W 270 0 min 0,000 mm 0,0 UV-I 0 W/m 6,9 C 4,0 C 24,1 km/h (4 Bft) 95,83 %
14.11.2015 03:41 8,7 C 88 % 1026,9 hPa 0,0 l/m 15,9 km/h (3 Bft) W-NW 303 0 min 0,000 mm 0,0 UV-I 0 W/m 6,8 C 3,2 C 20,9 km/h (4 Bft) 100,00 %
14.11.2015 03:42 8,7 C 88 % 1026,9 hPa 0,0 l/m 11,5 km/h (2 Bft) W-SW 244 0 min 0,000 mm 0,0 UV-I 0 W/m 6,8 C 5,3 C 16,1 km/h (3 Bft) 100,00 %
14.11.2015 03:43 8,7 C 89 % 1027,0 hPa 0,0 l/m 11,1 km/h (2 Bft) W-NW 294 0 min 0,000 mm 0,0 UV-I 0 W/m 7,0 C 5,5 C 17,7 km/h (3 Bft) 100,00 %
14.11.2015 03:44 8,7 C 89 % 1027,0 hPa 0,0 l/m 13,9 km/h (3 Bft) W-SW 239 0 min 0,000 mm 0,0 UV-I 0 W/m 7,0 C 4,1 C 19,3 km/h (3 Bft) 91,67 %
14.11.2015 03:45 8,6 C 89 % 1027,0 hPa 0,0 l/m 11,4 km/h (2 Bft) W 263 0 min 0,000 mm 0,0 UV-I 0 W/m 6,9 C 5,2 C 14,5 km/h (3 Bft) 96,15 %
14.11.2015 03:46 8,6 C 89 % 1027,1 hPa 0,0 l/m 15,8 km/h (3 Bft) W 273 0 min 0,000 mm 0,0 UV-I 0 W/m 6,9 C 3,1 C 22,5 km/h (4 Bft) 91,67 %
14.11.2015 03:47 8,6 C 89 % 1027,0 hPa 0,0 l/m 14,3 km/h (3 Bft) W-NW 284 0 min 0,000 mm 0,0 UV-I 0 W/m 6,9 C 3,8 C 22,5 km/h (4 Bft) 91,67 %
14.11.2015 03:48 8,6 C 89 % 1027,1 hPa 0,0 l/m 13,3 km/h (3 Bft) W-NW 299 0 min 0,000 mm 0,0 UV-I 0 W/m 6,9 C 4,2 C 16,1 km/h (3 Bft) 100,00 %
14.11.2015 03:49 8,6 C 89 % 1027,1 hPa 0,0 l/m 14,0 km/h (3 Bft) NW 305 0 min 0,000 mm 0,0 UV-I 0 W/m 6,9 C 3,9 C 17,7 km/h (3 Bft) 100,00 %
14.11.2015 03:50 8,6 C 89 % 1027,1 hPa 0,0 l/m 9,2 km/h (2 Bft) W 267 0 min 0,000 mm 0,0 UV-I 0 W/m 6,9 C 6,6 C 19,3 km/h (3 Bft) 100,00 %
14.11.2015 03:51 8,6 C 90 % 1027,0 hPa 0,0 l/m 7,6 km/h (2 Bft) W-SW 246 0 min 0,000 mm 0,0 UV-I 0 W/m 7,1 C 7,7 C 11,3 km/h (2 Bft) 100,00 %
14.11.2015 03:52 8,6 C 89 % 1027,0 hPa 0,0 l/m 11,2 km/h (2 Bft) NW 304 0 min 0,000 mm 0,0 UV-I 0 W/m 6,9 C 5,3 C 14,5 km/h (3 Bft) 100,00 %
14.11.2015 03:53 8,6 C 89 % 1027,0 hPa 0,0 l/m 15,3 km/h (3 Bft) SW 221 0 min 0,000 mm 0,0 UV-I 0 W/m 6,9 C 3,3 C 25,7 km/h (4 Bft) 100,00 %
14.11.2015 03:54 8,6 C 89 % 1027,1 hPa 0,2 l/m 11,3 km/h (2 Bft) W-SW 252 0 min 0,000 mm 0,0 UV-I 0 W/m 6,9 C 5,3 C 17,7 km/h (3 Bft) 100,00 %
14.11.2015 03:55 8,6 C 89 % 1027,1 hPa 0,0 l/m 9,5 km/h (2 Bft) W 272 0 min 0,000 mm 0,0 UV-I 0 W/m 6,9 C 6,4 C 14,5 km/h (3 Bft) 100,00 %
14.11.2015 03:56 8,6 C 89 % 1027,2 hPa 0,0 l/m 10,7 km/h (2 Bft) W 273 0 min 0,000 mm 0,0 UV-I 0 W/m 6,9 C 5,6 C 16,1 km/h (3 Bft) 100,00 %
14.11.2015 03:57 8,6 C 89 % 1027,1 hPa 0,0 l/m 10,3 km/h (2 Bft) SW 236 0 min 0,000 mm 0,0 UV-I 0 W/m 6,9 C 5,9 C 12,9 km/h (3 Bft) 100,00 %
14.11.2015 03:58 8,6 C 89 % 1027,1 hPa 0,0 l/m 12,2 km/h (2 Bft) W-NW 292 0 min 0,000 mm 0,0 UV-I 0 W/m 6,9 C 4,8 C 16,1 km/h (3 Bft) 100,00 %
14.11.2015 03:59 8,6 C 89 % 1027,2 hPa 0,0 l/m 9,2 km/h (2 Bft) SW 223 0 min 0,000 mm 0,0 UV-I 0 W/m 6,9 C 6,6 C 12,9 km/h (3 Bft) 100,00 %
14.11.2015 04:00 8,6 C 89 % 1027,2 hPa 0,0 l/m 11,8 km/h (2 Bft) W 269 0 min 0,026 mm 0,0 UV-I 0 W/m 6,9 C 5,0 C 22,5 km/h (4 Bft) 95,65 %
14.11.2015 04:01 8,6 C 89 % 1027,1 hPa 0,0 l/m 14,3 km/h (3 Bft) SW 232 0 min 0,000 mm 0,0 UV-I 0 W/m 6,9 C 3,8 C 19,3 km/h (3 Bft) 100,00 %
14.11.2015 04:02 8,6 C 88 % 1027,0 hPa 0,0 l/m 12,1 km/h (2 Bft) SW 227 0 min 0,000 mm 0,0 UV-I 0 W/m 6,7 C 4,8 C 17,7 km/h (3 Bft) 100,00 %
14.11.2015 04:03 8,6 C 89 % 1026,9 hPa 0,0 l/m 10,9 km/h (2 Bft) W 261 0 min 0,000 mm 0,0 UV-I 0 W/m 6,9 C 5,5 C 19,3 km/h (3 Bft) 100,00 %
14.11.2015 04:04 8,6 C 89 % 1027,0 hPa 0,0 l/m 10,1 km/h (2 Bft) W-SW 256 0 min 0,000 mm 0,0 UV-I 0 W/m 6,9 C 6,0 C 14,5 km/h (3 Bft) 100,00 %
14.11.2015 04:05 8,6 C 89 % 1027,0 hPa 0,0 l/m 12,0 km/h (2 Bft) W-NW 286 0 min 0,000 mm 0,0 UV-I 0 W/m 6,9 C 4,9 C 25,7 km/h (4 Bft) 100,00 %
14.11.2015 04:06 8,6 C 88 % 1027,1 hPa 0,0 l/m 12,8 km/h (3 Bft) W 265 0 min 0,000 mm 0,0 UV-I 0 W/m 6,7 C 4,5 C 20,9 km/h (4 Bft) 100,00 %
14.11.2015 04:07 8,6 C 88 % 1027,2 hPa 0,0 l/m 10,9 km/h (2 Bft) W 281 0 min 0,000 mm 0,0 UV-I 0 W/m 6,7 C 5,5 C 17,7 km/h (3 Bft) 100,00 %
14.11.2015 04:08 8,6 C 88 % 1027,1 hPa 0,0 l/m 9,4 km/h (2 Bft) W-NW 284 0 min 0,000 mm 0,0 UV-I 0 W/m 6,7 C 6,4 C 24,1 km/h (4 Bft) 100,00 %
14.11.2015 04:09 8,6 C 88 % 1027,1 hPa 0,0 l/m 16,4 km/h (3 Bft) W-SW 251 0 min 0,000 mm 0,0 UV-I 0 W/m 6,7 C 2,8 C 30,6 km/h (5 Bft) 100,00 %
14.11.2015 04:10 8,6 C 88 % 1027,1 hPa 0,0 l/m 12,3 km/h (3 Bft) S-SW 203 0 min 0,000 mm 0,0 UV-I 0 W/m 6,7 C 4,7 C 19,3 km/h (3 Bft) 100,00 %
14.11.2015 04:11 8,7 C 88 % 1026,9 hPa 0,0 l/m 11,2 km/h (2 Bft) W-NW 294 0 min 0,000 mm 0,0 UV-I 0 W/m 6,8 C 5,5 C 17,7 km/h (3 Bft) 100,00 %
14.11.2015 04:12 8,7 C 88 % 1027,0 hPa 0,0 l/m 9,7 km/h (2 Bft) W-NW 298 0 min 0,000 mm 0,0 UV-I 0 W/m 6,8 C 6,3 C 14,5 km/h (3 Bft) 100,00 %
14.11.2015 04:13 8,7 C 88 % 1027,0 hPa 0,0 l/m 7,2 km/h (2 Bft) W-SW 240 0 min 0,000 mm 0,0 UV-I 0 W/m 6,8 C 8,1 C 12,9 km/h (3 Bft) 100,00 %
14.11.2015 04:14 8,7 C 88 % 1027,0 hPa 0,0 l/m 7,9 km/h (2 Bft) SW 215 0 min 0,000 mm 0,0 UV-I 0 W/m 6,8 C 7,6 C 12,9 km/h (3 Bft) 100,00 %
14.11.2015 04:15 8,7 C 88 % 1026,9 hPa 0,0 l/m 11,3 km/h (2 Bft) W-NW 286 0 min 0,000 mm 0,0 UV-I 0 W/m 6,8 C 5,4 C 14,5 km/h (3 Bft) 92,86 %
14.11.2015 04:16 8,7 C 88 % 1027,0 hPa 0,0 l/m 10,7 km/h (2 Bft) W 269 0 min 0,000 mm 0,0 UV-I 0 W/m 6,8 C 5,7 C 16,1 km/h (3 Bft) 100,00 %
14.11.2015 04:17 8,6 C 88 % 1027,0 hPa 0,0 l/m 14,6 km/h (3 Bft) W 267 0 min 0,000 mm 0,0 UV-I 0 W/m 6,7 C 3,6 C 19,3 km/h (3 Bft) 100,00 %
14.11.2015 04:18 8,7 C 87 % 1026,9 hPa 0,0 l/m 11,1 km/h (2 Bft) SW 224 0 min 0,000 mm 0,0 UV-I 0 W/m 6,7 C 5,5 C 16,1 km/h (3 Bft) 96,30 %
14.11.2015 04:19 8,7 C 87 % 1027,0 hPa 0,0 l/m 8,4 km/h (2 Bft) W 275 0 min 0,000 mm 0,0 UV-I 0 W/m 6,7 C 7,2 C 16,1 km/h (3 Bft) 100,00 %
14.11.2015 04:20 8,7 C 88 % 1027,0 hPa 0,0 l/m 6,3 km/h (2 Bft) W-SW 252 0 min 0,000 mm 0,0 UV-I 0 W/m 6,8 C 8,7 C 9,7 km/h (2 Bft) 100,00 %
14.11.2015 04:21 8,7 C 88 % 1027,0 hPa 0,0 l/m 11,3 km/h (2 Bft) W-NW 292 0 min 0,000 mm 0,0 UV-I 0 W/m 6,8 C 5,4 C 19,3 km/h (3 Bft) 100,00 %
14.11.2015 04:22 8,7 C 87 % 1027,1 hPa 0,0 l/m 10,2 km/h (2 Bft) W 268 0 min 0,000 mm 0,0 UV-I 0 W/m 6,7 C 6,0 C 16,1 km/h (3 Bft) 100,00 %
14.11.2015 04:23 8,7 C 88 % 1027,1 hPa 0,0 l/m 11,6 km/h (2 Bft) W 262 0 min 0,000 mm 0,0 UV-I 0 W/m 6,8 C 5,2 C 16,1 km/h (3 Bft) 100,00 %
14.11.2015 04:24 8,7 C 87 % 1027,1 hPa 0,0 l/m 9,8 km/h (2 Bft) W 277 0 min 0,000 mm 0,0 UV-I 0 W/m 6,7 C 6,3 C 14,5 km/h (3 Bft) 100,00 %
14.11.2015 04:25 8,7 C 88 % 1027,2 hPa 0,0 l/m 7,7 km/h (2 Bft) W 264 0 min 0,000 mm 0,0 UV-I 0 W/m 6,8 C 7,7 C 12,9 km/h (3 Bft) 100,00 %
14.11.2015 04:26 8,7 C 87 % 1027,2 hPa 0,0 l/m 10,3 km/h (2 Bft) W-NW 282 0 min 0,000 mm 0,0 UV-I 0 W/m 6,7 C 6,0 C 16,1 km/h (3 Bft) 100,00 %
14.11.2015 04:27 8,7 C 87 % 1027,2 hPa 0,0 l/m 9,7 km/h (2 Bft) W 273 0 min 0,000 mm 0,0 UV-I 0 W/m 6,7 C 6,3 C 12,9 km/h (3 Bft) 100,00 %
14.11.2015 04:28 8,7 C 87 % 1027,2 hPa 0,0 l/m 9,2 km/h (2 Bft) W-SW 252 0 min 0,000 mm 0,0 UV-I 0 W/m 6,7 C 6,7 C 16,1 km/h (3 Bft) 100,00 %
14.11.2015 04:29 8,7 C 87 % 1027,2 hPa 0,0 l/m 10,5 km/h (2 Bft) S-SW 205 0 min 0,000 mm 0,0 UV-I 0 W/m 6,7 C 5,9 C 17,7 km/h (3 Bft) 100,00 %
14.11.2015 04:30 8,6 C 87 % 1027,2 hPa 0,0 l/m 10,9 km/h (2 Bft) W-SW 250 0 min 0,000 mm 0,0 UV-I 0 W/m 6,6 C 5,5 C 16,1 km/h (3 Bft) 100,00 %
14.11.2015 04:31 8,7 C 87 % 1027,2 hPa 0,0 l/m 11,6 km/h (2 Bft) W-SW 240 0 min 0,000 mm 0,0 UV-I 0 W/m 6,7 C 5,2 C 17,7 km/h (3 Bft) 96,55 %
14.11.2015 04:32 8,7 C 87 % 1027,2 hPa 0,0 l/m 8,3 km/h (2 Bft) SW 224 0 min 0,000 mm 0,0 UV-I 0 W/m 6,7 C 7,3 C 12,9 km/h (3 Bft) 100,00 %
14.11.2015 04:33 8,7 C 87 % 1027,2 hPa 0,0 l/m 9,0 km/h (2 Bft) W-SW 254 0 min 0,000 mm 0,0 UV-I 0 W/m 6,7 C 6,8 C 12,9 km/h (3 Bft) 100,00 %
14.11.2015 04:34 8,7 C 87 % 1027,2 hPa 0,0 l/m 11,3 km/h (2 Bft) W 280 0 min 0,000 mm 0,0 UV-I 0 W/m 6,7 C 5,4 C 17,7 km/h (3 Bft) 100,00 %
14.11.2015 04:35 8,7 C 86 % 1027,2 hPa 0,0 l/m 12,6 km/h (3 Bft) W-SW 240 0 min 0,000 mm 0,0 UV-I 0 W/m 6,5 C 4,7 C 16,1 km/h (3 Bft) 100,00 %
14.11.2015 04:36 8,7 C 86 % 1027,2 hPa 0,0 l/m 8,9 km/h (2 Bft) S-SW 205 0 min 0,000 mm 0,0 UV-I 0 W/m 6,5 C 6,9 C 11,3 km/h (2 Bft) 100,00 %
14.11.2015 04:37 8,7 C 86 % 1027,3 hPa 0,0 l/m 12,9 km/h (3 Bft) W-NW 292 0 min 0,000 mm 0,0 UV-I 0 W/m 6,5 C 4,6 C 20,9 km/h (4 Bft) 100,00 %
14.11.2015 04:38 8,7 C 86 % 1027,3 hPa 0,0 l/m 15,5 km/h (3 Bft) W 270 0 min 0,000 mm 0,0 UV-I 0 W/m 6,5 C 3,3 C 20,9 km/h (4 Bft) 100,00 %
14.11.2015 04:39 8,7 C 86 % 1027,4 hPa 0,0 l/m 9,3 km/h (2 Bft) W 277 0 min 0,000 mm 0,0 UV-I 0 W/m 6,5 C 6,6 C 14,5 km/h (3 Bft) 100,00 %
14.11.2015 04:40 8,8 C 86 % 1027,3 hPa 0,0 l/m 10,1 km/h (2 Bft) W 264 0 min 0,000 mm 0,0 UV-I 0 W/m 6,6 C 6,2 C 16,1 km/h (3 Bft) 100,00 %
14.11.2015 04:41 8,8 C 86 % 1027,4 hPa 0,0 l/m 9,6 km/h (2 Bft) W-NW 295 0 min 0,000 mm 0,0 UV-I 0 W/m 6,6 C 6,5 C 12,9 km/h (3 Bft) 100,00 %
14.11.2015 04:42 8,8 C 86 % 1027,4 hPa 0,0 l/m 13,0 km/h (3 Bft) W-NW 291 0 min 0,000 mm 0,0 UV-I 0 W/m 6,6 C 4,6 C 20,9 km/h (4 Bft) 100,00 %
14.11.2015 04:43 8,8 C 86 % 1027,4 hPa 0,0 l/m 13,8 km/h (3 Bft) W-SW 248 0 min 0,000 mm 0,0 UV-I 0 W/m 6,6 C 4,2 C 20,9 km/h (4 Bft) 100,00 %
14.11.2015 04:44 8,8 C 86 % 1027,5 hPa 0,0 l/m 11,7 km/h (2 Bft) W 272 0 min 0,000 mm 0,0 UV-I 0 W/m 6,6 C 5,3 C 19,3 km/h (3 Bft) 100,00 %
14.11.2015 04:45 8,8 C 86 % 1027,6 hPa 0,0 l/m 10,9 km/h (2 Bft) W 277 0 min 0,000 mm 0,0 UV-I 0 W/m 6,6 C 5,7 C 14,5 km/h (3 Bft) 100,00 %
14.11.2015 04:46 8,8 C 86 % 1027,6 hPa 0,0 l/m 10,6 km/h (2 Bft) SW 236 0 min 0,000 mm 0,0 UV-I 0 W/m 6,6 C 5,9 C 14,5 km/h (3 Bft) 100,00 %
14.11.2015 04:47 8,8 C 86 % 1027,6 hPa 0,0 l/m 8,2 km/h (2 Bft) SW 236 0 min 0,000 mm 0,0 UV-I 0 W/m 6,6 C 7,5 C 14,5 km/h (3 Bft) 100,00 %
14.11.2015 04:48 8,8 C 86 % 1027,6 hPa 0,0 l/m 13,7 km/h (3 Bft) W-SW 253 0 min 0,000 mm 0,0 UV-I 0 W/m 6,6 C 4,3 C 19,3 km/h (3 Bft) 100,00 %
14.11.2015 04:49 8,9 C 86 % 1027,6 hPa 0,0 l/m 11,0 km/h (2 Bft) W-NW 292 0 min 0,000 mm 0,0 UV-I 0 W/m 6,7 C 5,8 C 20,9 km/h (4 Bft) 96,55 %
14.11.2015 04:50 8,9 C 86 % 1027,6 hPa 0,0 l/m 8,9 km/h (2 Bft) W 281 0 min 0,000 mm 0,0 UV-I 0 W/m 6,7 C 7,1 C 12,9 km/h (3 Bft) 100,00 %
14.11.2015 04:51 8,9 C 86 % 1027,7 hPa 0,0 l/m 10,1 km/h (2 Bft) W-SW 238 0 min 0,000 mm 0,0 UV-I 0 W/m 6,7 C 6,3 C 16,1 km/h (3 Bft) 100,00 %
14.11.2015 04:52 8,9 C 86 % 1027,7 hPa 0,0 l/m 12,4 km/h (3 Bft) W 277 0 min 0,000 mm 0,0 UV-I 0 W/m 6,7 C 5,0 C 17,7 km/h (3 Bft) 100,00 %
14.11.2015 04:53 8,9 C 86 % 1027,7 hPa 0,0 l/m 11,8 km/h (2 Bft) W 274 0 min 0,000 mm 0,0 UV-I 0 W/m 6,7 C 5,4 C 17,7 km/h (3 Bft) 100,00 %
14.11.2015 04:54 8,9 C 86 % 1027,7 hPa 0,0 l/m 13,2 km/h (3 Bft) W 270 0 min 0,000 mm 0,0 UV-I 0 W/m 6,7 C 4,6 C 16,1 km/h (3 Bft) 95,83 %
14.11.2015 04:55 8,9 C 85 % 1027,7 hPa 0,0 l/m 11,0 km/h (2 Bft) W-NW 282 0 min 0,000 mm 0,0 UV-I 0 W/m 6,5 C 5,8 C 16,1 km/h (3 Bft) 92,31 %
14.11.2015 04:56 8,9 C 86 % 1027,7 hPa 0,0 l/m 9,6 km/h (2 Bft) SW 215 0 min 0,000 mm 0,0 UV-I 0 W/m 6,7 C 6,6 C 12,9 km/h (3 Bft) 100,00 %
14.11.2015 04:57 8,9 C 85 % 1027,7 hPa 0,0 l/m 9,7 km/h (2 Bft) W 266 0 min 0,000 mm 0,0 UV-I 0 W/m 6,5 C 6,6 C 17,7 km/h (3 Bft) 100,00 %
14.11.2015 04:58 8,9 C 85 % 1027,7 hPa 0,0 l/m 10,3 km/h (2 Bft) W 269 0 min 0,000 mm 0,0 UV-I 0 W/m 6,5 C 6,2 C 19,3 km/h (3 Bft) 100,00 %
14.11.2015 04:59 8,9 C 85 % 1027,8 hPa 0,0 l/m 10,5 km/h (2 Bft) W-NW 286 0 min 0,000 mm 0,0 UV-I 0 W/m 6,5 C 6,1 C 19,3 km/h (3 Bft) 100,00 %
14.11.2015 05:00 8,9 C 85 % 1027,7 hPa 0,0 l/m 10,1 km/h (2 Bft) W-NW 290 0 min 0,025 mm 0,0 UV-I 0 W/m 6,5 C 6,3 C 14,5 km/h (3 Bft) 100,00 %
14.11.2015 05:01 8,9 C 85 % 1027,8 hPa 0,0 l/m 10,6 km/h (2 Bft) W 262 0 min 0,000 mm 0,0 UV-I 0 W/m 6,5 C 6,0 C 22,5 km/h (4 Bft) 100,00 %
14.11.2015 05:02 8,9 C 85 % 1027,7 hPa 0,0 l/m 10,5 km/h (2 Bft) W 273 0 min 0,000 mm 0,0 UV-I 0 W/m 6,5 C 6,1 C 20,9 km/h (4 Bft) 100,00 %
14.11.2015 05:03 8,9 C 85 % 1027,7 hPa 0,0 l/m 13,3 km/h (3 Bft) W 280 0 min 0,000 mm 0,0 UV-I 0 W/m 6,5 C 4,6 C 19,3 km/h (3 Bft) 100,00 %
14.11.2015 05:04 8,9 C 85 % 1027,7 hPa 0,0 l/m 12,9 km/h (3 Bft) W-SW 258 0 min 0,000 mm 0,0 UV-I 0 W/m 6,5 C 4,8 C 19,3 km/h (3 Bft) 100,00 %
14.11.2015 05:05 8,9 C 85 % 1027,8 hPa 0,0 l/m 9,0 km/h (2 Bft) NW 307 0 min 0,000 mm 0,0 UV-I 0 W/m 6,5 C 7,0 C 14,5 km/h (3 Bft) 99,53 %
14.11.2015 05:06 8,9 C 85 % 1027,8 hPa 0,0 l/m 13,1 km/h (3 Bft) W 280 0 min 0,000 mm 0,0 UV-I 0 W/m 6,5 C 4,7 C 17,7 km/h (3 Bft) 97,56 %
14.11.2015 05:07 8,9 C 85 % 1027,9 hPa 0,0 l/m 13,2 km/h (3 Bft) W 261 0 min 0,000 mm 0,0 UV-I 0 W/m 6,5 C 4,6 C 22,5 km/h (4 Bft) 100,00 %
14.11.2015 05:08 8,9 C 85 % 1027,9 hPa 0,0 l/m 14,3 km/h (3 Bft) W-SW 252 0 min 0,000 mm 0,0 UV-I 0 W/m 6,5 C 4,1 C 20,9 km/h (4 Bft) 100,00 %
14.11.2015 05:09 8,9 C 85 % 1027,9 hPa 0,0 l/m 12,6 km/h (3 Bft) W-NW 296 0 min 0,000 mm 0,0 UV-I 0 W/m 6,5 C 4,9 C 17,7 km/h (3 Bft) 100,00 %
14.11.2015 05:10 8,9 C 85 % 1027,9 hPa 0,0 l/m 10,2 km/h (2 Bft) W 278 0 min 0,000 mm 0,0 UV-I 0 W/m 6,5 C 6,3 C 16,1 km/h (3 Bft) 100,00 %
14.11.2015 05:11 8,9 C 85 % 1027,9 hPa 0,0 l/m 12,0 km/h (2 Bft) W-SW 245 0 min 0,000 mm 0,0 UV-I 0 W/m 6,5 C 5,2 C 19,3 km/h (3 Bft) 100,00 %
14.11.2015 05:12 8,9 C 85 % 1027,9 hPa 0,0 l/m 11,7 km/h (2 Bft) W-SW 249 0 min 0,000 mm 0,0 UV-I 0 W/m 6,5 C 5,4 C 16,1 km/h (3 Bft) 100,00 %
14.11.2015 05:13 8,9 C 85 % 1028,0 hPa 0,0 l/m 13,3 km/h (3 Bft) W 271 0 min 0,000 mm 0,0 UV-I 0 W/m 6,5 C 4,6 C 19,3 km/h (3 Bft) 95,83 %
14.11.2015 05:14 8,9 C 85 % 1027,9 hPa 0,0 l/m 12,0 km/h (2 Bft) W 274 0 min 0,000 mm 0,0 UV-I 0 W/m 6,5 C 5,2 C 19,3 km/h (3 Bft) 100,00 %
14.11.2015 05:15 8,9 C 85 % 1028,0 hPa 0,0 l/m 11,7 km/h (2 Bft) W-NW 290 0 min 0,000 mm 0,0 UV-I 0 W/m 6,5 C 5,4 C 17,7 km/h (3 Bft) 100,00 %
14.11.2015 05:16 8,9 C 85 % 1028,0 hPa 0,0 l/m 11,7 km/h (2 Bft) SW 223 0 min 0,000 mm 0,0 UV-I 0 W/m 6,5 C 5,4 C 17,7 km/h (3 Bft) 100,00 %
14.11.2015 05:17 8,9 C 84 % 1028,0 hPa 0,0 l/m 16,8 km/h (3 Bft) W 263 0 min 0,000 mm 0,0 UV-I 0 W/m 6,3 C 3,0 C 27,4 km/h (4 Bft) 95,83 %
14.11.2015 05:18 8,9 C 84 % 1027,9 hPa 0,0 l/m 15,2 km/h (3 Bft) W 266 0 min 0,000 mm 0,0 UV-I 0 W/m 6,3 C 3,7 C 20,9 km/h (4 Bft) 96,15 %
14.11.2015 05:19 9,0 C 84 % 1027,9 hPa 0,0 l/m 12,0 km/h (2 Bft) W 261 0 min 0,000 mm 0,0 UV-I 0 W/m 6,4 C 5,4 C 19,3 km/h (3 Bft) 100,00 %
14.11.2015 05:20 9,0 C 84 % 1027,9 hPa 0,0 l/m 11,9 km/h (2 Bft) W-SW 253 0 min 0,000 mm 0,0 UV-I 0 W/m 6,4 C 5,4 C 22,5 km/h (4 Bft) 100,00 %
14.11.2015 05:21 9,0 C 84 % 1028,0 hPa 0,0 l/m 10,5 km/h (2 Bft) W-SW 251 0 min 0,000 mm 0,0 UV-I 0 W/m 6,4 C 6,2 C 19,3 km/h (3 Bft) 100,00 %
14.11.2015 05:22 9,1 C 84 % 1028,0 hPa 0,0 l/m 12,7 km/h (3 Bft) W-NW 290 0 min 0,000 mm 0,0 UV-I 0 W/m 6,5 C 5,1 C 20,9 km/h (4 Bft) 100,00 %
14.11.2015 05:23 9,1 C 84 % 1027,9 hPa 0,0 l/m 11,1 km/h (2 Bft) W-SW 244 0 min 0,000 mm 0,0 UV-I 0 W/m 6,5 C 6,0 C 16,1 km/h (3 Bft) 100,00 %
14.11.2015 05:24 9,1 C 84 % 1028,0 hPa 0,0 l/m 10,1 km/h (2 Bft) W-SW 248 0 min 0,000 mm 0,0 UV-I 0 W/m 6,5 C 6,5 C 12,9 km/h (3 Bft) 99,43 %
14.11.2015 05:25 9,0 C 84 % 1028,0 hPa 0,0 l/m 7,9 km/h (2 Bft) W 279 0 min 0,000 mm 0,0 UV-I 0 W/m 6,4 C 7,9 C 11,3 km/h (2 Bft) 100,00 %
14.11.2015 05:26 9,0 C 84 % 1028,0 hPa 0,0 l/m 10,3 km/h (2 Bft) W 261 0 min 0,000 mm 0,0 UV-I 0 W/m 6,4 C 6,3 C 14,5 km/h (3 Bft) 96,55 %
14.11.2015 05:27 9,0 C 84 % 1028,0 hPa 0,0 l/m 12,5 km/h (3 Bft) W 279 0 min 0,000 mm 0,0 UV-I 0 W/m 6,4 C 5,1 C 17,7 km/h (3 Bft) 100,00 %
14.11.2015 05:28 9,0 C 84 % 1028,0 hPa 0,0 l/m 10,2 km/h (2 Bft) W-SW 257 0 min 0,000 mm 0,0 UV-I 0 W/m 6,4 C 6,4 C 14,5 km/h (3 Bft) 100,00 %
14.11.2015 05:29 9,0 C 84 % 1028,0 hPa 0,0 l/m 10,4 km/h (2 Bft) W 269 0 min 0,000 mm 0,0 UV-I 0 W/m 6,4 C 6,3 C 16,1 km/h (3 Bft) 100,00 %
14.11.2015 05:30 9,0 C 84 % 1028,0 hPa 0,0 l/m 11,5 km/h (2 Bft) W-SW 249 0 min 0,000 mm 0,0 UV-I 0 W/m 6,4 C 5,6 C 19,3 km/h (3 Bft) 100,00 %
14.11.2015 05:31 9,0 C 83 % 1028,0 hPa 0,0 l/m 14,9 km/h (3 Bft) W-SW 245 0 min 0,000 mm 0,0 UV-I 0 W/m 6,3 C 4,0 C 19,3 km/h (3 Bft) 100,00 %
14.11.2015 05:32 9,0 C 83 % 1028,0 hPa 0,0 l/m 10,8 km/h (2 Bft) W 262 0 min 0,000 mm 0,0 UV-I 0 W/m 6,3 C 6,0 C 12,9 km/h (3 Bft) 100,00 %
14.11.2015 05:33 9,0 C 83 % 1028,0 hPa 0,0 l/m 8,0 km/h (2 Bft) W-SW 238 0 min 0,000 mm 0,0 UV-I 0 W/m 6,3 C 7,8 C 14,5 km/h (3 Bft) 100,00 %
14.11.2015 05:34 9,0 C 84 % 1028,0 hPa 0,0 l/m 10,8 km/h (2 Bft) W 278 0 min 0,000 mm 0,0 UV-I 0 W/m 6,4 C 6,0 C 17,7 km/h (3 Bft) 100,00 %
14.11.2015 05:35 9,0 C 84 % 1028,0 hPa 0,0 l/m 13,4 km/h (3 Bft) W 277 0 min 0,000 mm 0,0 UV-I 0 W/m 6,4 C 4,7 C 19,3 km/h (3 Bft) 100,00 %
14.11.2015 05:36 9,0 C 84 % 1028,0 hPa 0,0 l/m 12,6 km/h (3 Bft) W 264 0 min 0,000 mm 0,0 UV-I 0 W/m 6,4 C 5,1 C 22,5 km/h (4 Bft) 100,00 %
14.11.2015 05:37 9,0 C 84 % 1028,1 hPa 0,0 l/m 10,2 km/h (2 Bft) W 275 0 min 0,000 mm 0,0 UV-I 0 W/m 6,4 C 6,4 C 16,1 km/h (3 Bft) 100,00 %
14.11.2015 05:38 9,0 C 84 % 1028,1 hPa 0,0 l/m 12,5 km/h (3 Bft) W 273 0 min 0,000 mm 0,0 UV-I 0 W/m 6,4 C 5,1 C 20,9 km/h (4 Bft) 100,00 %
14.11.2015 05:39 9,0 C 84 % 1028,1 hPa 0,0 l/m 11,5 km/h (2 Bft) W 276 0 min 0,000 mm 0,0 UV-I 0 W/m 6,4 C 5,6 C 16,1 km/h (3 Bft) 100,00 %
14.11.2015 05:40 9,0 C 83 % 1028,1 hPa 0,0 l/m 12,1 km/h (2 Bft) W 276 0 min 0,000 mm 0,0 UV-I 0 W/m 6,3 C 5,3 C 19,3 km/h (3 Bft) 100,00 %
14.11.2015 05:41 9,0 C 83 % 1028,1 hPa 0,0 l/m 12,5 km/h (3 Bft) NW 304 0 min 0,000 mm 0,0 UV-I 0 W/m 6,3 C 5,1 C 19,3 km/h (3 Bft) 100,00 %
14.11.2015 05:42 9,0 C 83 % 1028,1 hPa 0,0 l/m 16,5 km/h (3 Bft) W 278 0 min 0,000 mm 0,0 UV-I 0 W/m 6,3 C 3,3 C 24,1 km/h (4 Bft) 95,83 %
14.11.2015 05:43 9,0 C 83 % 1028,1 hPa 0,0 l/m 13,8 km/h (3 Bft) W 274 0 min 0,000 mm 0,0 UV-I 0 W/m 6,3 C 4,5 C 24,1 km/h (4 Bft) 100,00 %
14.11.2015 05:44 9,1 C 83 % 1028,2 hPa 0,0 l/m 10,2 km/h (2 Bft) W 281 0 min 0,000 mm 0,0 UV-I 0 W/m 6,4 C 6,5 C 12,9 km/h (3 Bft) 95,83 %
14.11.2015 05:45 9,0 C 83 % 1028,2 hPa 0,0 l/m 8,3 km/h (2 Bft) W 262 0 min 0,000 mm 0,0 UV-I 0 W/m 6,3 C 7,6 C 16,1 km/h (3 Bft) 96,15 %
14.11.2015 05:46 9,0 C 83 % 1028,1 hPa 0,0 l/m 12,8 km/h (3 Bft) W 261 0 min 0,000 mm 0,0 UV-I 0 W/m 6,3 C 5,0 C 24,1 km/h (4 Bft) 100,00 %
14.11.2015 05:47 9,0 C 83 % 1028,1 hPa 0,0 l/m 10,8 km/h (2 Bft) W-SW 258 0 min 0,000 mm 0,0 UV-I 0 W/m 6,3 C 6,0 C 17,7 km/h (3 Bft) 100,00 %
14.11.2015 05:48 9,0 C 83 % 1028,1 hPa 0,0 l/m 11,4 km/h (2 Bft) W 265 0 min 0,000 mm 0,0 UV-I 0 W/m 6,3 C 5,7 C 19,3 km/h (3 Bft) 100,00 %
14.11.2015 05:49 9,0 C 83 % 1028,2 hPa 0,0 l/m 12,1 km/h (2 Bft) W-SW 243 0 min 0,000 mm 0,0 UV-I 0 W/m 6,3 C 5,3 C 20,9 km/h (4 Bft) 91,67 %
14.11.2015 05:50 9,0 C 83 % 1028,1 hPa 0,0 l/m 10,5 km/h (2 Bft) W-NW 284 0 min 0,000 mm 0,0 UV-I 0 W/m 6,3 C 6,2 C 16,1 km/h (3 Bft) 100,00 %
14.11.2015 05:51 9,0 C 83 % 1028,2 hPa 0,0 l/m 13,0 km/h (3 Bft) W-NW 286 0 min 0,000 mm 0,0 UV-I 0 W/m 6,3 C 4,9 C 14,5 km/h (3 Bft) 100,00 %
14.11.2015 05:52 9,0 C 83 % 1028,2 hPa 0,0 l/m 10,7 km/h (2 Bft) W 262 0 min 0,000 mm 0,0 UV-I 0 W/m 6,3 C 6,1 C 19,3 km/h (3 Bft) 100,00 %
14.11.2015 05:53 9,0 C 82 % 1028,2 hPa 0,0 l/m 11,9 km/h (2 Bft) W 261 0 min 0,000 mm 0,0 UV-I 0 W/m 6,1 C 5,4 C 19,3 km/h (3 Bft) 100,00 %
14.11.2015 05:54 9,0 C 83 % 1028,2 hPa 0,0 l/m 14,1 km/h (3 Bft) SW 216 0 min 0,000 mm 0,0 UV-I 0 W/m 6,3 C 4,3 C 22,5 km/h (4 Bft) 100,00 %
14.11.2015 05:55 9,0 C 82 % 1028,2 hPa 0,0 l/m 9,3 km/h (2 Bft) W 281 0 min 0,000 mm 0,0 UV-I 0 W/m 6,1 C 6,9 C 14,5 km/h (3 Bft) 100,00 %
14.11.2015 05:56 9,0 C 82 % 1028,2 hPa 0,0 l/m 9,3 km/h (2 Bft) W 271 0 min 0,000 mm 0,0 UV-I 0 W/m 6,1 C 6,9 C 14,5 km/h (3 Bft) 96,15 %
14.11.2015 05:57 9,0 C 82 % 1028,1 hPa 0,0 l/m 11,7 km/h (2 Bft) W 259 0 min 0,000 mm 0,0 UV-I 0 W/m 6,1 C 5,5 C 22,5 km/h (4 Bft) 100,00 %
14.11.2015 05:58 9,0 C 82 % 1028,3 hPa 0,0 l/m 10,3 km/h (2 Bft) SW 234 0 min 0,000 mm 0,0 UV-I 0 W/m 6,1 C 6,3 C 14,5 km/h (3 Bft) 100,00 %
14.11.2015 05:59 9,0 C 82 % 1028,3 hPa 0,0 l/m 8,5 km/h (2 Bft) SW 221 0 min 0,000 mm 0,0 UV-I 0 W/m 6,1 C 7,5 C 14,5 km/h (3 Bft) 100,00 %
14.11.2015 06:00 9,0 C 82 % 1028,3 hPa 0,0 l/m 13,7 km/h (3 Bft) W-SW 244 0 min 0,025 mm 0,0 UV-I 0 W/m 6,1 C 4,5 C 20,9 km/h (4 Bft) 100,00 %
14.11.2015 06:01 8,9 C 82 % 1028,2 hPa 0,0 l/m 15,3 km/h (3 Bft) W-SW 251 0 min 0,000 mm 0,0 UV-I 0 W/m 6,0 C 3,7 C 20,9 km/h (4 Bft) 95,83 %
14.11.2015 06:02 9,0 C 82 % 1028,3 hPa 0,0 l/m 11,6 km/h (2 Bft) W 267 0 min 0,000 mm 0,0 UV-I 0 W/m 6,1 C 5,6 C 14,5 km/h (3 Bft) 100,00 %
14.11.2015 06:03 9,0 C 82 % 1028,3 hPa 0,0 l/m 11,2 km/h (2 Bft) W-NW 296 0 min 0,000 mm 0,0 UV-I 0 W/m 6,1 C 5,8 C 12,9 km/h (3 Bft) 100,00 %
14.11.2015 06:04 9,0 C 82 % 1028,3 hPa 0,0 l/m 12,8 km/h (3 Bft) W-NW 286 0 min 0,000 mm 0,0 UV-I 0 W/m 6,1 C 5,0 C 16,1 km/h (3 Bft) 100,00 %
14.11.2015 06:05 9,0 C 82 % 1028,3 hPa 0,0 l/m 10,9 km/h (2 Bft) W 279 0 min 0,000 mm 0,0 UV-I 0 W/m 6,1 C 6,0 C 14,5 km/h (3 Bft) 100,00 %
14.11.2015 06:06 9,0 C 82 % 1028,3 hPa 0,0 l/m 9,7 km/h (2 Bft) W-SW 252 0 min 0,000 mm 0,0 UV-I 0 W/m 6,1 C 6,7 C 12,9 km/h (3 Bft) 100,00 %
14.11.2015 06:07 9,0 C 82 % 1028,3 hPa 0,0 l/m 12,7 km/h (3 Bft) W-NW 286 0 min 0,000 mm 0,0 UV-I 0 W/m 6,1 C 5,0 C 16,1 km/h (3 Bft) 100,00 %
14.11.2015 06:08 9,0 C 82 % 1028,3 hPa 0,0 l/m 13,9 km/h (3 Bft) W-NW 288 0 min 0,000 mm 0,0 UV-I 0 W/m 6,1 C 4,4 C 17,7 km/h (3 Bft) 100,00 %
14.11.2015 06:09 9,0 C 82 % 1028,4 hPa 0,0 l/m 10,5 km/h (2 Bft) SW 236 0 min 0,000 mm 0,0 UV-I 0 W/m 6,1 C 6,2 C 16,1 km/h (3 Bft) 100,00 %
14.11.2015 06:10 9,0 C 82 % 1028,4 hPa 0,0 l/m 13,4 km/h (3 Bft) W-SW 239 0 min 0,000 mm 0,0 UV-I 0 W/m 6,1 C 4,7 C 19,3 km/h (3 Bft) 100,00 %
14.11.2015 06:11 9,0 C 82 % 1028,4 hPa 0,0 l/m 13,6 km/h (3 Bft) W 281 0 min 0,000 mm 0,0 UV-I 0 W/m 6,1 C 4,6 C 19,3 km/h (3 Bft) 96,15 %
14.11.2015 06:12 9,0 C 82 % 1028,5 hPa 0,0 l/m 16,7 km/h (3 Bft) W-NW 292 0 min 0,000 mm 0,0 UV-I 0 W/m 6,1 C 3,2 C 22,5 km/h (4 Bft) 100,00 %
14.11.2015 06:13 9,0 C 82 % 1028,5 hPa 0,0 l/m 12,1 km/h (2 Bft) W-SW 258 0 min 0,000 mm 0,0 UV-I 0 W/m 6,1 C 5,3 C 16,1 km/h (3 Bft) 100,00 %
14.11.2015 06:14 9,0 C 82 % 1028,4 hPa 0,0 l/m 8,2 km/h (2 Bft) W-SW 246 0 min 0,000 mm 0,0 UV-I 0 W/m 6,1 C 7,7 C 12,9 km/h (3 Bft) 100,00 %
14.11.2015 06:15 9,0 C 82 % 1028,5 hPa 0,0 l/m 10,7 km/h (2 Bft) W 278 0 min 0,000 mm 0,0 UV-I 0 W/m 6,1 C 6,1 C 16,1 km/h (3 Bft) 100,00 %
14.11.2015 06:16 9,0 C 82 % 1028,4 hPa 0,0 l/m 9,5 km/h (2 Bft) W 269 0 min 0,000 mm 0,0 UV-I 0 W/m 6,1 C 6,8 C 14,5 km/h (3 Bft) 100,00 %
14.11.2015 06:17 9,0 C 82 % 1028,4 hPa 0,0 l/m 12,9 km/h (3 Bft) W 279 0 min 0,000 mm 0,0 UV-I 0 W/m 6,1 C 4,9 C 16,1 km/h (3 Bft) 100,00 %
14.11.2015 06:18 9,0 C 82 % 1028,4 hPa 0,0 l/m 13,6 km/h (3 Bft) W 267 0 min 0,000 mm 0,0 UV-I 0 W/m 6,1 C 4,6 C 19,3 km/h (3 Bft) 100,00 %
14.11.2015 06:19 9,0 C 82 % 1028,5 hPa 0,0 l/m 10,5 km/h (2 Bft) W-SW 252 0 min 0,000 mm 0,0 UV-I 0 W/m 6,1 C 6,2 C 16,1 km/h (3 Bft) 100,00 %
14.11.2015 06:20 9,0 C 82 % 1028,5 hPa 0,0 l/m 11,4 km/h (2 Bft) W-SW 240 0 min 0,000 mm 0,0 UV-I 0 W/m 6,1 C 5,7 C 17,7 km/h (3 Bft) 100,00 %
14.11.2015 06:21 9,0 C 82 % 1028,5 hPa 0,0 l/m 13,1 km/h (3 Bft) W 268 0 min 0,000 mm 0,0 UV-I 0 W/m 6,1 C 4,8 C 17,7 km/h (3 Bft) 100,00 %
14.11.2015 06:22 9,0 C 82 % 1028,5 hPa 0,0 l/m 10,2 km/h (2 Bft) W 277 0 min 0,000 mm 0,0 UV-I 0 W/m 6,1 C 6,4 C 17,7 km/h (3 Bft) 100,00 %
14.11.2015 06:23 9,0 C 83 % 1028,5 hPa 0,0 l/m 7,8 km/h (2 Bft) W-SW 238 0 min 0,000 mm 0,0 UV-I 0 W/m 6,3 C 7,9 C 12,9 km/h (3 Bft) 100,00 %
14.11.2015 06:24 9,0 C 82 % 1028,5 hPa 0,0 l/m 12,2 km/h (2 Bft) W 278 0 min 0,000 mm 0,0 UV-I 0 W/m 6,1 C 5,3 C 17,7 km/h (3 Bft) 100,00 %
14.11.2015 06:25 8,9 C 82 % 1028,5 hPa 0,0 l/m 12,5 km/h (3 Bft) W-NW 284 0 min 0,000 mm 0,0 UV-I 0 W/m 6,0 C 5,0 C 19,3 km/h (3 Bft) 100,00 %
14.11.2015 06:26 9,0 C 81 % 1028,5 hPa 0,0 l/m 10,8 km/h (2 Bft) W-NW 296 0 min 0,000 mm 0,0 UV-I 0 W/m 5,9 C 6,0 C 17,7 km/h (3 Bft) 95,83 %
14.11.2015 06:27 9,0 C 82 % 1028,5 hPa 0,0 l/m 9,9 km/h (2 Bft) W 281 0 min 0,000 mm 0,0 UV-I 0 W/m 6,1 C 6,6 C 19,3 km/h (3 Bft) 100,00 %
14.11.2015 06:28 8,9 C 81 % 1028,5 hPa 0,0 l/m 13,3 km/h (3 Bft) W 281 0 min 0,000 mm 0,0 UV-I 0 W/m 5,8 C 4,6 C 19,3 km/h (3 Bft) 100,00 %
14.11.2015 06:29 8,9 C 81 % 1028,5 hPa 0,0 l/m 12,0 km/h (2 Bft) W-NW 288 0 min 0,000 mm 0,0 UV-I 0 W/m 5,8 C 5,2 C 17,7 km/h (3 Bft) 100,00 %
14.11.2015 06:30 8,9 C 82 % 1028,5 hPa 0,0 l/m 11,4 km/h (2 Bft) W-SW 256 0 min 0,000 mm 0,0 UV-I 0 W/m 6,0 C 5,6 C 17,7 km/h (3 Bft) 100,00 %
14.11.2015 06:31 8,9 C 81 % 1028,6 hPa 0,0 l/m 11,1 km/h (2 Bft) W-NW 284 0 min 0,000 mm 0,0 UV-I 0 W/m 5,8 C 5,7 C 14,5 km/h (3 Bft) 100,00 %
14.11.2015 06:32 8,9 C 81 % 1028,6 hPa 0,0 l/m 9,3 km/h (2 Bft) W-SW 256 0 min 0,000 mm 0,0 UV-I 0 W/m 5,8 C 6,8 C 17,7 km/h (3 Bft) 93,33 %
14.11.2015 06:33 8,9 C 81 % 1028,6 hPa 0,0 l/m 8,2 km/h (2 Bft) W 265 0 min 0,000 mm 0,0 UV-I 0 W/m 5,8 C 7,6 C 11,3 km/h (2 Bft) 96,30 %
14.11.2015 06:34 8,9 C 81 % 1028,5 hPa 0,0 l/m 9,5 km/h (2 Bft) NW 318 0 min 0,000 mm 0,0 UV-I 0 W/m 5,8 C 6,7 C 16,1 km/h (3 Bft) 100,00 %
14.11.2015 06:35 8,9 C 81 % 1028,5 hPa 0,0 l/m 12,5 km/h (3 Bft) W 271 0 min 0,000 mm 0,0 UV-I 0 W/m 5,8 C 5,0 C 19,3 km/h (3 Bft) 100,00 %
14.11.2015 06:36 8,9 C 81 % 1028,5 hPa 0,0 l/m 10,5 km/h (2 Bft) W-NW 285 0 min 0,000 mm 0,0 UV-I 0 W/m 5,8 C 6,1 C 14,5 km/h (3 Bft) 100,00 %
14.11.2015 06:37 8,9 C 81 % 1028,5 hPa 0,0 l/m 8,4 km/h (2 Bft) W 271 0 min 0,000 mm 0,0 UV-I 0 W/m 5,8 C 7,4 C 16,1 km/h (3 Bft) 100,00 %
14.11.2015 06:38 8,9 C 81 % 1028,5 hPa 0,0 l/m 15,7 km/h (3 Bft) W 277 0 min 0,000 mm 0,0 UV-I 0 W/m 5,8 C 3,5 C 20,9 km/h (4 Bft) 100,00 %
14.11.2015 06:39 8,9 C 81 % 1028,5 hPa 0,0 l/m 14,8 km/h (3 Bft) W-SW 257 0 min 0,000 mm 0,0 UV-I 0 W/m 5,8 C 3,9 C 17,7 km/h (3 Bft) 100,00 %
14.11.2015 06:40 8,9 C 81 % 1028,5 hPa 0,0 l/m 7,8 km/h (2 Bft) W-NW 294 0 min 0,000 mm 0,0 UV-I 0 W/m 5,8 C 7,8 C 12,9 km/h (3 Bft) 100,00 %
14.11.2015 06:41 8,9 C 81 % 1028,4 hPa 0,0 l/m 11,9 km/h (2 Bft) W-SW 254 0 min 0,000 mm 0,0 UV-I 0 W/m 5,8 C 5,3 C 17,7 km/h (3 Bft) 100,00 %
14.11.2015 06:42 8,9 C 81 % 1028,5 hPa 0,0 l/m 11,1 km/h (2 Bft) W-NW 282 0 min 0,000 mm 0,0 UV-I 0 W/m 5,8 C 5,7 C 17,7 km/h (3 Bft) 100,00 %
14.11.2015 06:43 8,9 C 81 % 1028,5 hPa 0,0 l/m 12,9 km/h (3 Bft) W 271 0 min 0,000 mm 0,0 UV-I 0 W/m 5,8 C 4,8 C 17,7 km/h (3 Bft) 100,00 %
14.11.2015 06:44 8,9 C 81 % 1028,5 hPa 0,0 l/m 9,7 km/h (2 Bft) W-NW 290 0 min 0,000 mm 0,0 UV-I 0 W/m 5,8 C 6,6 C 14,5 km/h (3 Bft) 100,00 %
14.11.2015 06:45 8,9 C 81 % 1028,5 hPa 0,0 l/m 12,6 km/h (3 Bft) W 262 0 min 0,000 mm 0,0 UV-I 0 W/m 5,8 C 4,9 C 20,9 km/h (4 Bft) 100,00 %
14.11.2015 06:46 8,9 C 81 % 1028,5 hPa 0,0 l/m 10,0 km/h (2 Bft) W-SW 252 0 min 0,000 mm 0,0 UV-I 0 W/m 5,8 C 6,4 C 14,5 km/h (3 Bft) 100,00 %
14.11.2015 06:47 8,9 C 81 % 1028,5 hPa 0,0 l/m 12,6 km/h (3 Bft) W 275 0 min 0,000 mm 0,0 UV-I 0 W/m 5,8 C 4,9 C 16,1 km/h (3 Bft) 97,56 %
14.11.2015 06:48 8,9 C 81 % 1028,6 hPa 0,0 l/m 11,1 km/h (2 Bft) S 182 0 min 0,000 mm 0,0 UV-I 0 W/m 5,8 C 5,7 C 14,5 km/h (3 Bft) 100,00 %
14.11.2015 06:49 8,9 C 81 % 1028,5 hPa 0,0 l/m 13,8 km/h (3 Bft) W 280 0 min 0,000 mm 0,0 UV-I 0 W/m 5,8 C 4,3 C 20,9 km/h (4 Bft) 100,00 %
14.11.2015 06:50 8,9 C 81 % 1028,6 hPa 0,0 l/m 11,1 km/h (2 Bft) W-SW 243 0 min 0,000 mm 0,0 UV-I 0 W/m 5,8 C 5,7 C 14,5 km/h (3 Bft) 100,00 %
14.11.2015 06:51 8,9 C 81 % 1028,6 hPa 0,0 l/m 9,3 km/h (2 Bft) W 278 0 min 0,000 mm 0,0 UV-I 0 W/m 5,8 C 6,8 C 14,5 km/h (3 Bft) 100,00 %
14.11.2015 06:52 8,9 C 81 % 1028,6 hPa 0,0 l/m 9,9 km/h (2 Bft) W 264 0 min 0,000 mm 0,0 UV-I 0 W/m 5,8 C 6,4 C 12,9 km/h (3 Bft) 100,00 %
14.11.2015 06:53 8,8 C 81 % 1028,6 hPa 0,0 l/m 10,7 km/h (2 Bft) W 275 0 min 0,000 mm 0,0 UV-I 0 W/m 5,7 C 5,9 C 14,5 km/h (3 Bft) 100,00 %
14.11.2015 06:54 8,8 C 81 % 1028,6 hPa 0,0 l/m 11,4 km/h (2 Bft) W 264 0 min 0,000 mm 0,0 UV-I 0 W/m 5,7 C 5,5 C 17,7 km/h (3 Bft) 100,00 %
14.11.2015 06:55 8,8 C 81 % 1028,6 hPa 0,0 l/m 10,6 km/h (2 Bft) NW 309 0 min 0,000 mm 0,0 UV-I 0 W/m 5,7 C 5,9 C 17,7 km/h (3 Bft) 100,00 %
14.11.2015 06:56 8,8 C 81 % 1028,6 hPa 0,0 l/m 15,0 km/h (3 Bft) W-SW 251 0 min 0,000 mm 0,0 UV-I 0 W/m 5,7 C 3,7 C 19,3 km/h (3 Bft) 100,00 %
14.11.2015 06:57 8,8 C 80 % 1028,6 hPa 0,0 l/m 14,2 km/h (3 Bft) W 264 0 min 0,000 mm 0,0 UV-I 0 W/m 5,5 C 4,0 C 19,3 km/h (3 Bft) 100,00 %
14.11.2015 06:58 8,8 C 80 % 1028,6 hPa 0,0 l/m 14,1 km/h (3 Bft) W 267 0 min 0,000 mm 0,0 UV-I 0 W/m 5,5 C 4,1 C 27,4 km/h (4 Bft) 100,00 %
14.11.2015 06:59 8,8 C 80 % 1028,6 hPa 0,0 l/m 10,6 km/h (2 Bft) W-SW 243 0 min 0,000 mm 0,0 UV-I 0 W/m 5,5 C 5,9 C 16,1 km/h (3 Bft) 100,00 %
14.11.2015 07:00 8,8 C 80 % 1028,6 hPa 0,0 l/m 12,6 km/h (3 Bft) SW 236 0 min 0,026 mm 0,0 UV-I 0 W/m 5,5 C 4,8 C 19,3 km/h (3 Bft) 100,00 %
14.11.2015 07:01 8,8 C 80 % 1028,6 hPa 0,0 l/m 9,8 km/h (2 Bft) W 275 0 min 0,000 mm 0,0 UV-I 0 W/m 5,5 C 6,4 C 14,5 km/h (3 Bft) 100,00 %
14.11.2015 07:02 8,8 C 79 % 1028,6 hPa 0,0 l/m 15,0 km/h (3 Bft) W 267 0 min 0,000 mm 0,0 UV-I 0 W/m 5,4 C 3,7 C 27,4 km/h (4 Bft) 100,00 %
14.11.2015 07:03 8,8 C 79 % 1028,7 hPa 0,0 l/m 15,9 km/h (3 Bft) W 261 0 min 0,000 mm 0,0 UV-I 0 W/m 5,4 C 3,3 C 24,1 km/h (4 Bft) 100,00 %
14.11.2015 07:04 8,8 C 79 % 1028,8 hPa 0,0 l/m 14,6 km/h (3 Bft) W-SW 240 0 min 0,000 mm 0,0 UV-I 0 W/m 5,4 C 3,9 C 25,7 km/h (4 Bft) 100,00 %
14.11.2015 07:05 8,8 C 79 % 1028,7 hPa 0,0 l/m 11,9 km/h (2 Bft) W-NW 290 0 min 0,000 mm 0,0 UV-I 0 W/m 5,4 C 5,2 C 16,1 km/h (3 Bft) 100,00 %
14.11.2015 07:06 8,8 C 79 % 1028,7 hPa 0,0 l/m 14,6 km/h (3 Bft) W-NW 290 0 min 0,000 mm 0,0 UV-I 0 W/m 5,4 C 3,9 C 20,9 km/h (4 Bft) 100,00 %
14.11.2015 07:07 8,8 C 79 % 1028,6 hPa 0,0 l/m 17,9 km/h (3 Bft) W 278 0 min 0,000 mm 0,0 UV-I 0 W/m 5,4 C 2,5 C 27,4 km/h (4 Bft) 96,15 %
14.11.2015 07:08 8,8 C 79 % 1028,7 hPa 0,0 l/m 13,9 km/h (3 Bft) W-NW 294 0 min 0,000 mm 0,0 UV-I 0 W/m 5,4 C 4,2 C 19,3 km/h (3 Bft) 100,00 %
14.11.2015 07:09 8,8 C 79 % 1028,8 hPa 0,0 l/m 13,0 km/h (3 Bft) NW 304 0 min 0,000 mm 0,0 UV-I 0 W/m 5,4 C 4,6 C 17,7 km/h (3 Bft) 100,00 %
14.11.2015 07:10 8,8 C 79 % 1028,8 hPa 0,0 l/m 12,0 km/h (2 Bft) W-SW 257 0 min 0,000 mm 0,0 UV-I 0 W/m 5,4 C 5,1 C 17,7 km/h (3 Bft) 100,00 %
14.11.2015 07:11 8,7 C 79 % 1028,8 hPa 0,0 l/m 14,2 km/h (3 Bft) W 274 0 min 0,000 mm 0,0 UV-I 0 W/m 5,3 C 3,9 C 19,3 km/h (3 Bft) 100,00 %
14.11.2015 07:12 8,7 C 78 % 1028,8 hPa 0,0 l/m 17,6 km/h (3 Bft) W-NW 289 0 min 0,000 mm 0,0 UV-I 0 W/m 5,1 C 2,5 C 25,7 km/h (4 Bft) 100,00 %
14.11.2015 07:13 8,7 C 78 % 1028,8 hPa 0,0 l/m 15,7 km/h (3 Bft) SW 221 0 min 0,000 mm 0,0 UV-I 0 W/m 5,1 C 3,3 C 20,9 km/h (4 Bft) 100,00 %
14.11.2015 07:14 8,7 C 78 % 1028,8 hPa 0,0 l/m 14,4 km/h (3 Bft) W 275 0 min 0,000 mm 0,0 UV-I 0 W/m 5,1 C 3,8 C 19,3 km/h (3 Bft) 100,00 %
14.11.2015 07:15 8,7 C 79 % 1028,8 hPa 0,0 l/m 13,8 km/h (3 Bft) SW 236 0 min 0,000 mm 0,0 UV-I 0 W/m 5,3 C 4,1 C 17,7 km/h (3 Bft) 100,00 %
14.11.2015 07:16 8,7 C 78 % 1028,8 hPa 0,0 l/m 9,8 km/h (2 Bft) W 278 0 min 0,000 mm 0,0 UV-I 0 W/m 5,1 C 6,3 C 14,5 km/h (3 Bft) 100,00 %
14.11.2015 07:17 8,7 C 79 % 1028,9 hPa 0,0 l/m 10,8 km/h (2 Bft) W 267 0 min 0,000 mm 0,0 UV-I 0 W/m 5,3 C 5,7 C 12,9 km/h (3 Bft) 100,00 %
14.11.2015 07:18 8,7 C 79 % 1028,9 hPa 0,0 l/m 9,7 km/h (2 Bft) W 267 0 min 0,000 mm 0,0 UV-I 0 W/m 5,3 C 6,3 C 16,1 km/h (3 Bft) 100,00 %
14.11.2015 07:19 8,7 C 79 % 1028,9 hPa 0,0 l/m 10,6 km/h (2 Bft) W 280 0 min 0,000 mm 0,0 UV-I 0 W/m 5,3 C 5,8 C 16,1 km/h (3 Bft) 100,00 %
14.11.2015 07:20 8,7 C 79 % 1028,8 hPa 0,0 l/m 11,1 km/h (2 Bft) W 275 0 min 0,000 mm 0,0 UV-I 0 W/m 5,3 C 5,5 C 16,1 km/h (3 Bft) 100,00 %
14.11.2015 07:21 8,7 C 80 % 1028,8 hPa 0,0 l/m 9,3 km/h (2 Bft) W 268 0 min 0,000 mm 0,0 UV-I 4 W/m 5,4 C 6,6 C 12,9 km/h (3 Bft) 100,00 %
14.11.2015 07:22 8,6 C 79 % 1028,8 hPa 0,0 l/m 10,2 km/h (2 Bft) W-SW 253 0 min 0,000 mm 0,0 UV-I 5 W/m 5,2 C 5,9 C 16,1 km/h (3 Bft) 96,15 %
14.11.2015 07:23 8,6 C 79 % 1028,8 hPa 0,0 l/m 9,8 km/h (2 Bft) SW 229 0 min 0,000 mm 0,0 UV-I 5 W/m 5,2 C 6,2 C 14,5 km/h (3 Bft) 100,00 %
14.11.2015 07:24 8,6 C 79 % 1028,8 hPa 0,0 l/m 9,6 km/h (2 Bft) W 260 0 min 0,000 mm 0,0 UV-I 6 W/m 5,2 C 6,3 C 12,9 km/h (3 Bft) 100,00 %
14.11.2015 07:25 8,6 C 80 % 1028,9 hPa 0,0 l/m 12,0 km/h (2 Bft) W 273 0 min 0,000 mm 0,0 UV-I 7 W/m 5,3 C 4,9 C 19,3 km/h (3 Bft) 100,00 %
14.11.2015 07:26 8,6 C 80 % 1028,9 hPa 0,0 l/m 12,3 km/h (3 Bft) W-NW 294 0 min 0,000 mm 0,0 UV-I 8 W/m 5,3 C 4,7 C 16,1 km/h (3 Bft) 100,00 %
14.11.2015 07:27 8,6 C 80 % 1028,9 hPa 0,0 l/m 10,6 km/h (2 Bft) W 270 0 min 0,000 mm 0,0 UV-I 9 W/m 5,3 C 5,7 C 16,1 km/h (3 Bft) 100,00 %
14.11.2015 07:28 8,6 C 80 % 1028,9 hPa 0,0 l/m 8,0 km/h (2 Bft) W-NW 299 0 min 0,000 mm 0,0 UV-I 9 W/m 5,3 C 7,4 C 14,5 km/h (3 Bft) 100,00 %
14.11.2015 07:29 8,6 C 80 % 1028,9 hPa 0,0 l/m 7,7 km/h (2 Bft) W 268 0 min 0,000 mm 0,0 UV-I 9 W/m 5,3 C 7,6 C 11,3 km/h (2 Bft) 100,00 %
14.11.2015 07:30 8,6 C 81 % 1028,9 hPa 0,0 l/m 8,0 km/h (2 Bft) W 270 0 min 0,000 mm 0,0 UV-I 9 W/m 5,5 C 7,4 C 12,9 km/h (3 Bft) 100,00 %
14.11.2015 07:31 8,5 C 81 % 1029,0 hPa 0,0 l/m 8,3 km/h (2 Bft) W 269 0 min 0,000 mm 0,0 UV-I 8 W/m 5,4 C 7,1 C 14,5 km/h (3 Bft) 100,00 %
14.11.2015 07:32 8,4 C 81 % 1029,0 hPa 0,0 l/m 7,6 km/h (2 Bft) W 271 0 min 0,000 mm 0,0 UV-I 8 W/m 5,3 C 7,5 C 12,9 km/h (3 Bft) 100,00 %
14.11.2015 07:33 8,5 C 81 % 1029,0 hPa 0,0 l/m 7,3 km/h (2 Bft) W 267 0 min 0,000 mm 0,0 UV-I 11 W/m 5,4 C 7,8 C 11,3 km/h (2 Bft) 100,00 %
14.11.2015 07:34 8,4 C 81 % 1029,0 hPa 0,0 l/m 6,2 km/h (2 Bft) W-SW 257 0 min 0,000 mm 0,0 UV-I 11 W/m 5,3 C 8,4 C 9,7 km/h (2 Bft) 100,00 %
14.11.2015 07:35 8,4 C 82 % 1028,9 hPa 0,0 l/m 5,3 km/h (1 Bft) W-SW 252 0 min 0,000 mm 0,0 UV-I 13 W/m 5,5 C 8,4 C 9,7 km/h (2 Bft) 100,00 %
14.11.2015 07:36 8,4 C 82 % 1029,0 hPa 0,0 l/m 5,7 km/h (1 Bft) W 271 0 min 0,000 mm 0,0 UV-I 17 W/m 5,5 C 8,4 C 11,3 km/h (2 Bft) 100,00 %
14.11.2015 07:37 8,4 C 82 % 1029,1 hPa 0,0 l/m 6,1 km/h (2 Bft) W 268 0 min 0,000 mm 0,0 UV-I 19 W/m 5,5 C 8,4 C 9,7 km/h (2 Bft) 100,00 %
14.11.2015 07:38 8,4 C 82 % 1029,1 hPa 0,0 l/m 8,3 km/h (2 Bft) W 279 0 min 0,000 mm 0,0 UV-I 20 W/m 5,5 C 7,0 C 11,3 km/h (2 Bft) 100,00 %
14.11.2015 07:39 8,3 C 83 % 1029,0 hPa 0,0 l/m 5,9 km/h (2 Bft) W-NW 285 0 min 0,000 mm 0,0 UV-I 21 W/m 5,6 C 8,3 C 12,9 km/h (3 Bft) 100,00 %
14.11.2015 07:40 8,3 C 83 % 1029,0 hPa 0,0 l/m 6,8 km/h (2 Bft) W 262 0 min 0,000 mm 0,0 UV-I 21 W/m 5,6 C 8,0 C 11,3 km/h (2 Bft) 95,83 %
14.11.2015 07:41 8,3 C 83 % 1029,0 hPa 0,0 l/m 5,7 km/h (1 Bft) W-NW 293 0 min 0,000 mm 0,0 UV-I 20 W/m 5,6 C 8,3 C 9,7 km/h (2 Bft) 100,00 %
14.11.2015 07:42 8,3 C 83 % 1029,0 hPa 0,0 l/m 6,9 km/h (2 Bft) W 278 0 min 0,000 mm 0,0 UV-I 19 W/m 5,6 C 7,9 C 11,3 km/h (2 Bft) 100,00 %
14.11.2015 07:43 8,3 C 83 % 1029,1 hPa 0,0 l/m 8,2 km/h (2 Bft) W-NW 296 0 min 0,000 mm 0,0 UV-I 22 W/m 5,6 C 6,9 C 17,7 km/h (3 Bft) 100,00 %
14.11.2015 07:44 8,3 C 83 % 1029,1 hPa 0,0 l/m 10,9 km/h (2 Bft) W-SW 250 0 min 0,000 mm 0,0 UV-I 25 W/m 5,6 C 5,2 C 19,3 km/h (3 Bft) 100,00 %
14.11.2015 07:45 8,3 C 83 % 1029,1 hPa 0,0 l/m 9,7 km/h (2 Bft) W 279 0 min 0,000 mm 0,0 UV-I 28 W/m 5,6 C 5,9 C 14,5 km/h (3 Bft) 100,00 %
14.11.2015 07:46 8,3 C 83 % 1029,1 hPa 0,0 l/m 8,9 km/h (2 Bft) W-NW 300 0 min 0,000 mm 0,0 UV-I 31 W/m 5,6 C 6,4 C 12,9 km/h (3 Bft) 100,00 %
14.11.2015 07:47 8,3 C 83 % 1029,1 hPa 0,0 l/m 9,0 km/h (2 Bft) W 265 0 min 0,000 mm 0,0 UV-I 36 W/m 5,6 C 6,4 C 14,5 km/h (3 Bft) 100,00 %
14.11.2015 07:48 8,4 C 83 % 1029,1 hPa 0,0 l/m 13,9 km/h (3 Bft) W 273 0 min 0,000 mm 0,0 UV-I 40 W/m 5,7 C 3,7 C 19,3 km/h (3 Bft) 100,00 %
14.11.2015 07:49 8,4 C 82 % 1029,1 hPa 0,0 l/m 9,8 km/h (2 Bft) W-SW 255 0 min 0,000 mm 0,0 UV-I 40 W/m 5,5 C 6,0 C 14,5 km/h (3 Bft) 100,00 %
14.11.2015 07:50 8,4 C 82 % 1029,1 hPa 0,0 l/m 8,6 km/h (2 Bft) W 279 0 min 0,000 mm 0,0 UV-I 40 W/m 5,5 C 6,7 C 16,1 km/h (3 Bft) 100,00 %
14.11.2015 07:51 8,4 C 82 % 1029,1 hPa 0,0 l/m 8,3 km/h (2 Bft) W 269 0 min 0,000 mm 0,0 UV-I 40 W/m 5,5 C 7,0 C 11,3 km/h (2 Bft) 100,00 %
14.11.2015 07:52 8,4 C 81 % 1029,1 hPa 0,0 l/m 9,0 km/h (2 Bft) W 273 0 min 0,000 mm 0,0 UV-I 39 W/m 5,3 C 6,5 C 16,1 km/h (3 Bft) 96,15 %
14.11.2015 07:53 8,5 C 81 % 1029,1 hPa 0,0 l/m 6,3 km/h (2 Bft) W-SW 252 0 min 0,000 mm 0,0 UV-I 38 W/m 5,4 C 8,5 C 9,7 km/h (2 Bft) 95,83 %
14.11.2015 07:54 8,4 C 81 % 1029,2 hPa 0,0 l/m 5,3 km/h (1 Bft) W-SW 239 0 min 0,000 mm 0,0 UV-I 38 W/m 5,3 C 8,4 C 6,4 km/h (2 Bft) 100,00 %
14.11.2015 07:55 8,5 C 81 % 1029,2 hPa 0,0 l/m 9,7 km/h (2 Bft) W 277 0 min 0,000 mm 0,0 UV-I 39 W/m 5,4 C 6,1 C 16,1 km/h (3 Bft) 100,00 %
14.11.2015 07:56 8,5 C 80 % 1029,2 hPa 0,0 l/m 12,7 km/h (3 Bft) SW 234 0 min 0,000 mm 0,0 UV-I 45 W/m 5,3 C 4,4 C 17,7 km/h (3 Bft) 100,00 %
14.11.2015 07:57 8,5 C 80 % 1029,2 hPa 0,0 l/m 8,6 km/h (2 Bft) W 262 0 min 0,000 mm 0,0 UV-I 46 W/m 5,3 C 6,9 C 11,3 km/h (2 Bft) 100,00 %
14.11.2015 07:58 8,6 C 80 % 1029,2 hPa 0,0 l/m 9,3 km/h (2 Bft) W-SW 238 0 min 0,000 mm 0,0 UV-I 39 W/m 5,3 C 6,5 C 14,5 km/h (3 Bft) 100,00 %
14.11.2015 07:59 8,6 C 80 % 1029,2 hPa 0,0 l/m 7,1 km/h (2 Bft) W 277 0 min 0,000 mm 0,0 UV-I 35 W/m 5,3 C 8,1 C 11,3 km/h (2 Bft) 100,00 %
14.11.2015 08:00 8,6 C 79 % 1029,2 hPa 0,0 l/m 8,7 km/h (2 Bft) W-NW 286 0 min 0,025 mm 0,0 UV-I 31 W/m 5,2 C 6,9 C 14,5 km/h (3 Bft) 96,15 %
14.11.2015 08:01 8,6 C 79 % 1029,2 hPa 0,0 l/m 10,5 km/h (2 Bft) W 279 0 min 0,000 mm 0,0 UV-I 30 W/m 5,2 C 5,7 C 17,7 km/h (3 Bft) 100,00 %
14.11.2015 08:02 8,6 C 79 % 1029,3 hPa 0,0 l/m 6,9 km/h (2 Bft) W 259 0 min 0,000 mm 0,0 UV-I 34 W/m 5,2 C 8,2 C 9,7 km/h (2 Bft) 100,00 %
14.11.2015 08:03 8,6 C 79 % 1029,3 hPa 0,0 l/m 5,2 km/h (1 Bft) W 267 0 min 0,000 mm 0,0 UV-I 45 W/m 5,2 C 8,6 C 9,7 km/h (2 Bft) 100,00 %
14.11.2015 08:04 8,6 C 79 % 1029,2 hPa 0,0 l/m 10,2 km/h (2 Bft) W 260 0 min 0,000 mm 0,0 UV-I 50 W/m 5,2 C 5,9 C 14,5 km/h (3 Bft) 100,00 %
14.11.2015 08:05 8,5 C 79 % 1029,2 hPa 0,0 l/m 11,0 km/h (2 Bft) W-SW 250 0 min 0,000 mm 0,0 UV-I 47 W/m 5,1 C 5,3 C 20,9 km/h (4 Bft) 100,00 %
14.11.2015 08:06 8,6 C 79 % 1029,4 hPa 0,0 l/m 7,7 km/h (2 Bft) W 272 0 min 0,000 mm 0,0 UV-I 44 W/m 5,2 C 7,6 C 12,9 km/h (3 Bft) 100,00 %
14.11.2015 08:07 8,5 C 79 % 1029,4 hPa 0,0 l/m 6,6 km/h (2 Bft) W-SW 242 0 min 0,000 mm 0,0 UV-I 44 W/m 5,1 C 8,4 C 9,7 km/h (2 Bft) 100,00 %
14.11.2015 08:08 8,6 C 79 % 1029,4 hPa 0,0 l/m 6,7 km/h (2 Bft) W-SW 257 0 min 0,000 mm 0,0 UV-I 47 W/m 5,2 C 8,4 C 14,5 km/h (3 Bft) 100,00 %
14.11.2015 08:09 8,5 C 79 % 1029,4 hPa 0,0 l/m 10,3 km/h (2 Bft) W-NW 290 0 min 0,000 mm 0,0 UV-I 58 W/m 5,1 C 5,8 C 14,5 km/h (3 Bft) 100,00 %
14.11.2015 08:10 8,6 C 78 % 1029,3 hPa 0,0 l/m 9,9 km/h (2 Bft) W 262 0 min 0,000 mm 0,0 UV-I 65 W/m 5,0 C 6,1 C 12,9 km/h (3 Bft) 100,00 %
14.11.2015 08:11 8,6 C 78 % 1029,4 hPa 0,0 l/m 8,2 km/h (2 Bft) W 259 0 min 0,000 mm 0,0 UV-I 65 W/m 5,0 C 7,2 C 12,9 km/h (3 Bft) 100,00 %
14.11.2015 08:12 8,6 C 77 % 1029,3 hPa 0,0 l/m 8,6 km/h (2 Bft) W-NW 302 0 min 0,000 mm 0,0 UV-I 55 W/m 4,8 C 7,0 C 14,5 km/h (3 Bft) 100,00 %
14.11.2015 08:13 8,6 C 77 % 1029,4 hPa 0,0 l/m 8,6 km/h (2 Bft) W-NW 290 0 min 0,000 mm 0,0 UV-I 45 W/m 4,8 C 7,0 C 14,5 km/h (3 Bft) 100,00 %
14.11.2015 08:14 8,6 C 77 % 1029,4 hPa 0,0 l/m 9,5 km/h (2 Bft) W 276 0 min 0,000 mm 0,0 UV-I 42 W/m 4,8 C 6,4 C 16,1 km/h (3 Bft) 100,00 %
14.11.2015 08:15 8,6 C 77 % 1029,3 hPa 0,0 l/m 7,4 km/h (2 Bft) W 273 0 min 0,000 mm 0,0 UV-I 45 W/m 4,8 C 7,8 C 12,9 km/h (3 Bft) 100,00 %
14.11.2015 08:16 8,6 C 77 % 1029,3 hPa 0,0 l/m 7,2 km/h (2 Bft) W-SW 257 0 min 0,000 mm 0,0 UV-I 49 W/m 4,8 C 8,0 C 11,3 km/h (2 Bft) 100,00 %
14.11.2015 08:17 8,6 C 77 % 1029,3 hPa 0,0 l/m 12,1 km/h (2 Bft) W 263 0 min 0,000 mm 0,0 UV-I 54 W/m 4,8 C 4,8 C 19,3 km/h (3 Bft) 100,00 %
14.11.2015 08:18 8,6 C 77 % 1029,4 hPa 0,0 l/m 10,0 km/h (2 Bft) W 271 0 min 0,000 mm 0,0 UV-I 54 W/m 4,8 C 6,0 C 12,9 km/h (3 Bft) 100,00 %
14.11.2015 08:19 8,6 C 76 % 1029,4 hPa 0,0 l/m 8,0 km/h (2 Bft) W 274 0 min 0,000 mm 0,0 UV-I 54 W/m 4,6 C 7,4 C 17,7 km/h (3 Bft) 100,00 %
14.11.2015 08:20 8,6 C 77 % 1029,4 hPa 0,0 l/m 6,5 km/h (2 Bft) W 264 0 min 0,000 mm 0,0 UV-I 56 W/m 4,8 C 8,5 C 11,3 km/h (2 Bft) 100,00 %
14.11.2015 08:21 8,6 C 77 % 1029,4 hPa 0,0 l/m 10,1 km/h (2 Bft) W-NW 288 0 min 0,000 mm 0,0 UV-I 56 W/m 4,8 C 6,0 C 16,1 km/h (3 Bft) 100,00 %
14.11.2015 08:22 8,6 C 77 % 1029,5 hPa 0,0 l/m 9,9 km/h (2 Bft) W-NW 285 0 min 0,000 mm 0,0 UV-I 60 W/m 4,8 C 6,1 C 12,9 km/h (3 Bft) 100,00 %
14.11.2015 08:23 8,6 C 77 % 1029,5 hPa 0,0 l/m 6,4 km/h (2 Bft) W 263 0 min 0,000 mm 0,0 UV-I 63 W/m 4,8 C 8,6 C 11,3 km/h (2 Bft) 100,00 %
14.11.2015 08:24 8,6 C 76 % 1029,5 hPa 0,0 l/m 10,3 km/h (2 Bft) W-SW 251 0 min 0,000 mm 0,0 UV-I 59 W/m 4,6 C 5,9 C 19,3 km/h (3 Bft) 100,00 %
14.11.2015 08:25 8,6 C 76 % 1029,5 hPa 0,0 l/m 12,7 km/h (3 Bft) W 263 0 min 0,000 mm 0,0 UV-I 52 W/m 4,6 C 4,5 C 16,1 km/h (3 Bft) 100,00 %
14.11.2015 08:26 8,6 C 76 % 1029,5 hPa 0,0 l/m 4,6 km/h (1 Bft) SW 219 0 min 0,000 mm 0,0 UV-I 54 W/m 4,6 C 8,6 C 8,0 km/h (2 Bft) 100,00 %
14.11.2015 08:27 8,6 C 76 % 1029,5 hPa 0,0 l/m 8,3 km/h (2 Bft) W-SW 257 0 min 0,000 mm 0,0 UV-I 56 W/m 4,6 C 7,2 C 14,5 km/h (3 Bft) 100,00 %
14.11.2015 08:28 8,6 C 76 % 1029,5 hPa 0,0 l/m 9,1 km/h (2 Bft) W 273 0 min 0,000 mm 0,0 UV-I 54 W/m 4,6 C 6,6 C 16,1 km/h (3 Bft) 100,00 %
14.11.2015 08:29 8,6 C 75 % 1029,5 hPa 0,0 l/m 8,9 km/h (2 Bft) W 267 0 min 0,000 mm 0,0 UV-I 52 W/m 4,4 C 6,8 C 17,7 km/h (3 Bft) 100,00 %
14.11.2015 08:30 8,6 C 74 % 1029,5 hPa 0,0 l/m 12,7 km/h (3 Bft) W 263 0 min 0,000 mm 0,0 UV-I 50 W/m 4,2 C 4,5 C 20,9 km/h (4 Bft) 100,00 %
14.11.2015 08:31 8,7 C 74 % 1029,6 hPa 0,0 l/m 13,4 km/h (3 Bft) W 264 0 min 0,000 mm 0,0 UV-I 57 W/m 4,3 C 4,3 C 19,3 km/h (3 Bft) 100,00 %
14.11.2015 08:32 8,7 C 73 % 1029,7 hPa 0,0 l/m 11,3 km/h (2 Bft) NW 313 0 min 0,000 mm 0,0 UV-I 65 W/m 4,1 C 5,4 C 17,7 km/h (3 Bft) 91,30 %
14.11.2015 08:33 8,7 C 74 % 1029,7 hPa 0,0 l/m 9,9 km/h (2 Bft) NW 308 0 min 0,000 mm 0,0 UV-I 65 W/m 4,3 C 6,2 C 16,1 km/h (3 Bft) 100,00 %
14.11.2015 08:34 8,7 C 74 % 1029,7 hPa 0,0 l/m 6,6 km/h (2 Bft) SW 233 0 min 0,000 mm 0,0 UV-I 56 W/m 4,3 C 8,6 C 11,3 km/h (2 Bft) 100,00 %
14.11.2015 08:35 8,7 C 74 % 1029,6 hPa 0,0 l/m 6,4 km/h (2 Bft) W 279 0 min 0,000 mm 0,0 UV-I 54 W/m 4,3 C 8,7 C 9,7 km/h (2 Bft) 100,00 %
14.11.2015 08:36 8,7 C 74 % 1029,6 hPa 0,0 l/m 7,5 km/h (2 Bft) W-SW 243 0 min 0,000 mm 0,0 UV-I 52 W/m 4,3 C 7,9 C 11,3 km/h (2 Bft) 100,00 %
14.11.2015 08:37 8,7 C 74 % 1029,6 hPa 0,0 l/m 8,2 km/h (2 Bft) W 281 0 min 0,000 mm 0,0 UV-I 53 W/m 4,3 C 7,3 C 14,5 km/h (3 Bft) 100,00 %
14.11.2015 08:38 8,7 C 75 % 1029,7 hPa 0,0 l/m 5,2 km/h (1 Bft) W-SW 245 0 min 0,000 mm 0,0 UV-I 61 W/m 4,5 C 8,7 C 6,4 km/h (2 Bft) 100,00 %
14.11.2015 08:39 8,6 C 75 % 1029,7 hPa 0,0 l/m 5,3 km/h (1 Bft) W-NW 290 0 min 0,000 mm 0,0 UV-I 71 W/m 4,4 C 8,6 C 11,3 km/h (2 Bft) 100,00 %
14.11.2015 08:40 8,6 C 75 % 1029,7 hPa 0,0 l/m 6,4 km/h (2 Bft) W 263 0 min 0,000 mm 0,0 UV-I 90 W/m 4,4 C 8,6 C 9,7 km/h (2 Bft) 100,00 %
14.11.2015 08:41 8,6 C 75 % 1029,6 hPa 0,0 l/m 6,1 km/h (2 Bft) W 280 0 min 0,000 mm 0,0 UV-I 97 W/m 4,4 C 8,6 C 11,3 km/h (2 Bft) 100,00 %
14.11.2015 08:42 8,7 C 76 % 1029,6 hPa 0,0 l/m 4,5 km/h (1 Bft) W-SW 251 0 min 0,000 mm 0,0 UV-I 97 W/m 4,7 C 8,7 C 9,7 km/h (2 Bft) 96,15 %
14.11.2015 08:43 8,6 C 76 % 1029,7 hPa 0,0 l/m 6,0 km/h (2 Bft) NW 306 0 min 0,000 mm 0,0 UV-I 105 W/m 4,6 C 8,6 C 11,3 km/h (2 Bft) 100,00 %
14.11.2015 08:44 8,6 C 76 % 1029,6 hPa 0,0 l/m 5,6 km/h (1 Bft) NW 317 0 min 0,000 mm 0,0 UV-I 116 W/m 4,6 C 8,6 C 8,0 km/h (2 Bft) 100,00 %
14.11.2015 08:45 8,6 C 76 % 1029,7 hPa 0,0 l/m 9,8 km/h (2 Bft) W 263 0 min 0,000 mm 0,0 UV-I 89 W/m 4,6 C 6,2 C 14,5 km/h (3 Bft) 100,00 %
14.11.2015 08:46 8,7 C 76 % 1029,6 hPa 0,0 l/m 10,0 km/h (2 Bft) W 281 0 min 0,000 mm 0,0 UV-I 84 W/m 4,7 C 6,2 C 14,5 km/h (3 Bft) 100,00 %
14.11.2015 08:47 8,7 C 76 % 1029,6 hPa 0,0 l/m 4,3 km/h (1 Bft) W-NW 287 0 min 0,000 mm 0,0 UV-I 89 W/m 4,7 C 8,7 C 6,4 km/h (2 Bft) 96,55 %
14.11.2015 08:48 8,7 C 77 % 1029,5 hPa 0,0 l/m 2,6 km/h (1 Bft) W-NW 302 0 min 0,000 mm 0,0 UV-I 96 W/m 4,9 C 8,7 C 4,8 km/h (1 Bft) 100,00 %
14.11.2015 08:49 8,6 C 77 % 1029,5 hPa 0,0 l/m 4,0 km/h (1 Bft) W 268 1 min 0,000 mm 0,0 UV-I 123 W/m 4,8 C 8,6 C 6,4 km/h (2 Bft) 100,00 %
14.11.2015 08:50 8,6 C 77 % 1029,5 hPa 0,0 l/m 4,2 km/h (1 Bft) W-SW 245 1 min 0,000 mm 0,0 UV-I 167 W/m 4,8 C 8,6 C 4,8 km/h (1 Bft) 100,00 %
14.11.2015 08:51 8,7 C 77 % 1029,5 hPa 0,0 l/m 4,5 km/h (1 Bft) W 275 1 min 0,000 mm 0,0 UV-I 136 W/m 4,9 C 8,7 C 6,4 km/h (2 Bft) 100,00 %
14.11.2015 08:52 8,7 C 76 % 1029,6 hPa 0,0 l/m 7,1 km/h (2 Bft) W 271 1 min 0,000 mm 0,0 UV-I 167 W/m 4,7 C 8,2 C 12,9 km/h (3 Bft) 100,00 %
14.11.2015 08:53 8,7 C 76 % 1029,6 hPa 0,0 l/m 7,5 km/h (2 Bft) W 278 1 min 0,000 mm 0,0 UV-I 206 W/m 4,7 C 7,9 C 12,9 km/h (3 Bft) 100,00 %
14.11.2015 08:54 8,7 C 76 % 1029,6 hPa 0,0 l/m 7,2 km/h (2 Bft) W-SW 252 0 min 0,000 mm 0,0 UV-I 109 W/m 4,7 C 8,1 C 14,5 km/h (3 Bft) 100,00 %
14.11.2015 08:55 8,7 C 76 % 1029,6 hPa 0,0 l/m 3,9 km/h (1 Bft) SW 215 0 min 0,000 mm 0,0 UV-I 77 W/m 4,7 C 8,7 C 4,8 km/h (1 Bft) 96,15 %
14.11.2015 08:56 8,7 C 77 % 1029,7 hPa 0,0 l/m 4,4 km/h (1 Bft) W 281 0 min 0,000 mm 0,0 UV-I 92 W/m 4,9 C 8,7 C 6,4 km/h (2 Bft) 96,30 %
14.11.2015 08:57 8,7 C 77 % 1029,6 hPa 0,0 l/m 5,3 km/h (1 Bft) SW 234 0 min 0,000 mm 0,0 UV-I 94 W/m 4,9 C 8,7 C 9,7 km/h (2 Bft) 100,00 %
14.11.2015 08:58 8,7 C 77 % 1029,6 hPa 0,0 l/m 4,1 km/h (1 Bft) W-SW 252 0 min 0,000 mm 0,0 UV-I 87 W/m 4,9 C 8,7 C 9,7 km/h (2 Bft) 100,00 %
14.11.2015 08:59 8,7 C 77 % 1029,6 hPa 0,0 l/m 6,3 km/h (2 Bft) W 272 0 min 0,000 mm 0,0 UV-I 85 W/m 4,9 C 8,7 C 11,3 km/h (2 Bft) 100,00 %
14.11.2015 09:00 8,7 C 77 % 1029,6 hPa 0,0 l/m 3,7 km/h (1 Bft) W-SW 248 0 min 0,000 mm 0,0 UV-I 90 W/m 4,9 C 8,7 C 6,4 km/h (2 Bft) 100,00 %
14.11.2015 09:01 8,7 C 77 % 1029,6 hPa 0,0 l/m 2,9 km/h (1 Bft) W 274 0 min 0,051 mm 0,0 UV-I 97 W/m 4,9 C 8,7 C 4,8 km/h (1 Bft) 100,00 %
14.11.2015 09:02 8,7 C 78 % 1029,6 hPa 0,0 l/m 2,8 km/h (1 Bft) W-SW 254 0 min 0,000 mm 0,0 UV-I 104 W/m 5,1 C 8,7 C 4,8 km/h (1 Bft) 100,00 %
14.11.2015 09:03 8,7 C 78 % 1029,6 hPa 0,0 l/m 5,8 km/h (2 Bft) W-SW 246 0 min 0,000 mm 0,0 UV-I 109 W/m 5,1 C 8,7 C 8,0 km/h (2 Bft) 100,00 %
14.11.2015 09:05 8,7 C 77 % 1029,6 hPa 0,0 l/m 8,5 km/h (2 Bft) W 281 0 min 0,000 mm 0,0 UV-I 97 W/m 4,9 C 7,1 C 11,3 km/h (2 Bft) 100,00 %
14.11.2015 09:10 8,7 C 78 % 1029,4 hPa 0,0 l/m 6,4 km/h (2 Bft) W 281 0 min 0,000 mm 0,0 UV-I 119 W/m 5,1 C 8,7 C 12,9 km/h (3 Bft) 100,00 %
14.11.2015 09:15 8,7 C 76 % 1029,4 hPa 0,0 l/m 6,7 km/h (2 Bft) W 261 0 min 0,000 mm 0,0 UV-I 113 W/m 4,7 C 8,5 C 17,7 km/h (3 Bft) 100,00 %
14.11.2015 09:20 8,7 C 77 % 1029,4 hPa 0,0 l/m 7,4 km/h (2 Bft) W-NW 291 0 min 0,000 mm 0,0 UV-I 152 W/m 4,9 C 7,9 C 14,5 km/h (3 Bft) 100,00 %
14.11.2015 09:25 8,7 C 75 % 1029,4 hPa 0,0 l/m 9,7 km/h (2 Bft) W 271 0 min 0,000 mm 0,0 UV-I 113 W/m 4,5 C 6,3 C 20,9 km/h (4 Bft) 99,08 %
14.11.2015 09:30 8,7 C 72 % 1029,4 hPa 0,0 l/m 11,1 km/h (2 Bft) W-NW 294 0 min 0,000 mm 0,0 UV-I 121 W/m 3,9 C 5,5 C 25,7 km/h (4 Bft) 98,35 %
14.11.2015 09:35 8,6 C 72 % 1029,4 hPa 0,0 l/m 12,2 km/h (2 Bft) W 278 0 min 0,000 mm 0,0 UV-I 109 W/m 3,8 C 4,8 C 25,7 km/h (4 Bft) 100,00 %
14.11.2015 09:40 8,6 C 73 % 1029,5 hPa 0,0 l/m 10,4 km/h (2 Bft) W-SW 254 0 min 0,000 mm 0,0 UV-I 128 W/m 4,0 C 5,8 C 17,7 km/h (3 Bft) 100,00 %
14.11.2015 09:45 8,6 C 72 % 1029,5 hPa 0,0 l/m 9,6 km/h (2 Bft) W-NW 284 0 min 0,000 mm 0,0 UV-I 131 W/m 3,8 C 6,3 C 17,7 km/h (3 Bft) 100,00 %
14.11.2015 09:50 8,6 C 72 % 1029,5 hPa 0,0 l/m 10,4 km/h (2 Bft) W 271 0 min 0,000 mm 0,0 UV-I 107 W/m 3,8 C 5,8 C 27,4 km/h (4 Bft) 100,00 %
14.11.2015 09:55 8,6 C 72 % 1029,6 hPa 0,0 l/m 8,8 km/h (2 Bft) W 273 0 min 0,000 mm 0,0 UV-I 115 W/m 3,8 C 6,8 C 20,9 km/h (4 Bft) 100,00 %
14.11.2015 10:00 8,6 C 73 % 1029,6 hPa 0,0 l/m 8,2 km/h (2 Bft) W-NW 300 0 min 0,076 mm 0,0 UV-I 99 W/m 4,0 C 7,2 C 22,5 km/h (4 Bft) 98,29 %
14.11.2015 10:05 8,6 C 72 % 1029,5 hPa 0,0 l/m 10,2 km/h (2 Bft) W-SW 240 0 min 0,000 mm 0,3 UV-I 118 W/m 3,8 C 5,9 C 17,7 km/h (3 Bft) 98,31 %
14.11.2015 10:10 8,6 C 72 % 1029,6 hPa 0,0 l/m 8,8 km/h (2 Bft) S-SW 213 0 min 0,000 mm 0,5 UV-I 128 W/m 3,8 C 6,8 C 22,5 km/h (4 Bft) 99,11 %
14.11.2015 10:15 8,7 C 72 % 1029,6 hPa 0,0 l/m 6,4 km/h (2 Bft) W 263 0 min 0,000 mm 0,5 UV-I 140 W/m 3,9 C 8,7 C 12,9 km/h (3 Bft) 98,41 %
14.11.2015 10:20 8,8 C 72 % 1029,6 hPa 0,0 l/m 5,5 km/h (1 Bft) SW 235 0 min 0,000 mm 0,5 UV-I 152 W/m 4,0 C 8,8 C 11,3 km/h (2 Bft) 99,15 %
14.11.2015 10:25 8,8 C 73 % 1029,6 hPa 0,0 l/m 7,3 km/h (2 Bft) W-NW 287 0 min 0,000 mm 0,5 UV-I 142 W/m 4,2 C 8,1 C 14,5 km/h (3 Bft) 100,00 %
14.11.2015 10:30 8,9 C 73 % 1029,5 hPa 0,0 l/m 7,2 km/h (2 Bft) W 261 0 min 0,000 mm 0,5 UV-I 144 W/m 4,3 C 8,3 C 16,1 km/h (3 Bft) 97,37 %
14.11.2015 10:35 8,9 C 75 % 1029,4 hPa 0,0 l/m 9,0 km/h (2 Bft) SW 223 0 min 0,000 mm 0,6 UV-I 149 W/m 4,7 C 7,0 C 19,3 km/h (3 Bft) 100,00 %
14.11.2015 10:40 8,9 C 74 % 1029,4 hPa 0,0 l/m 8,4 km/h (2 Bft) W-SW 244 0 min 0,000 mm 0,5 UV-I 148 W/m 4,5 C 7,4 C 17,7 km/h (3 Bft) 100,00 %
14.11.2015 10:45 9,1 C 74 % 1029,4 hPa 0,0 l/m 9,7 km/h (2 Bft) W-SW 238 0 min 0,000 mm 0,6 UV-I 148 W/m 4,7 C 6,8 C 17,7 km/h (3 Bft) 98,21 %
14.11.2015 10:50 9,1 C 73 % 1029,3 hPa 0,0 l/m 9,5 km/h (2 Bft) W-SW 242 0 min 0,000 mm 0,5 UV-I 148 W/m 4,5 C 6,9 C 19,3 km/h (3 Bft) 98,39 %
14.11.2015 10:55 9,1 C 73 % 1029,2 hPa 0,0 l/m 9,8 km/h (2 Bft) W-NW 302 0 min 0,000 mm 0,5 UV-I 139 W/m 4,5 C 6,7 C 19,3 km/h (3 Bft) 100,00 %
14.11.2015 11:00 9,1 C 72 % 1029,1 hPa 0,0 l/m 10,0 km/h (2 Bft) S-SW 211 0 min 0,076 mm 0,5 UV-I 129 W/m 4,3 C 6,6 C 22,5 km/h (4 Bft) 100,00 %
14.11.2015 11:05 9,1 C 73 % 1029,1 hPa 0,0 l/m 9,5 km/h (2 Bft) W-SW 239 0 min 0,000 mm 0,2 UV-I 109 W/m 4,5 C 6,9 C 17,7 km/h (3 Bft) 98,26 %
14.11.2015 11:10 9,1 C 74 % 1028,9 hPa 0,0 l/m 8,1 km/h (2 Bft) W-SW 246 0 min 0,000 mm 0,5 UV-I 116 W/m 4,7 C 7,8 C 14,5 km/h (3 Bft) 98,37 %
14.11.2015 11:11 9,1 C 73 % 1028,9 hPa 0,0 l/m 9,6 km/h (2 Bft) SW 229 0 min 0,000 mm 0,5 UV-I 117 W/m 4,5 C 6,8 C 12,9 km/h (3 Bft) 96,30 %
14.11.2015 11:12 9,1 C 74 % 1028,9 hPa 0,0 l/m 11,5 km/h (2 Bft) NW 318 0 min 0,000 mm 0,5 UV-I 130 W/m 4,7 C 5,7 C 14,5 km/h (3 Bft) 100,00 %
14.11.2015 11:13 9,1 C 73 % 1028,9 hPa 0,0 l/m 12,1 km/h (2 Bft) W-SW 256 0 min 0,000 mm 0,6 UV-I 138 W/m 4,5 C 5,4 C 17,7 km/h (3 Bft) 100,00 %
14.11.2015 11:14 9,1 C 74 % 1028,9 hPa 0,0 l/m 6,1 km/h (2 Bft) W 268 0 min 0,000 mm 0,5 UV-I 135 W/m 4,7 C 9,1 C 9,7 km/h (2 Bft) 100,00 %
14.11.2015 11:15 9,1 C 74 % 1028,9 hPa 0,0 l/m 6,2 km/h (2 Bft) W-NW 297 0 min 0,000 mm 0,5 UV-I 131 W/m 4,7 C 9,1 C 11,3 km/h (2 Bft) 95,83 %
14.11.2015 11:16 9,1 C 74 % 1028,9 hPa 0,0 l/m 6,2 km/h (2 Bft) W 277 0 min 0,000 mm 0,6 UV-I 145 W/m 4,7 C 9,1 C 11,3 km/h (2 Bft) 95,65 %
14.11.2015 11:17 9,1 C 74 % 1028,9 hPa 0,0 l/m 11,3 km/h (2 Bft) W 271 0 min 0,000 mm 0,6 UV-I 136 W/m 4,7 C 5,9 C 17,7 km/h (3 Bft) 100,00 %
14.11.2015 11:18 9,2 C 74 % 1028,9 hPa 0,0 l/m 8,1 km/h (2 Bft) W 276 0 min 0,000 mm 0,5 UV-I 124 W/m 4,8 C 7,9 C 12,9 km/h (3 Bft) 96,15 %
14.11.2015 11:19 9,2 C 74 % 1028,9 hPa 0,0 l/m 10,7 km/h (2 Bft) W-SW 240 0 min 0,000 mm 0,5 UV-I 122 W/m 4,8 C 6,3 C 16,1 km/h (3 Bft) 100,00 %
14.11.2015 11:20 9,2 C 74 % 1028,9 hPa 0,0 l/m 8,0 km/h (2 Bft) W 260 0 min 0,000 mm 0,5 UV-I 122 W/m 4,8 C 8,0 C 12,9 km/h (3 Bft) 100,00 %
14.11.2015 11:21 9,2 C 73 % 1028,9 hPa 0,0 l/m 10,8 km/h (2 Bft) W 275 0 min 0,000 mm 0,5 UV-I 117 W/m 4,6 C 6,2 C 17,7 km/h (3 Bft) 100,00 %
14.11.2015 11:22 9,2 C 73 % 1028,9 hPa 0,0 l/m 10,8 km/h (2 Bft) W 278 0 min 0,000 mm 0,5 UV-I 116 W/m 4,6 C 6,2 C 14,5 km/h (3 Bft) 100,00 %
14.11.2015 11:23 9,2 C 73 % 1028,9 hPa 0,0 l/m 7,0 km/h (2 Bft) SW 224 0 min 0,000 mm 0,5 UV-I 122 W/m 4,6 C 8,8 C 12,9 km/h (3 Bft) 100,00 %
14.11.2015 11:24 9,2 C 74 % 1028,9 hPa 0,0 l/m 6,2 km/h (2 Bft) W 266 0 min 0,000 mm 0,5 UV-I 122 W/m 4,8 C 9,2 C 9,7 km/h (2 Bft) 100,00 %
14.11.2015 11:25 9,2 C 74 % 1028,9 hPa 0,0 l/m 6,5 km/h (2 Bft) W-SW 240 0 min 0,000 mm 0,5 UV-I 119 W/m 4,8 C 9,2 C 9,7 km/h (2 Bft) 100,00 %
14.11.2015 11:26 9,2 C 74 % 1028,8 hPa 0,0 l/m 6,6 km/h (2 Bft) W 278 0 min 0,000 mm 0,5 UV-I 115 W/m 4,8 C 9,1 C 11,3 km/h (2 Bft) 100,00 %
14.11.2015 11:27 9,2 C 74 % 1028,8 hPa 0,0 l/m 6,6 km/h (2 Bft) SW 216 0 min 0,000 mm 0,5 UV-I 117 W/m 4,8 C 9,1 C 11,3 km/h (2 Bft) 100,00 %
14.11.2015 11:28 9,2 C 75 % 1028,7 hPa 0,0 l/m 6,0 km/h (2 Bft) W 272 0 min 0,000 mm 0,5 UV-I 116 W/m 5,0 C 9,2 C 9,7 km/h (2 Bft) 100,00 %
14.11.2015 11:29 9,2 C 74 % 1028,8 hPa 0,0 l/m 5,3 km/h (1 Bft) W-SW 252 0 min 0,000 mm 0,4 UV-I 114 W/m 4,8 C 9,2 C 8,0 km/h (2 Bft) 100,00 %
14.11.2015 11:30 9,2 C 74 % 1028,8 hPa 0,0 l/m 7,3 km/h (2 Bft) W-NW 284 0 min 0,000 mm 0,0 UV-I 110 W/m 4,8 C 8,5 C 12,9 km/h (3 Bft) 100,00 %
14.11.2015 11:31 9,2 C 74 % 1028,8 hPa 0,0 l/m 6,3 km/h (2 Bft) SW 229 0 min 0,000 mm 0,0 UV-I 105 W/m 4,8 C 9,2 C 11,3 km/h (2 Bft) 96,15 %
14.11.2015 11:32 9,2 C 74 % 1028,8 hPa 0,0 l/m 8,5 km/h (2 Bft) SW 227 0 min 0,000 mm 0,0 UV-I 100 W/m 4,8 C 7,7 C 12,9 km/h (3 Bft) 100,00 %
14.11.2015 11:33 9,2 C 74 % 1028,8 hPa 0,0 l/m 8,9 km/h (2 Bft) SW 229 0 min 0,000 mm 0,0 UV-I 98 W/m 4,8 C 7,4 C 14,5 km/h (3 Bft) 100,00 %
14.11.2015 11:34 9,2 C 74 % 1028,8 hPa 0,0 l/m 6,6 km/h (2 Bft) W-SW 254 0 min 0,000 mm 0,0 UV-I 105 W/m 4,8 C 9,1 C 12,9 km/h (3 Bft) 100,00 %
14.11.2015 11:35 9,2 C 74 % 1028,8 hPa 0,0 l/m 12,4 km/h (3 Bft) W-SW 256 0 min 0,000 mm 0,0 UV-I 103 W/m 4,8 C 5,4 C 20,9 km/h (4 Bft) 100,00 %
14.11.2015 11:36 9,2 C 74 % 1028,8 hPa 0,0 l/m 6,7 km/h (2 Bft) SW 230 0 min 0,000 mm 0,0 UV-I 99 W/m 4,8 C 9,0 C 12,9 km/h (3 Bft) 100,00 %
14.11.2015 11:37 9,2 C 74 % 1028,8 hPa 0,0 l/m 7,0 km/h (2 Bft) W-NW 290 0 min 0,000 mm 0,0 UV-I 94 W/m 4,8 C 8,8 C 12,9 km/h (3 Bft) 100,00 %
14.11.2015 11:38 9,2 C 74 % 1028,8 hPa 0,0 l/m 7,6 km/h (2 Bft) W 277 0 min 0,000 mm 0,0 UV-I 89 W/m 4,8 C 8,3 C 16,1 km/h (3 Bft) 100,00 %
14.11.2015 11:39 9,2 C 74 % 1028,7 hPa 0,0 l/m 6,8 km/h (2 Bft) W-SW 254 0 min 0,000 mm 0,0 UV-I 86 W/m 4,8 C 8,9 C 12,9 km/h (3 Bft) 100,00 %
14.11.2015 11:40 9,2 C 74 % 1028,8 hPa 0,0 l/m 6,8 km/h (2 Bft) W-SW 241 0 min 0,000 mm 0,0 UV-I 81 W/m 4,8 C 8,9 C 14,5 km/h (3 Bft) 100,00 %
14.11.2015 11:41 9,2 C 74 % 1028,8 hPa 0,0 l/m 7,0 km/h (2 Bft) W-NW 292 0 min 0,000 mm 0,0 UV-I 78 W/m 4,8 C 8,8 C 11,3 km/h (2 Bft) 100,00 %
14.11.2015 11:42 9,2 C 74 % 1028,8 hPa 0,0 l/m 8,0 km/h (2 Bft) W 277 0 min 0,000 mm 0,0 UV-I 72 W/m 4,8 C 8,0 C 12,9 km/h (3 Bft) 96,15 %
14.11.2015 11:43 9,2 C 75 % 1028,8 hPa 0,0 l/m 5,6 km/h (1 Bft) W-NW 284 0 min 0,000 mm 0,0 UV-I 66 W/m 5,0 C 9,2 C 11,3 km/h (2 Bft) 100,00 %
14.11.2015 11:44 9,2 C 75 % 1028,8 hPa 0,0 l/m 7,4 km/h (2 Bft) SW 236 0 min 0,000 mm 0,0 UV-I 70 W/m 5,0 C 8,4 C 12,9 km/h (3 Bft) 100,00 %
14.11.2015 11:45 9,2 C 76 % 1028,8 hPa 0,0 l/m 4,2 km/h (1 Bft) W-SW 251 0 min 0,000 mm 0,0 UV-I 76 W/m 5,2 C 9,2 C 6,4 km/h (2 Bft) 96,30 %
14.11.2015 11:46 9,2 C 76 % 1028,8 hPa 0,0 l/m 4,5 km/h (1 Bft) SW 220 0 min 0,000 mm 0,0 UV-I 74 W/m 5,2 C 9,2 C 6,4 km/h (2 Bft) 100,00 %
14.11.2015 11:47 9,2 C 75 % 1028,7 hPa 0,0 l/m 4,7 km/h (1 Bft) W-SW 252 0 min 0,000 mm 0,0 UV-I 71 W/m 5,0 C 9,2 C 6,4 km/h (2 Bft) 96,30 %
14.11.2015 11:48 9,2 C 75 % 1028,7 hPa 0,0 l/m 5,6 km/h (1 Bft) W 267 0 min 0,000 mm 0,0 UV-I 64 W/m 5,0 C 9,2 C 9,7 km/h (2 Bft) 100,00 %
14.11.2015 11:49 9,2 C 75 % 1028,6 hPa 0,0 l/m 7,7 km/h (2 Bft) SW 217 0 min 0,000 mm 0,0 UV-I 59 W/m 5,0 C 8,2 C 12,9 km/h (3 Bft) 100,00 %
14.11.2015 11:50 9,2 C 75 % 1028,6 hPa 0,0 l/m 6,2 km/h (2 Bft) W-SW 251 0 min 0,000 mm 0,0 UV-I 60 W/m 5,0 C 9,2 C 12,9 km/h (3 Bft) 100,00 %
14.11.2015 11:51 9,2 C 75 % 1028,6 hPa 0,0 l/m 8,6 km/h (2 Bft) S-SW 201 0 min 0,000 mm 0,0 UV-I 72 W/m 5,0 C 7,6 C 14,5 km/h (3 Bft) 100,00 %
14.11.2015 11:52 9,2 C 75 % 1028,5 hPa 0,0 l/m 11,4 km/h (2 Bft) W 272 0 min 0,000 mm 0,0 UV-I 87 W/m 5,0 C 5,9 C 16,1 km/h (3 Bft) 96,15 %
14.11.2015 11:53 9,2 C 74 % 1028,5 hPa 0,0 l/m 8,9 km/h (2 Bft) W-NW 296 0 min 0,000 mm 0,0 UV-I 88 W/m 4,8 C 7,4 C 14,5 km/h (3 Bft) 100,00 %
14.11.2015 11:54 9,2 C 74 % 1028,5 hPa 0,0 l/m 8,0 km/h (2 Bft) W 261 0 min 0,000 mm 0,0 UV-I 82 W/m 4,8 C 8,0 C 14,5 km/h (3 Bft) 100,00 %
14.11.2015 11:55 9,2 C 75 % 1028,5 hPa 0,0 l/m 6,4 km/h (2 Bft) W 281 0 min 0,000 mm 0,2 UV-I 82 W/m 5,0 C 9,2 C 12,9 km/h (3 Bft) 100,00 %
14.11.2015 11:56 9,2 C 75 % 1028,5 hPa 0,0 l/m 7,4 km/h (2 Bft) W-NW 291 0 min 0,000 mm 0,6 UV-I 104 W/m 5,0 C 8,4 C 17,7 km/h (3 Bft) 100,00 %
14.11.2015 11:57 9,2 C 75 % 1028,5 hPa 0,0 l/m 9,3 km/h (2 Bft) W-NW 292 0 min 0,000 mm 0,6 UV-I 122 W/m 5,0 C 7,1 C 16,1 km/h (3 Bft) 100,00 %
14.11.2015 11:58 9,2 C 75 % 1028,5 hPa 0,0 l/m 7,1 km/h (2 Bft) W-SW 245 0 min 0,000 mm 0,6 UV-I 124 W/m 5,0 C 8,7 C 12,9 km/h (3 Bft) 100,00 %
14.11.2015 11:59 9,2 C 76 % 1028,5 hPa 0,0 l/m 4,8 km/h (1 Bft) W-NW 298 0 min 0,000 mm 0,6 UV-I 115 W/m 5,2 C 9,2 C 6,4 km/h (2 Bft) 100,00 %
14.11.2015 12:00 9,2 C 76 % 1028,5 hPa 0,0 l/m 7,2 km/h (2 Bft) SW 232 0 min 0,000 mm 0,6 UV-I 113 W/m 5,2 C 8,6 C 12,9 km/h (3 Bft) 95,83 %
14.11.2015 12:01 9,3 C 75 % 1028,4 hPa 0,0 l/m 7,8 km/h (2 Bft) W-SW 239 0 min 0,077 mm 0,6 UV-I 119 W/m 5,1 C 8,3 C 12,9 km/h (3 Bft) 100,00 %
14.11.2015 12:02 9,3 C 76 % 1028,5 hPa 0,0 l/m 5,6 km/h (1 Bft) W 273 0 min 0,000 mm 0,6 UV-I 121 W/m 5,3 C 9,3 C 11,3 km/h (2 Bft) 100,00 %
14.11.2015 12:03 9,3 C 75 % 1028,4 hPa 0,0 l/m 10,2 km/h (2 Bft) SW 215 0 min 0,000 mm 0,5 UV-I 122 W/m 5,1 C 6,7 C 16,1 km/h (3 Bft) 100,00 %
14.11.2015 12:04 9,3 C 75 % 1028,4 hPa 0,0 l/m 12,0 km/h (2 Bft) W-SW 246 0 min 0,000 mm 0,6 UV-I 128 W/m 5,1 C 5,7 C 20,9 km/h (4 Bft) 100,00 %
14.11.2015 12:05 9,3 C 75 % 1028,3 hPa 0,0 l/m 6,9 km/h (2 Bft) W 266 0 min 0,000 mm 0,5 UV-I 119 W/m 5,1 C 8,9 C 9,7 km/h (2 Bft) 100,00 %
14.11.2015 12:06 9,3 C 75 % 1028,3 hPa 0,0 l/m 9,9 km/h (2 Bft) SW 217 0 min 0,000 mm 0,5 UV-I 110 W/m 5,1 C 6,9 C 16,1 km/h (3 Bft) 100,00 %
14.11.2015 12:07 9,3 C 75 % 1028,3 hPa 0,0 l/m 11,3 km/h (2 Bft) W 275 0 min 0,000 mm 0,5 UV-I 100 W/m 5,1 C 6,1 C 19,3 km/h (3 Bft) 100,00 %
14.11.2015 12:08 9,3 C 75 % 1028,3 hPa 0,0 l/m 7,4 km/h (2 Bft) W-SW 254 0 min 0,000 mm 0,5 UV-I 95 W/m 5,1 C 8,6 C 11,3 km/h (2 Bft) 100,00 %
14.11.2015 12:09 9,3 C 75 % 1028,3 hPa 0,0 l/m 8,9 km/h (2 Bft) W 261 0 min 0,000 mm 0,5 UV-I 102 W/m 5,1 C 7,5 C 14,5 km/h (3 Bft) 96,15 %
14.11.2015 12:10 9,3 C 75 % 1028,3 hPa 0,0 l/m 7,3 km/h (2 Bft) W-SW 252 0 min 0,000 mm 0,5 UV-I 112 W/m 5,1 C 8,6 C 12,9 km/h (3 Bft) 100,00 %
14.11.2015 12:11 9,3 C 75 % 1028,3 hPa 0,0 l/m 6,4 km/h (2 Bft) SW 236 0 min 0,000 mm 0,5 UV-I 120 W/m 5,1 C 9,3 C 12,9 km/h (3 Bft) 92,31 %
14.11.2015 12:12 9,3 C 76 % 1028,3 hPa 0,0 l/m 6,0 km/h (2 Bft) W-SW 242 0 min 0,000 mm 0,3 UV-I 126 W/m 5,3 C 9,3 C 11,3 km/h (2 Bft) 100,00 %
14.11.2015 12:13 9,3 C 76 % 1028,3 hPa 0,0 l/m 7,5 km/h (2 Bft) SW 226 0 min 0,000 mm 0,0 UV-I 130 W/m 5,3 C 8,5 C 9,7 km/h (2 Bft) 100,00 %
14.11.2015 12:14 9,3 C 76 % 1028,3 hPa 0,0 l/m 6,0 km/h (2 Bft) W 269 0 min 0,000 mm 0,0 UV-I 120 W/m 5,3 C 9,3 C 9,7 km/h (2 Bft) 100,00 %
14.11.2015 12:15 9,4 C 76 % 1028,3 hPa 0,0 l/m 5,5 km/h (1 Bft) W-NW 290 0 min 0,000 mm 0,4 UV-I 171 W/m 5,4 C 9,4 C 9,7 km/h (2 Bft) 100,00 %
14.11.2015 12:16 9,4 C 76 % 1028,3 hPa 0,0 l/m 6,1 km/h (2 Bft) W-SW 257 0 min 0,000 mm 0,4 UV-I 171 W/m 5,4 C 9,4 C 9,7 km/h (2 Bft) 100,00 %
14.11.2015 12:17 9,5 C 77 % 1028,3 hPa 0,0 l/m 7,0 km/h (2 Bft) W 281 0 min 0,000 mm 0,0 UV-I 148 W/m 5,7 C 9,1 C 11,3 km/h (2 Bft) 100,00 %
14.11.2015 12:18 9,6 C 76 % 1028,3 hPa 0,0 l/m 8,0 km/h (2 Bft) W-NW 294 0 min 0,000 mm 0,0 UV-I 174 W/m 5,6 C 8,4 C 12,9 km/h (3 Bft) 91,67 %
14.11.2015 12:19 9,6 C 77 % 1028,3 hPa 0,0 l/m 6,4 km/h (2 Bft) W 262 0 min 0,000 mm 0,0 UV-I 211 W/m 5,8 C 9,6 C 11,3 km/h (2 Bft) 100,00 %
14.11.2015 12:20 9,6 C 76 % 1028,3 hPa 0,0 l/m 6,7 km/h (2 Bft) W 273 0 min 0,000 mm 0,0 UV-I 116 W/m 5,6 C 9,4 C 12,9 km/h (3 Bft) 100,00 %
14.11.2015 12:21 9,6 C 76 % 1028,3 hPa 0,0 l/m 5,7 km/h (1 Bft) W-NW 287 0 min 0,000 mm 0,0 UV-I 99 W/m 5,6 C 9,6 C 9,7 km/h (2 Bft) 100,00 %
14.11.2015 12:22 9,6 C 76 % 1028,2 hPa 0,0 l/m 9,8 km/h (2 Bft) W-NW 284 0 min 0,000 mm 0,0 UV-I 92 W/m 5,6 C 7,3 C 14,5 km/h (3 Bft) 100,00 %
14.11.2015 12:23 9,6 C 75 % 1028,2 hPa 0,0 l/m 6,7 km/h (2 Bft) SW 231 0 min 0,000 mm 0,0 UV-I 90 W/m 5,4 C 9,4 C 9,7 km/h (2 Bft) 100,00 %
14.11.2015 12:24 9,6 C 76 % 1028,1 hPa 0,0 l/m 4,7 km/h (1 Bft) W-SW 257 0 min 0,000 mm 0,0 UV-I 90 W/m 5,6 C 9,6 C 8,0 km/h (2 Bft) 100,00 %
14.11.2015 12:25 9,6 C 76 % 1028,2 hPa 0,0 l/m 6,2 km/h (2 Bft) W-SW 247 0 min 0,000 mm 0,3 UV-I 94 W/m 5,6 C 9,6 C 11,3 km/h (2 Bft) 100,00 %
14.11.2015 12:26 9,6 C 76 % 1028,1 hPa 0,0 l/m 5,8 km/h (2 Bft) W-SW 243 0 min 0,000 mm 0,5 UV-I 98 W/m 5,6 C 9,6 C 11,3 km/h (2 Bft) 100,00 %
14.11.2015 12:27 9,6 C 76 % 1028,1 hPa 0,0 l/m 9,5 km/h (2 Bft) W-NW 291 0 min 0,000 mm 0,0 UV-I 100 W/m 5,6 C 7,5 C 17,7 km/h (3 Bft) 100,00 %
14.11.2015 12:28 9,6 C 76 % 1028,1 hPa 0,0 l/m 7,4 km/h (2 Bft) W 261 0 min 0,000 mm 0,0 UV-I 99 W/m 5,6 C 8,9 C 11,3 km/h (2 Bft) 100,00 %
14.11.2015 12:29 9,6 C 76 % 1028,1 hPa 0,0 l/m 10,4 km/h (2 Bft) W-NW 284 0 min 0,000 mm 0,0 UV-I 92 W/m 5,6 C 6,9 C 17,7 km/h (3 Bft) 100,00 %
14.11.2015 12:30 9,5 C 75 % 1028,1 hPa 0,0 l/m 8,3 km/h (2 Bft) W-NW 284 0 min 0,000 mm 0,0 UV-I 88 W/m 5,3 C 8,1 C 11,3 km/h (2 Bft) 100,00 %
14.11.2015 12:31 9,5 C 75 % 1028,0 hPa 0,0 l/m 11,9 km/h (2 Bft) W-SW 252 0 min 0,000 mm 0,0 UV-I 94 W/m 5,3 C 6,0 C 19,3 km/h (3 Bft) 100,00 %
14.11.2015 12:32 9,5 C 75 % 1028,0 hPa 0,0 l/m 9,3 km/h (2 Bft) W-SW 247 0 min 0,000 mm 0,0 UV-I 96 W/m 5,3 C 7,5 C 14,5 km/h (3 Bft) 100,00 %
14.11.2015 12:33 9,5 C 75 % 1028,0 hPa 0,0 l/m 10,1 km/h (2 Bft) W 260 0 min 0,000 mm 0,4 UV-I 106 W/m 5,3 C 7,0 C 17,7 km/h (3 Bft) 100,00 %
14.11.2015 12:34 9,5 C 75 % 1028,0 hPa 0,0 l/m 7,8 km/h (2 Bft) SW 229 0 min 0,000 mm 0,0 UV-I 105 W/m 5,3 C 8,5 C 12,9 km/h (3 Bft) 100,00 %
14.11.2015 12:35 9,5 C 75 % 1028,0 hPa 0,0 l/m 7,3 km/h (2 Bft) SW 219 0 min 0,000 mm 0,0 UV-I 88 W/m 5,3 C 8,8 C 12,9 km/h (3 Bft) 100,00 %
14.11.2015 12:36 9,5 C 75 % 1028,0 hPa 0,0 l/m 9,5 km/h (2 Bft) W 265 0 min 0,000 mm 0,0 UV-I 85 W/m 5,3 C 7,3 C 20,9 km/h (4 Bft) 100,00 %
14.11.2015 12:37 9,6 C 75 % 1028,0 hPa 0,0 l/m 6,2 km/h (2 Bft) W-SW 257 0 min 0,000 mm 0,0 UV-I 102 W/m 5,4 C 9,6 C 11,3 km/h (2 Bft) 100,00 %
14.11.2015 12:38 9,5 C 75 % 1028,0 hPa 0,0 l/m 10,2 km/h (2 Bft) W 277 0 min 0,000 mm 0,0 UV-I 112 W/m 5,3 C 6,9 C 14,5 km/h (3 Bft) 100,00 %
14.11.2015 12:39 9,6 C 75 % 1027,9 hPa 0,0 l/m 9,7 km/h (2 Bft) W 270 0 min 0,000 mm 0,5 UV-I 103 W/m 5,4 C 7,3 C 14,5 km/h (3 Bft) 96,15 %
14.11.2015 12:40 9,6 C 75 % 1028,0 hPa 0,0 l/m 6,3 km/h (2 Bft) W 270 0 min 0,000 mm 0,5 UV-I 94 W/m 5,4 C 9,6 C 11,3 km/h (2 Bft) 100,00 %
14.11.2015 12:41 9,6 C 75 % 1028,0 hPa 0,0 l/m 7,5 km/h (2 Bft) W 261 0 min 0,000 mm 0,5 UV-I 93 W/m 5,4 C 8,8 C 11,3 km/h (2 Bft) 100,00 %
14.11.2015 12:42 9,6 C 75 % 1028,0 hPa 0,0 l/m 7,8 km/h (2 Bft) W 269 0 min 0,000 mm 0,5 UV-I 96 W/m 5,4 C 8,6 C 12,9 km/h (3 Bft) 95,83 %
14.11.2015 12:43 9,6 C 75 % 1027,9 hPa 0,0 l/m 7,9 km/h (2 Bft) W-NW 303 0 min 0,000 mm 0,5 UV-I 98 W/m 5,4 C 8,5 C 11,3 km/h (2 Bft) 100,00 %
14.11.2015 12:44 9,6 C 75 % 1027,9 hPa 0,0 l/m 9,6 km/h (2 Bft) S-SW 213 0 min 0,000 mm 0,6 UV-I 108 W/m 5,4 C 7,4 C 17,7 km/h (3 Bft) 100,00 %
14.11.2015 12:45 9,6 C 75 % 1027,9 hPa 0,0 l/m 9,1 km/h (2 Bft) W-SW 245 0 min 0,000 mm 0,6 UV-I 114 W/m 5,4 C 7,7 C 12,9 km/h (3 Bft) 100,00 %
14.11.2015 12:46 9,6 C 75 % 1027,9 hPa 0,0 l/m 10,4 km/h (2 Bft) NW 306 0 min 0,000 mm 0,6 UV-I 110 W/m 5,4 C 6,9 C 17,7 km/h (3 Bft) 100,00 %
14.11.2015 12:47 9,6 C 74 % 1027,9 hPa 0,0 l/m 10,1 km/h (2 Bft) SW 216 0 min 0,000 mm 0,6 UV-I 105 W/m 5,2 C 7,1 C 16,1 km/h (3 Bft) 100,00 %
14.11.2015 12:48 9,6 C 74 % 1027,9 hPa 0,0 l/m 12,0 km/h (2 Bft) SW 222 0 min 0,000 mm 0,6 UV-I 123 W/m 5,2 C 6,1 C 17,7 km/h (3 Bft) 100,00 %
14.11.2015 12:49 9,7 C 75 % 1027,8 hPa 0,0 l/m 7,3 km/h (2 Bft) S-SW 213 0 min 0,000 mm 0,6 UV-I 145 W/m 5,5 C 9,0 C 16,1 km/h (3 Bft) 100,00 %
14.11.2015 12:50 9,7 C 74 % 1027,8 hPa 0,0 l/m 13,6 km/h (3 Bft) SW 232 0 min 0,000 mm 0,7 UV-I 159 W/m 5,3 C 5,4 C 20,9 km/h (4 Bft) 95,83 %
14.11.2015 12:51 9,7 C 74 % 1027,8 hPa 0,0 l/m 13,6 km/h (3 Bft) W 269 0 min 0,000 mm 0,6 UV-I 144 W/m 5,3 C 5,4 C 19,3 km/h (3 Bft) 100,00 %
14.11.2015 12:52 9,8 C 73 % 1027,8 hPa 0,0 l/m 11,1 km/h (2 Bft) W 259 0 min 0,000 mm 0,6 UV-I 153 W/m 5,2 C 6,8 C 16,1 km/h (3 Bft) 100,00 %
14.11.2015 12:53 9,8 C 74 % 1027,8 hPa 0,0 l/m 6,7 km/h (2 Bft) W-NW 290 0 min 0,000 mm 0,6 UV-I 165 W/m 5,4 C 9,6 C 11,3 km/h (2 Bft) 100,00 %
14.11.2015 12:54 9,8 C 75 % 1027,8 hPa 0,0 l/m 5,1 km/h (1 Bft) W-SW 253 0 min 0,000 mm 0,7 UV-I 171 W/m 5,6 C 9,8 C 11,3 km/h (2 Bft) 100,00 %
14.11.2015 12:55 9,8 C 74 % 1027,8 hPa 0,0 l/m 10,4 km/h (2 Bft) W-NW 291 0 min 0,000 mm 0,7 UV-I 154 W/m 5,4 C 7,1 C 19,3 km/h (3 Bft) 100,00 %
14.11.2015 12:56 9,9 C 74 % 1027,7 hPa 0,0 l/m 10,7 km/h (2 Bft) SW 227 0 min 0,000 mm 0,7 UV-I 154 W/m 5,5 C 7,1 C 17,7 km/h (3 Bft) 100,00 %
14.11.2015 12:57 9,9 C 74 % 1027,7 hPa 0,0 l/m 10,9 km/h (2 Bft) S-SW 210 0 min 0,000 mm 0,7 UV-I 190 W/m 5,5 C 7,0 C 17,7 km/h (3 Bft) 100,00 %
14.11.2015 12:58 9,9 C 74 % 1027,7 hPa 0,0 l/m 12,9 km/h (3 Bft) W-NW 298 1 min 0,000 mm 0,7 UV-I 215 W/m 5,5 C 6,0 C 25,7 km/h (4 Bft) 100,00 %
14.11.2015 12:59 9,9 C 73 % 1027,7 hPa 0,0 l/m 15,1 km/h (3 Bft) W-SW 240 0 min 0,000 mm 0,7 UV-I 167 W/m 5,3 C 5,0 C 25,7 km/h (4 Bft) 100,00 %
14.11.2015 13:00 10,0 C 73 % 1027,7 hPa 0,0 l/m 11,4 km/h (2 Bft) W 274 0 min 0,000 mm 0,6 UV-I 160 W/m 5,4 C 6,8 C 19,3 km/h (3 Bft) 100,00 %
14.11.2015 13:01 10,0 C 73 % 1027,7 hPa 0,0 l/m 12,2 km/h (2 Bft) W 269 0 min 0,076 mm 0,7 UV-I 160 W/m 5,4 C 6,4 C 17,7 km/h (3 Bft) 100,00 %
14.11.2015 13:02 10,1 C 73 % 1027,7 hPa 0,0 l/m 9,1 km/h (2 Bft) SW 223 0 min 0,000 mm 0,7 UV-I 160 W/m 5,5 C 8,2 C 14,5 km/h (3 Bft) 96,15 %
14.11.2015 13:03 10,1 C 73 % 1027,6 hPa 0,0 l/m 12,6 km/h (3 Bft) W-SW 242 0 min 0,000 mm 0,7 UV-I 174 W/m 5,5 C 6,3 C 20,9 km/h (4 Bft) 100,00 %
14.11.2015 13:04 10,1 C 73 % 1027,6 hPa 0,0 l/m 8,3 km/h (2 Bft) W 277 1 min 0,000 mm 0,8 UV-I 249 W/m 5,5 C 8,8 C 14,5 km/h (3 Bft) 100,00 %
14.11.2015 13:05 10,2 C 73 % 1027,6 hPa 0,0 l/m 12,6 km/h (3 Bft) W-SW 252 1 min 0,000 mm 0,8 UV-I 307 W/m 5,6 C 6,5 C 19,3 km/h (3 Bft) 100,00 %
14.11.2015 13:06 10,2 C 73 % 1027,6 hPa 0,0 l/m 14,6 km/h (3 Bft) W-NW 295 1 min 0,000 mm 0,8 UV-I 342 W/m 5,6 C 5,5 C 27,4 km/h (4 Bft) 100,00 %
14.11.2015 13:07 10,3 C 72 % 1027,4 hPa 0,0 l/m 12,9 km/h (3 Bft) W-SW 255 1 min 0,000 mm 0,7 UV-I 350 W/m 5,5 C 6,4 C 20,9 km/h (4 Bft) 100,00 %
14.11.2015 13:08 10,3 C 72 % 1027,4 hPa 0,0 l/m 8,2 km/h (2 Bft) W 281 1 min 0,000 mm 0,6 UV-I 350 W/m 5,5 C 9,0 C 12,9 km/h (3 Bft) 100,00 %
14.11.2015 13:09 10,3 C 73 % 1027,4 hPa 0,0 l/m 13,8 km/h (3 Bft) SW 220 1 min 0,000 mm 0,7 UV-I 337 W/m 5,7 C 6,0 C 20,9 km/h (4 Bft) 100,00 %
14.11.2015 13:10 10,3 C 72 % 1027,5 hPa 0,0 l/m 12,6 km/h (3 Bft) NW 317 1 min 0,000 mm 0,6 UV-I 315 W/m 5,5 C 6,6 C 20,9 km/h (4 Bft) 100,00 %
14.11.2015 13:11 10,3 C 72 % 1027,5 hPa 0,0 l/m 15,7 km/h (3 Bft) W 261 1 min 0,000 mm 0,8 UV-I 315 W/m 5,5 C 5,2 C 24,1 km/h (4 Bft) 100,00 %
14.11.2015 13:12 10,3 C 72 % 1027,4 hPa 0,0 l/m 8,7 km/h (2 Bft) SW 223 1 min 0,000 mm 0,8 UV-I 315 W/m 5,5 C 8,7 C 14,5 km/h (3 Bft) 96,15 %
14.11.2015 13:13 10,3 C 73 % 1027,4 hPa 0,0 l/m 12,9 km/h (3 Bft) W 267 1 min 0,000 mm 0,8 UV-I 404 W/m 5,7 C 6,4 C 20,9 km/h (4 Bft) 100,00 %
14.11.2015 13:14 10,4 C 71 % 1027,4 hPa 0,0 l/m 15,9 km/h (3 Bft) W 271 1 min 0,000 mm 0,8 UV-I 458 W/m 5,4 C 5,3 C 22,5 km/h (4 Bft) 100,00 %
14.11.2015 13:15 10,4 C 71 % 1027,4 hPa 0,0 l/m 12,2 km/h (2 Bft) W 278 1 min 0,000 mm 0,8 UV-I 427 W/m 5,4 C 6,9 C 16,1 km/h (3 Bft) 100,00 %
14.11.2015 13:16 10,6 C 71 % 1027,4 hPa 0,0 l/m 10,3 km/h (2 Bft) W-NW 294 1 min 0,000 mm 0,8 UV-I 390 W/m 5,6 C 8,1 C 14,5 km/h (3 Bft) 100,00 %
14.11.2015 13:17 10,6 C 70 % 1027,4 hPa 0,0 l/m 10,9 km/h (2 Bft) W-SW 248 1 min 0,000 mm 0,8 UV-I 251 W/m 5,4 C 7,8 C 19,3 km/h (3 Bft) 100,00 %
14.11.2015 13:18 10,6 C 70 % 1027,3 hPa 0,0 l/m 14,1 km/h (3 Bft) NW 307 0 min 0,000 mm 0,8 UV-I 181 W/m 5,4 C 6,2 C 25,7 km/h (4 Bft) 100,00 %
14.11.2015 13:19 10,6 C 70 % 1027,3 hPa 0,0 l/m 13,0 km/h (3 Bft) W-SW 242 1 min 0,000 mm 0,9 UV-I 430 W/m 5,4 C 6,7 C 19,3 km/h (3 Bft) 100,00 %
14.11.2015 13:20 10,7 C 71 % 1027,2 hPa 0,0 l/m 11,1 km/h (2 Bft) W 273 1 min 0,000 mm 0,9 UV-I 409 W/m 5,7 C 7,8 C 16,1 km/h (3 Bft) 100,00 %
14.11.2015 13:21 10,7 C 69 % 1027,2 hPa 0,0 l/m 12,1 km/h (2 Bft) W-NW 286 1 min 0,000 mm 0,8 UV-I 412 W/m 5,2 C 7,3 C 19,3 km/h (3 Bft) 100,00 %
14.11.2015 13:22 10,8 C 70 % 1027,2 hPa 0,0 l/m 8,7 km/h (2 Bft) NW 323 1 min 0,000 mm 0,9 UV-I 426 W/m 5,6 C 9,2 C 14,5 km/h (3 Bft) 100,00 %
14.11.2015 13:23 10,8 C 70 % 1027,3 hPa 0,0 l/m 10,7 km/h (2 Bft) W 263 1 min 0,000 mm 0,8 UV-I 431 W/m 5,6 C 8,1 C 16,1 km/h (3 Bft) 100,00 %
14.11.2015 13:24 10,9 C 70 % 1027,4 hPa 0,0 l/m 12,5 km/h (3 Bft) W-SW 239 1 min 0,000 mm 0,9 UV-I 426 W/m 5,6 C 7,3 C 19,3 km/h (3 Bft) 100,00 %
14.11.2015 13:25 10,9 C 69 % 1027,2 hPa 0,0 l/m 18,7 km/h (3 Bft) W 269 1 min 0,000 mm 0,8 UV-I 401 W/m 5,4 C 4,9 C 29,0 km/h (5 Bft) 100,00 %
14.11.2015 13:26 10,9 C 67 % 1027,1 hPa 0,0 l/m 13,3 km/h (3 Bft) N-NW 327 1 min 0,000 mm 0,8 UV-I 385 W/m 5,0 C 6,9 C 19,3 km/h (3 Bft) 100,00 %
14.11.2015 13:27 10,9 C 67 % 1027,1 hPa 0,0 l/m 9,9 km/h (2 Bft) W 266 1 min 0,000 mm 0,8 UV-I 381 W/m 5,0 C 8,6 C 16,1 km/h (3 Bft) 100,00 %
14.11.2015 13:28 10,9 C 67 % 1027,2 hPa 0,0 l/m 15,0 km/h (3 Bft) W-NW 302 1 min 0,000 mm 0,8 UV-I 357 W/m 5,0 C 6,2 C 25,7 km/h (4 Bft) 100,00 %
14.11.2015 13:29 10,9 C 67 % 1027,2 hPa 0,0 l/m 12,6 km/h (3 Bft) W 270 1 min 0,000 mm 0,7 UV-I 336 W/m 5,0 C 7,3 C 22,5 km/h (4 Bft) 100,00 %
14.11.2015 13:30 10,9 C 67 % 1027,1 hPa 0,0 l/m 14,9 km/h (3 Bft) W 273 1 min 0,000 mm 0,7 UV-I 336 W/m 5,0 C 6,3 C 20,9 km/h (4 Bft) 100,00 %
14.11.2015 13:31 10,9 C 67 % 1027,2 hPa 0,0 l/m 15,4 km/h (3 Bft) W 267 1 min 0,000 mm 0,7 UV-I 308 W/m 5,0 C 6,1 C 24,1 km/h (4 Bft) 100,00 %
14.11.2015 13:32 10,9 C 68 % 1027,2 hPa 0,0 l/m 15,6 km/h (3 Bft) W 264 1 min 0,000 mm 0,6 UV-I 248 W/m 5,2 C 6,0 C 32,2 km/h (5 Bft) 100,00 %
14.11.2015 13:33 10,9 C 67 % 1027,2 hPa 0,0 l/m 17,1 km/h (3 Bft) W-NW 284 1 min 0,000 mm 0,7 UV-I 248 W/m 5,0 C 5,4 C 25,7 km/h (4 Bft) 100,00 %
14.11.2015 13:34 10,9 C 68 % 1027,1 hPa 0,0 l/m 13,9 km/h (3 Bft) W-SW 253 1 min 0,000 mm 0,6 UV-I 248 W/m 5,2 C 6,7 C 24,1 km/h (4 Bft) 100,00 %
14.11.2015 13:35 11,0 C 67 % 1027,1 hPa 0,0 l/m 16,5 km/h (3 Bft) W 275 1 min 0,000 mm 0,6 UV-I 362 W/m 5,1 C 5,8 C 24,1 km/h (4 Bft) 100,00 %
14.11.2015 13:36 11,1 C 68 % 1027,1 hPa 0,0 l/m 13,5 km/h (3 Bft) W-SW 240 1 min 0,000 mm 0,6 UV-I 469 W/m 5,4 C 7,1 C 22,5 km/h (4 Bft) 100,00 %
14.11.2015 13:37 11,1 C 67 % 1027,2 hPa 0,0 l/m 12,9 km/h (3 Bft) W 277 1 min 0,000 mm 0,6 UV-I 421 W/m 5,2 C 7,4 C 17,7 km/h (3 Bft) 100,00 %
14.11.2015 13:38 11,2 C 67 % 1027,1 hPa 0,0 l/m 14,6 km/h (3 Bft) W-NW 283 1 min 0,000 mm 0,5 UV-I 394 W/m 5,3 C 6,7 C 24,1 km/h (4 Bft) 96,15 %
14.11.2015 13:39 11,2 C 66 % 1027,2 hPa 0,0 l/m 15,7 km/h (3 Bft) W 265 1 min 0,000 mm 0,5 UV-I 347 W/m 5,1 C 6,3 C 20,9 km/h (4 Bft) 100,00 %
14.11.2015 13:40 11,1 C 66 % 1027,2 hPa 0,0 l/m 16,2 km/h (3 Bft) W 268 1 min 0,000 mm 0,6 UV-I 304 W/m 5,0 C 6,0 C 24,1 km/h (4 Bft) 100,00 %
14.11.2015 13:41 11,1 C 65 % 1027,2 hPa 0,0 l/m 15,1 km/h (3 Bft) W 270 1 min 0,000 mm 0,5 UV-I 242 W/m 4,8 C 6,4 C 20,9 km/h (4 Bft) 94,12 %
14.11.2015 13:42 11,1 C 66 % 1027,2 hPa 0,0 l/m 14,8 km/h (3 Bft) W 263 1 min 0,000 mm 0,5 UV-I 273 W/m 5,0 C 6,5 C 22,5 km/h (4 Bft) 100,00 %
14.11.2015 13:43 11,1 C 65 % 1027,2 hPa 0,0 l/m 19,4 km/h (3 Bft) W 265 1 min 0,000 mm 0,5 UV-I 231 W/m 4,8 C 4,9 C 33,8 km/h (5 Bft) 100,00 %
14.11.2015 13:44 10,9 C 65 % 1027,2 hPa 0,0 l/m 18,7 km/h (3 Bft) NW 317 1 min 0,000 mm 0,0 UV-I 187 W/m 4,6 C 4,9 C 30,6 km/h (5 Bft) 96,15 %
14.11.2015 13:45 10,9 C 65 % 1027,1 hPa 0,0 l/m 17,7 km/h (3 Bft) NW 314 0 min 0,000 mm 0,0 UV-I 147 W/m 4,6 C 5,2 C 29,0 km/h (5 Bft) 100,00 %
14.11.2015 13:46 10,8 C 66 % 1027,2 hPa 0,0 l/m 18,7 km/h (3 Bft) SW 222 0 min 0,000 mm 0,0 UV-I 155 W/m 4,7 C 4,7 C 40,2 km/h (6 Bft) 96,15 %
14.11.2015 13:47 10,8 C 65 % 1027,1 hPa 0,0 l/m 16,8 km/h (3 Bft) N-NW 331 1 min 0,000 mm 0,0 UV-I 180 W/m 4,5 C 5,4 C 22,5 km/h (4 Bft) 100,00 %
14.11.2015 13:48 10,7 C 65 % 1027,2 hPa 0,0 l/m 15,7 km/h (3 Bft) W 269 1 min 0,000 mm 0,0 UV-I 242 W/m 4,4 C 5,7 C 22,5 km/h (4 Bft) 100,00 %
14.11.2015 13:49 10,7 C 67 % 1027,2 hPa 0,0 l/m 12,1 km/h (2 Bft) S-SW 209 1 min 0,000 mm 0,0 UV-I 196 W/m 4,8 C 7,3 C 19,3 km/h (3 Bft) 100,00 %
14.11.2015 13:50 10,7 C 67 % 1027,3 hPa 0,0 l/m 16,9 km/h (3 Bft) W-SW 247 0 min 0,000 mm 0,0 UV-I 165 W/m 4,8 C 5,2 C 22,5 km/h (4 Bft) 100,00 %
14.11.2015 13:51 10,7 C 67 % 1027,2 hPa 0,0 l/m 12,5 km/h (3 Bft) W-SW 250 1 min 0,000 mm 0,2 UV-I 203 W/m 4,8 C 7,1 C 19,3 km/h (3 Bft) 100,00 %
14.11.2015 13:52 10,7 C 67 % 1027,2 hPa 0,0 l/m 14,4 km/h (3 Bft) SW 236 1 min 0,000 mm 0,3 UV-I 212 W/m 4,8 C 6,2 C 19,3 km/h (3 Bft) 100,00 %
14.11.2015 13:53 10,7 C 67 % 1027,1 hPa 0,0 l/m 11,5 km/h (2 Bft) N-NW 329 1 min 0,000 mm 0,0 UV-I 176 W/m 4,8 C 7,6 C 17,7 km/h (3 Bft) 100,00 %
14.11.2015 13:54 10,8 C 67 % 1027,1 hPa 0,0 l/m 14,2 km/h (3 Bft) W 263 0 min 0,000 mm 0,0 UV-I 157 W/m 4,9 C 6,4 C 19,3 km/h (3 Bft) 100,00 %
14.11.2015 13:55 10,7 C 67 % 1027,3 hPa 0,0 l/m 10,7 km/h (2 Bft) SW 225 1 min 0,000 mm 0,0 UV-I 182 W/m 4,8 C 8,0 C 19,3 km/h (3 Bft) 100,00 %
14.11.2015 13:56 10,7 C 66 % 1027,3 hPa 0,0 l/m 18,7 km/h (3 Bft) SW 223 0 min 0,000 mm 0,0 UV-I 156 W/m 4,6 C 4,6 C 27,4 km/h (4 Bft) 100,00 %
14.11.2015 13:57 10,7 C 65 % 1027,0 hPa 0,0 l/m 12,9 km/h (3 Bft) W 265 0 min 0,000 mm 0,0 UV-I 145 W/m 4,4 C 6,9 C 17,7 km/h (3 Bft) 100,00 %
14.11.2015 13:58 10,7 C 66 % 1027,1 hPa 0,0 l/m 14,8 km/h (3 Bft) W 265 0 min 0,000 mm 0,2 UV-I 160 W/m 4,6 C 6,1 C 22,5 km/h (4 Bft) 100,00 %
14.11.2015 13:59 10,7 C 66 % 1027,1 hPa 0,0 l/m 18,2 km/h (3 Bft) W-SW 242 1 min 0,000 mm 0,5 UV-I 181 W/m 4,6 C 4,8 C 30,6 km/h (5 Bft) 100,00 %
14.11.2015 14:00 10,7 C 66 % 1027,0 hPa 0,0 l/m 16,0 km/h (3 Bft) NW 310 1 min 0,178 mm 0,5 UV-I 198 W/m 4,6 C 5,6 C 27,4 km/h (4 Bft) 100,00 %
14.11.2015 14:01 10,7 C 66 % 1027,1 hPa 0,0 l/m 12,2 km/h (2 Bft) SW 219 1 min 0,000 mm 0,5 UV-I 292 W/m 4,6 C 7,2 C 17,7 km/h (3 Bft) 100,00 %
14.11.2015 14:02 10,7 C 66 % 1027,1 hPa 0,0 l/m 11,0 km/h (2 Bft) W-SW 247 1 min 0,000 mm 0,5 UV-I 308 W/m 4,6 C 7,8 C 17,7 km/h (3 Bft) 100,00 %
14.11.2015 14:03 10,7 C 67 % 1027,1 hPa 0,0 l/m 11,5 km/h (2 Bft) W-SW 254 1 min 0,000 mm 0,5 UV-I 360 W/m 4,8 C 7,6 C 14,5 km/h (3 Bft) 100,00 %
14.11.2015 14:04 10,7 C 66 % 1027,0 hPa 0,0 l/m 16,8 km/h (3 Bft) W 269 1 min 0,000 mm 0,2 UV-I 205 W/m 4,6 C 5,3 C 22,5 km/h (4 Bft) 100,00 %
14.11.2015 14:05 10,7 C 66 % 1027,0 hPa 0,0 l/m 11,4 km/h (2 Bft) W-NW 290 0 min 0,000 mm 0,0 UV-I 109 W/m 4,6 C 7,6 C 14,5 km/h (3 Bft) 100,00 %
14.11.2015 14:06 10,7 C 67 % 1027,0 hPa 0,0 l/m 10,7 km/h (2 Bft) W 263 0 min 0,000 mm 0,0 UV-I 91 W/m 4,8 C 8,0 C 16,1 km/h (3 Bft) 100,00 %
14.11.2015 14:07 10,6 C 66 % 1027,0 hPa 0,0 l/m 10,9 km/h (2 Bft) W 277 0 min 0,000 mm 0,0 UV-I 89 W/m 4,5 C 7,8 C 19,3 km/h (3 Bft) 100,00 %
14.11.2015 14:08 10,6 C 67 % 1027,0 hPa 0,0 l/m 8,9 km/h (2 Bft) S-SW 209 0 min 0,000 mm 0,0 UV-I 90 W/m 4,7 C 8,9 C 16,1 km/h (3 Bft) 100,00 %
14.11.2015 14:09 10,5 C 67 % 1027,1 hPa 0,0 l/m 10,0 km/h (2 Bft) W 267 0 min 0,000 mm 0,0 UV-I 90 W/m 4,6 C 8,1 C 16,1 km/h (3 Bft) 100,00 %
14.11.2015 14:10 10,4 C 68 % 1027,0 hPa 0,0 l/m 10,1 km/h (2 Bft) W 263 0 min 0,000 mm 0,0 UV-I 84 W/m 4,8 C 8,0 C 16,1 km/h (3 Bft) 100,00 %
14.11.2015 14:11 10,4 C 66 % 1027,0 hPa 0,0 l/m 17,0 km/h (3 Bft) W-SW 242 0 min 0,000 mm 0,0 UV-I 87 W/m 4,3 C 4,8 C 24,1 km/h (4 Bft) 100,00 %
14.11.2015 14:12 10,4 C 66 % 1026,9 hPa 0,0 l/m 15,6 km/h (3 Bft) SW 222 0 min 0,000 mm 0,0 UV-I 84 W/m 4,3 C 5,4 C 25,7 km/h (4 Bft) 100,00 %
14.11.2015 14:13 10,3 C 66 % 1027,0 hPa 0,0 l/m 13,6 km/h (3 Bft) SW 224 0 min 0,000 mm 0,0 UV-I 79 W/m 4,2 C 6,1 C 19,3 km/h (3 Bft) 100,00 %
14.11.2015 14:14 10,3 C 66 % 1027,0 hPa 0,0 l/m 12,1 km/h (2 Bft) W-NW 302 0 min 0,000 mm 0,0 UV-I 73 W/m 4,2 C 6,8 C 16,1 km/h (3 Bft) 100,00 %
14.11.2015 14:15 10,3 C 67 % 1027,0 hPa 0,0 l/m 9,3 km/h (2 Bft) W 260 0 min 0,000 mm 0,0 UV-I 75 W/m 4,4 C 8,3 C 14,5 km/h (3 Bft) 100,00 %
14.11.2015 14:16 10,3 C 67 % 1027,0 hPa 0,0 l/m 8,0 km/h (2 Bft) NW 305 0 min 0,000 mm 0,0 UV-I 90 W/m 4,4 C 9,2 C 12,9 km/h (3 Bft) 100,00 %
14.11.2015 14:17 10,2 C 68 % 1027,0 hPa 0,0 l/m 12,1 km/h (2 Bft) S-SW 213 0 min 0,000 mm 0,0 UV-I 93 W/m 4,6 C 6,7 C 27,4 km/h (4 Bft) 100,00 %
14.11.2015 14:18 10,2 C 67 % 1026,9 hPa 0,0 l/m 15,3 km/h (3 Bft) W 263 0 min 0,000 mm 0,0 UV-I 100 W/m 4,4 C 5,3 C 24,1 km/h (4 Bft) 100,00 %
14.11.2015 14:19 10,2 C 67 % 1027,0 hPa 0,0 l/m 15,1 km/h (3 Bft) W 261 0 min 0,000 mm 0,0 UV-I 113 W/m 4,4 C 5,3 C 25,7 km/h (4 Bft) 100,00 %
14.11.2015 14:20 10,2 C 66 % 1026,9 hPa 0,0 l/m 12,7 km/h (3 Bft) W-NW 295 0 min 0,000 mm 0,0 UV-I 136 W/m 4,1 C 6,4 C 17,7 km/h (3 Bft) 100,00 %
14.11.2015 14:21 10,2 C 67 % 1026,9 hPa 0,0 l/m 12,5 km/h (3 Bft) W-NW 294 0 min 0,000 mm 0,0 UV-I 142 W/m 4,4 C 6,5 C 16,1 km/h (3 Bft) 100,00 %
14.11.2015 14:22 10,2 C 66 % 1026,9 hPa 0,0 l/m 13,5 km/h (3 Bft) W 267 0 min 0,000 mm 0,0 UV-I 136 W/m 4,1 C 6,0 C 22,5 km/h (4 Bft) 100,00 %
14.11.2015 14:23 10,3 C 66 % 1026,9 hPa 0,0 l/m 12,9 km/h (3 Bft) N-NW 330 0 min 0,000 mm 0,0 UV-I 120 W/m 4,2 C 6,4 C 19,3 km/h (3 Bft) 100,00 %
14.11.2015 14:24 10,3 C 66 % 1026,8 hPa 0,0 l/m 11,7 km/h (2 Bft) NW 307 0 min 0,000 mm 0,0 UV-I 126 W/m 4,2 C 7,0 C 16,1 km/h (3 Bft) 96,15 %
14.11.2015 14:25 10,3 C 67 % 1026,9 hPa 0,0 l/m 9,9 km/h (2 Bft) W 277 0 min 0,000 mm 0,0 UV-I 117 W/m 4,4 C 8,0 C 16,1 km/h (3 Bft) 96,30 %
14.11.2015 14:26 10,3 C 67 % 1026,9 hPa 0,0 l/m 12,4 km/h (3 Bft) NW 305 0 min 0,000 mm 0,0 UV-I 113 W/m 4,4 C 6,7 C 20,9 km/h (4 Bft) 100,00 %
14.11.2015 14:27 10,3 C 68 % 1026,9 hPa 0,0 l/m 8,6 km/h (2 Bft) SW 228 0 min 0,000 mm 0,0 UV-I 117 W/m 4,7 C 8,8 C 14,5 km/h (3 Bft) 100,00 %
14.11.2015 14:28 10,3 C 67 % 1026,9 hPa 0,0 l/m 13,4 km/h (3 Bft) SW 227 0 min 0,000 mm 0,0 UV-I 116 W/m 4,4 C 6,2 C 22,5 km/h (4 Bft) 100,00 %
14.11.2015 14:29 10,3 C 67 % 1026,8 hPa 0,0 l/m 10,9 km/h (2 Bft) W-NW 295 0 min 0,000 mm 0,0 UV-I 130 W/m 4,4 C 7,4 C 19,3 km/h (3 Bft) 100,00 %
14.11.2015 14:30 10,3 C 66 % 1026,8 hPa 0,0 l/m 13,2 km/h (3 Bft) W 273 1 min 0,000 mm 0,0 UV-I 166 W/m 4,2 C 6,3 C 24,1 km/h (4 Bft) 100,00 %
14.11.2015 14:31 10,3 C 66 % 1026,8 hPa 0,0 l/m 13,3 km/h (3 Bft) W 277 1 min 0,000 mm 0,0 UV-I 179 W/m 4,2 C 6,2 C 22,5 km/h (4 Bft) 100,00 %
14.11.2015 14:32 10,3 C 66 % 1026,8 hPa 0,0 l/m 11,8 km/h (2 Bft) NW 304 1 min 0,000 mm 0,0 UV-I 243 W/m 4,2 C 7,0 C 16,1 km/h (3 Bft) 100,00 %
14.11.2015 14:33 10,3 C 66 % 1026,8 hPa 0,0 l/m 15,2 km/h (3 Bft) W 265 1 min 0,000 mm 0,0 UV-I 257 W/m 4,2 C 5,4 C 22,5 km/h (4 Bft) 92,31 %
14.11.2015 14:34 10,4 C 66 % 1026,8 hPa 0,0 l/m 9,5 km/h (2 Bft) W-NW 303 1 min 0,000 mm 0,0 UV-I 168 W/m 4,3 C 8,3 C 12,9 km/h (3 Bft) 100,00 %
14.11.2015 14:35 10,4 C 66 % 1026,8 hPa 0,0 l/m 11,5 km/h (2 Bft) W 270 1 min 0,000 mm 0,0 UV-I 186 W/m 4,3 C 7,2 C 20,9 km/h (4 Bft) 95,65 %
14.11.2015 14:36 10,4 C 65 % 1026,8 hPa 0,0 l/m 14,8 km/h (3 Bft) W 279 0 min 0,000 mm 0,0 UV-I 118 W/m 4,1 C 5,7 C 20,9 km/h (4 Bft) 100,00 %
14.11.2015 14:37 10,4 C 65 % 1026,8 hPa 0,0 l/m 12,1 km/h (2 Bft) W 277 1 min 0,000 mm 0,0 UV-I 160 W/m 4,1 C 6,9 C 19,3 km/h (3 Bft) 100,00 %
14.11.2015 14:38 10,4 C 66 % 1026,8 hPa 0,0 l/m 11,4 km/h (2 Bft) W 259 1 min 0,000 mm 0,0 UV-I 229 W/m 4,3 C 7,3 C 19,3 km/h (3 Bft) 100,00 %
14.11.2015 14:39 10,4 C 65 % 1026,8 hPa 0,0 l/m 9,6 km/h (2 Bft) W-NW 293 1 min 0,000 mm 0,0 UV-I 130 W/m 4,1 C 8,3 C 14,5 km/h (3 Bft) 96,15 %
14.11.2015 14:40 10,4 C 65 % 1026,8 hPa 0,0 l/m 9,4 km/h (2 Bft) SW 225 0 min 0,000 mm 0,0 UV-I 93 W/m 4,1 C 8,4 C 19,3 km/h (3 Bft) 100,00 %
14.11.2015 14:41 10,4 C 65 % 1026,8 hPa 0,0 l/m 12,5 km/h (3 Bft) W-NW 285 1 min 0,000 mm 0,0 UV-I 199 W/m 4,1 C 6,7 C 17,7 km/h (3 Bft) 100,00 %
14.11.2015 14:42 10,4 C 65 % 1026,8 hPa 0,0 l/m 14,1 km/h (3 Bft) W 266 1 min 0,000 mm 0,0 UV-I 199 W/m 4,1 C 6,0 C 20,9 km/h (4 Bft) 96,30 %
14.11.2015 14:43 10,4 C 64 % 1026,8 hPa 0,0 l/m 9,4 km/h (2 Bft) W-SW 254 1 min 0,000 mm 0,0 UV-I 189 W/m 3,9 C 8,4 C 14,5 km/h (3 Bft) 96,15 %
14.11.2015 14:44 10,4 C 66 % 1026,8 hPa 0,0 l/m 9,1 km/h (2 Bft) W 262 1 min 0,000 mm 0,0 UV-I 170 W/m 4,3 C 8,6 C 16,1 km/h (3 Bft) 100,00 %
14.11.2015 14:45 10,5 C 66 % 1026,8 hPa 0,0 l/m 7,2 km/h (2 Bft) W 266 1 min 0,000 mm 0,0 UV-I 154 W/m 4,4 C 9,9 C 11,3 km/h (2 Bft) 100,00 %
14.11.2015 14:46 10,5 C 65 % 1026,8 hPa 0,0 l/m 10,6 km/h (2 Bft) W-SW 245 0 min 0,000 mm 0,0 UV-I 112 W/m 4,2 C 7,8 C 16,1 km/h (3 Bft) 100,00 %
14.11.2015 14:47 10,5 C 66 % 1026,8 hPa 0,0 l/m 8,3 km/h (2 Bft) NW 317 1 min 0,000 mm 0,0 UV-I 168 W/m 4,4 C 9,2 C 14,5 km/h (3 Bft) 100,00 %
14.11.2015 14:48 10,6 C 66 % 1026,7 hPa 0,0 l/m 12,1 km/h (2 Bft) W 272 1 min 0,000 mm 0,0 UV-I 175 W/m 4,5 C 7,2 C 19,3 km/h (3 Bft) 100,00 %
14.11.2015 14:49 10,5 C 66 % 1026,7 hPa 0,0 l/m 11,6 km/h (2 Bft) SW 221 1 min 0,000 mm 0,0 UV-I 171 W/m 4,4 C 7,3 C 17,7 km/h (3 Bft) 100,00 %
14.11.2015 14:50 10,6 C 66 % 1026,7 hPa 0,0 l/m 13,9 km/h (3 Bft) W-SW 257 1 min 0,000 mm 0,0 UV-I 170 W/m 4,5 C 6,3 C 24,1 km/h (4 Bft) 96,15 %
14.11.2015 14:51 10,6 C 66 % 1026,7 hPa 0,0 l/m 10,9 km/h (2 Bft) W-SW 246 1 min 0,000 mm 0,0 UV-I 165 W/m 4,5 C 7,8 C 19,3 km/h (3 Bft) 100,00 %
14.11.2015 14:52 10,5 C 66 % 1026,7 hPa 0,0 l/m 7,7 km/h (2 Bft) SW 230 1 min 0,000 mm 0,0 UV-I 170 W/m 4,4 C 9,6 C 9,7 km/h (2 Bft) 91,67 %
14.11.2015 14:53 10,6 C 66 % 1026,7 hPa 0,0 l/m 7,9 km/h (2 Bft) SW 224 1 min 0,000 mm 0,0 UV-I 168 W/m 4,5 C 9,5 C 16,1 km/h (3 Bft) 100,00 %
14.11.2015 14:54 10,6 C 66 % 1026,7 hPa 0,0 l/m 9,0 km/h (2 Bft) W-SW 258 1 min 0,000 mm 0,0 UV-I 164 W/m 4,5 C 8,8 C 12,9 km/h (3 Bft) 95,83 %
14.11.2015 14:55 10,6 C 66 % 1026,7 hPa 0,0 l/m 11,3 km/h (2 Bft) W 262 1 min 0,000 mm 0,0 UV-I 165 W/m 4,5 C 7,6 C 19,3 km/h (3 Bft) 100,00 %
14.11.2015 14:56 10,6 C 66 % 1026,7 hPa 0,0 l/m 9,0 km/h (2 Bft) W-NW 284 1 min 0,000 mm 0,0 UV-I 160 W/m 4,5 C 8,8 C 17,7 km/h (3 Bft) 100,00 %
14.11.2015 14:57 10,6 C 66 % 1026,7 hPa 0,0 l/m 12,8 km/h (3 Bft) W-SW 246 1 min 0,000 mm 0,0 UV-I 156 W/m 4,5 C 6,8 C 17,7 km/h (3 Bft) 100,00 %
14.11.2015 14:58 10,5 C 66 % 1026,7 hPa 0,0 l/m 13,3 km/h (3 Bft) SW 233 1 min 0,000 mm 0,0 UV-I 152 W/m 4,4 C 6,5 C 17,7 km/h (3 Bft) 92,31 %
14.11.2015 14:59 10,5 C 66 % 1026,7 hPa 0,0 l/m 11,0 km/h (2 Bft) W 265 1 min 0,000 mm 0,0 UV-I 138 W/m 4,4 C 7,6 C 17,7 km/h (3 Bft) 100,00 %
14.11.2015 15:00 10,5 C 66 % 1026,7 hPa 0,0 l/m 14,1 km/h (3 Bft) W-NW 284 0 min 0,000 mm 0,0 UV-I 88 W/m 4,4 C 6,1 C 19,3 km/h (3 Bft) 100,00 %
14.11.2015 15:01 10,5 C 65 % 1026,5 hPa 0,0 l/m 8,6 km/h (2 Bft) W-SW 254 1 min 0,101 mm 0,0 UV-I 138 W/m 4,2 C 9,0 C 12,9 km/h (3 Bft) 100,00 %
14.11.2015 15:02 10,5 C 66 % 1026,6 hPa 0,0 l/m 10,9 km/h (2 Bft) SW 234 1 min 0,000 mm 0,0 UV-I 139 W/m 4,4 C 7,7 C 19,3 km/h (3 Bft) 100,00 %
14.11.2015 15:03 10,5 C 66 % 1026,6 hPa 0,0 l/m 13,3 km/h (3 Bft) W 274 1 min 0,000 mm 0,0 UV-I 136 W/m 4,4 C 6,5 C 20,9 km/h (4 Bft) 96,30 %
14.11.2015 15:04 10,5 C 66 % 1026,5 hPa 0,0 l/m 9,5 km/h (2 Bft) W 263 0 min 0,000 mm 0,0 UV-I 96 W/m 4,4 C 8,4 C 16,1 km/h (3 Bft) 100,00 %
14.11.2015 15:05 10,4 C 66 % 1026,5 hPa 0,0 l/m 8,4 km/h (2 Bft) NW 325 0 min 0,000 mm 0,0 UV-I 100 W/m 4,3 C 9,0 C 16,1 km/h (3 Bft) 100,00 %
14.11.2015 15:06 10,4 C 66 % 1026,5 hPa 0,0 l/m 7,8 km/h (2 Bft) W-SW 250 1 min 0,000 mm 0,0 UV-I 120 W/m 4,3 C 9,4 C 11,3 km/h (2 Bft) 94,12 %
14.11.2015 15:07 10,4 C 66 % 1026,6 hPa 0,0 l/m 7,5 km/h (2 Bft) W-SW 257 1 min 0,000 mm 0,0 UV-I 119 W/m 4,3 C 9,6 C 11,3 km/h (2 Bft) 100,00 %
14.11.2015 15:08 10,4 C 67 % 1026,6 hPa 0,0 l/m 6,4 km/h (2 Bft) SW 225 1 min 0,000 mm 0,0 UV-I 107 W/m 4,5 C 10,4 C 9,7 km/h (2 Bft) 100,00 %
14.11.2015 15:09 10,4 C 67 % 1026,6 hPa 0,0 l/m 9,1 km/h (2 Bft) W 280 1 min 0,000 mm 0,0 UV-I 109 W/m 4,5 C 8,6 C 17,7 km/h (3 Bft) 100,00 %
14.11.2015 15:10 10,4 C 67 % 1026,6 hPa 0,0 l/m 9,0 km/h (2 Bft) W 279 1 min 0,000 mm 0,0 UV-I 109 W/m 4,5 C 8,6 C 14,5 km/h (3 Bft) 100,00 %
14.11.2015 15:11 10,3 C 67 % 1026,6 hPa 0,0 l/m 5,0 km/h (1 Bft) W 276 1 min 0,000 mm 0,0 UV-I 109 W/m 4,4 C 10,3 C 9,7 km/h (2 Bft) 100,00 %
14.11.2015 15:12 10,3 C 68 % 1026,6 hPa 0,0 l/m 8,4 km/h (2 Bft) W-NW 290 1 min 0,000 mm 0,0 UV-I 106 W/m 4,7 C 8,9 C 12,9 km/h (3 Bft) 100,00 %
14.11.2015 15:13 10,3 C 67 % 1026,6 hPa 0,0 l/m 10,1 km/h (2 Bft) W-NW 297 1 min 0,000 mm 0,0 UV-I 103 W/m 4,4 C 7,9 C 14,5 km/h (3 Bft) 100,00 %
14.11.2015 15:14 10,3 C 67 % 1026,6 hPa 0,0 l/m 12,3 km/h (3 Bft) W 274 1 min 0,000 mm 0,0 UV-I 101 W/m 4,4 C 6,7 C 19,3 km/h (3 Bft) 100,00 %
14.11.2015 15:15 10,3 C 66 % 1026,6 hPa 0,0 l/m 10,8 km/h (2 Bft) W 272 1 min 0,000 mm 0,0 UV-I 98 W/m 4,2 C 7,5 C 17,7 km/h (3 Bft) 100,00 %
14.11.2015 15:16 10,3 C 66 % 1026,6 hPa 0,0 l/m 14,5 km/h (3 Bft) W 273 1 min 0,000 mm 0,0 UV-I 97 W/m 4,2 C 5,7 C 22,5 km/h (4 Bft) 100,00 %
14.11.2015 15:17 10,3 C 66 % 1026,6 hPa 0,0 l/m 7,2 km/h (2 Bft) W 279 1 min 0,000 mm 0,0 UV-I 94 W/m 4,2 C 9,7 C 12,9 km/h (3 Bft) 100,00 %
14.11.2015 15:18 10,3 C 66 % 1026,7 hPa 0,0 l/m 8,5 km/h (2 Bft) W-NW 290 1 min 0,000 mm 0,0 UV-I 92 W/m 4,2 C 8,8 C 14,5 km/h (3 Bft) 95,83 %
14.11.2015 15:19 10,3 C 66 % 1026,7 hPa 0,0 l/m 13,2 km/h (3 Bft) N-NW 330 1 min 0,000 mm 0,0 UV-I 90 W/m 4,2 C 6,3 C 20,9 km/h (4 Bft) 100,00 %
14.11.2015 15:20 10,3 C 66 % 1026,7 hPa 0,0 l/m 8,9 km/h (2 Bft) W 281 1 min 0,000 mm 0,0 UV-I 83 W/m 4,2 C 8,6 C 16,1 km/h (3 Bft) 96,30 %
14.11.2015 15:21 10,3 C 66 % 1026,7 hPa 0,0 l/m 9,1 km/h (2 Bft) SW 235 0 min 0,000 mm 0,0 UV-I 74 W/m 4,2 C 8,5 C 12,9 km/h (3 Bft) 100,00 %
14.11.2015 15:22 10,2 C 67 % 1026,7 hPa 0,0 l/m 6,1 km/h (2 Bft) W-SW 246 1 min 0,000 mm 0,0 UV-I 83 W/m 4,4 C 10,2 C 8,0 km/h (2 Bft) 100,00 %
14.11.2015 15:23 10,2 C 67 % 1026,8 hPa 0,0 l/m 6,8 km/h (2 Bft) W-NW 293 1 min 0,000 mm 0,0 UV-I 82 W/m 4,4 C 9,9 C 12,9 km/h (3 Bft) 100,00 %
14.11.2015 15:24 10,2 C 67 % 1026,7 hPa 0,0 l/m 11,3 km/h (2 Bft) W-NW 288 1 min 0,000 mm 0,0 UV-I 80 W/m 4,4 C 7,1 C 17,7 km/h (3 Bft) 100,00 %
14.11.2015 15:25 10,2 C 67 % 1026,7 hPa 0,0 l/m 7,8 km/h (2 Bft) W 276 1 min 0,000 mm 0,0 UV-I 79 W/m 4,4 C 9,2 C 11,3 km/h (2 Bft) 100,00 %
14.11.2015 15:26 10,2 C 67 % 1026,8 hPa 0,0 l/m 12,3 km/h (3 Bft) W 261 1 min 0,000 mm 0,0 UV-I 77 W/m 4,4 C 6,6 C 17,7 km/h (3 Bft) 96,30 %
14.11.2015 15:27 10,1 C 67 % 1026,7 hPa 0,0 l/m 8,8 km/h (2 Bft) W-SW 257 0 min 0,000 mm 0,0 UV-I 74 W/m 4,3 C 8,4 C 14,5 km/h (3 Bft) 100,00 %
14.11.2015 15:28 10,1 C 66 % 1026,6 hPa 0,0 l/m 10,1 km/h (2 Bft) W 264 0 min 0,000 mm 0,0 UV-I 70 W/m 4,0 C 7,6 C 17,7 km/h (3 Bft) 100,00 %
14.11.2015 15:29 10,1 C 66 % 1026,6 hPa 0,0 l/m 11,5 km/h (2 Bft) W-NW 282 0 min 0,000 mm 0,0 UV-I 70 W/m 4,0 C 6,9 C 17,7 km/h (3 Bft) 100,00 %
14.11.2015 15:30 10,1 C 67 % 1026,6 hPa 0,0 l/m 6,4 km/h (2 Bft) W 260 0 min 0,000 mm 0,0 UV-I 68 W/m 4,3 C 10,1 C 11,3 km/h (2 Bft) 100,00 %
14.11.2015 15:31 10,1 C 67 % 1026,6 hPa 0,0 l/m 6,0 km/h (2 Bft) W-NW 282 0 min 0,000 mm 0,0 UV-I 67 W/m 4,3 C 10,1 C 9,7 km/h (2 Bft) 100,00 %
14.11.2015 15:32 10,1 C 67 % 1026,5 hPa 0,0 l/m 7,3 km/h (2 Bft) SW 233 0 min 0,000 mm 0,0 UV-I 66 W/m 4,3 C 9,4 C 12,9 km/h (3 Bft) 100,00 %
14.11.2015 15:33 10,1 C 67 % 1026,6 hPa 0,0 l/m 5,7 km/h (1 Bft) W 265 0 min 0,000 mm 0,0 UV-I 63 W/m 4,3 C 10,1 C 11,3 km/h (2 Bft) 100,00 %
14.11.2015 15:34 10,1 C 67 % 1026,6 hPa 0,0 l/m 10,6 km/h (2 Bft) W-NW 289 0 min 0,000 mm 0,0 UV-I 62 W/m 4,3 C 7,4 C 14,5 km/h (3 Bft) 100,00 %
14.11.2015 15:35 10,1 C 66 % 1026,6 hPa 0,0 l/m 13,2 km/h (3 Bft) W 273 0 min 0,000 mm 0,0 UV-I 61 W/m 4,0 C 6,0 C 19,3 km/h (3 Bft) 100,00 %
14.11.2015 15:36 10,0 C 66 % 1026,6 hPa 0,0 l/m 11,1 km/h (2 Bft) W 267 0 min 0,000 mm 0,0 UV-I 59 W/m 3,9 C 7,0 C 17,7 km/h (3 Bft) 91,30 %
14.11.2015 15:37 10,0 C 66 % 1026,6 hPa 0,0 l/m 6,8 km/h (2 Bft) W-SW 249 0 min 0,000 mm 0,0 UV-I 58 W/m 3,9 C 9,7 C 11,3 km/h (2 Bft) 100,00 %
14.11.2015 15:38 10,0 C 66 % 1026,6 hPa 0,0 l/m 8,6 km/h (2 Bft) W 279 0 min 0,000 mm 0,0 UV-I 56 W/m 3,9 C 8,5 C 11,3 km/h (2 Bft) 100,00 %
14.11.2015 15:39 9,9 C 67 % 1026,6 hPa 0,0 l/m 10,1 km/h (2 Bft) W 267 0 min 0,000 mm 0,0 UV-I 56 W/m 4,1 C 7,4 C 16,1 km/h (3 Bft) 100,00 %
14.11.2015 15:40 9,9 C 66 % 1026,5 hPa 0,0 l/m 13,5 km/h (3 Bft) W 261 0 min 0,000 mm 0,0 UV-I 51 W/m 3,9 C 5,7 C 20,9 km/h (4 Bft) 100,00 %
14.11.2015 15:41 9,9 C 66 % 1026,5 hPa 0,0 l/m 10,1 km/h (2 Bft) W 269 0 min 0,000 mm 0,0 UV-I 53 W/m 3,9 C 7,4 C 17,7 km/h (3 Bft) 100,00 %
14.11.2015 15:42 9,9 C 66 % 1026,5 hPa 0,0 l/m 7,5 km/h (2 Bft) SW 229 0 min 0,000 mm 0,0 UV-I 51 W/m 3,9 C 9,1 C 11,3 km/h (2 Bft) 100,00 %
14.11.2015 15:43 9,9 C 67 % 1026,5 hPa 0,0 l/m 10,0 km/h (2 Bft) W 275 0 min 0,000 mm 0,0 UV-I 41 W/m 4,1 C 7,5 C 14,5 km/h (3 Bft) 100,00 %
14.11.2015 15:44 9,9 C 67 % 1026,5 hPa 0,0 l/m 8,2 km/h (2 Bft) S-SW 213 0 min 0,000 mm 0,0 UV-I 36 W/m 4,1 C 8,6 C 11,3 km/h (2 Bft) 100,00 %
14.11.2015 15:45 9,9 C 67 % 1026,5 hPa 0,0 l/m 11,3 km/h (2 Bft) W-SW 254 0 min 0,000 mm 0,0 UV-I 30 W/m 4,1 C 6,8 C 16,1 km/h (3 Bft) 100,00 %
14.11.2015 15:46 9,8 C 67 % 1026,5 hPa 0,0 l/m 8,3 km/h (2 Bft) W 275 0 min 0,000 mm 0,0 UV-I 32 W/m 4,0 C 8,4 C 12,9 km/h (3 Bft) 100,00 %
14.11.2015 15:47 9,8 C 68 % 1026,5 hPa 0,0 l/m 6,6 km/h (2 Bft) SW 214 0 min 0,000 mm 0,0 UV-I 39 W/m 4,2 C 9,7 C 9,7 km/h (2 Bft) 100,00 %
14.11.2015 15:48 9,7 C 68 % 1026,5 hPa 0,0 l/m 7,8 km/h (2 Bft) W-SW 258 0 min 0,000 mm 0,0 UV-I 39 W/m 4,1 C 8,7 C 16,1 km/h (3 Bft) 100,00 %
14.11.2015 15:49 9,7 C 68 % 1026,6 hPa 0,0 l/m 8,4 km/h (2 Bft) S-SW 193 0 min 0,000 mm 0,0 UV-I 38 W/m 4,1 C 8,3 C 12,9 km/h (3 Bft) 100,00 %
14.11.2015 15:50 9,7 C 68 % 1026,5 hPa 0,0 l/m 7,0 km/h (2 Bft) W 277 0 min 0,000 mm 0,0 UV-I 36 W/m 4,1 C 9,3 C 11,3 km/h (2 Bft) 100,00 %
14.11.2015 15:51 9,7 C 68 % 1026,5 hPa 0,0 l/m 9,9 km/h (2 Bft) W-NW 286 0 min 0,000 mm 0,0 UV-I 33 W/m 4,1 C 7,3 C 17,7 km/h (3 Bft) 100,00 %
14.11.2015 15:52 9,6 C 67 % 1026,4 hPa 0,0 l/m 9,7 km/h (2 Bft) W 265 0 min 0,000 mm 0,0 UV-I 34 W/m 3,8 C 7,3 C 17,7 km/h (3 Bft) 100,00 %
14.11.2015 15:53 9,6 C 67 % 1026,5 hPa 0,0 l/m 7,8 km/h (2 Bft) W 259 0 min 0,000 mm 0,0 UV-I 33 W/m 3,8 C 8,6 C 11,3 km/h (2 Bft) 94,74 %
14.11.2015 15:54 9,6 C 68 % 1026,5 hPa 0,0 l/m 6,0 km/h (2 Bft) W-NW 286 0 min 0,000 mm 0,0 UV-I 32 W/m 4,0 C 9,6 C 12,9 km/h (3 Bft) 100,00 %
14.11.2015 15:55 9,6 C 67 % 1026,5 hPa 0,0 l/m 11,5 km/h (2 Bft) W-SW 242 0 min 0,000 mm 0,0 UV-I 31 W/m 3,8 C 6,3 C 17,7 km/h (3 Bft) 95,65 %
14.11.2015 15:56 9,6 C 68 % 1026,5 hPa 0,0 l/m 6,9 km/h (2 Bft) W-SW 255 0 min 0,000 mm 0,0 UV-I 27 W/m 4,0 C 9,2 C 11,3 km/h (2 Bft) 100,00 %
14.11.2015 15:57 9,5 C 67 % 1026,5 hPa 0,0 l/m 12,6 km/h (3 Bft) W 274 0 min 0,000 mm 0,0 UV-I 23 W/m 3,7 C 5,6 C 17,7 km/h (3 Bft) 100,00 %
14.11.2015 15:58 9,5 C 67 % 1026,5 hPa 0,0 l/m 8,8 km/h (2 Bft) W-NW 286 0 min 0,000 mm 0,0 UV-I 20 W/m 3,7 C 7,8 C 14,5 km/h (3 Bft) 95,83 %
14.11.2015 15:59 9,4 C 67 % 1026,5 hPa 0,0 l/m 9,8 km/h (2 Bft) W-SW 250 0 min 0,000 mm 0,0 UV-I 19 W/m 3,6 C 7,1 C 14,5 km/h (3 Bft) 100,00 %
14.11.2015 16:00 9,5 C 67 % 1026,5 hPa 0,0 l/m 8,9 km/h (2 Bft) W 274 0 min 0,000 mm 0,0 UV-I 19 W/m 3,7 C 7,7 C 12,9 km/h (3 Bft) 100,00 %
14.11.2015 16:01 9,4 C 67 % 1026,5 hPa 0,0 l/m 5,9 km/h (2 Bft) S-SW 208 0 min 0,076 mm 0,0 UV-I 19 W/m 3,6 C 9,4 C 11,3 km/h (2 Bft) 95,65 %
14.11.2015 16:02 9,4 C 67 % 1026,5 hPa 0,0 l/m 6,6 km/h (2 Bft) W-NW 285 0 min 0,000 mm 0,0 UV-I 19 W/m 3,6 C 9,3 C 11,3 km/h (2 Bft) 100,00 %
14.11.2015 16:03 9,3 C 67 % 1026,5 hPa 0,0 l/m 9,0 km/h (2 Bft) W-SW 240 0 min 0,000 mm 0,0 UV-I 19 W/m 3,5 C 7,4 C 14,5 km/h (3 Bft) 100,00 %
14.11.2015 16:04 9,3 C 67 % 1026,6 hPa 0,0 l/m 8,5 km/h (2 Bft) W-SW 253 0 min 0,000 mm 0,0 UV-I 18 W/m 3,5 C 7,8 C 16,1 km/h (3 Bft) 100,00 %
14.11.2015 16:05 9,3 C 66 % 1026,6 hPa 0,0 l/m 8,8 km/h (2 Bft) W-SW 253 0 min 0,000 mm 0,0 UV-I 18 W/m 3,3 C 7,6 C 12,9 km/h (3 Bft) 100,00 %
14.11.2015 16:06 9,3 C 66 % 1026,6 hPa 0,0 l/m 9,3 km/h (2 Bft) W 280 0 min 0,000 mm 0,0 UV-I 18 W/m 3,3 C 7,3 C 14,5 km/h (3 Bft) 100,00 %
14.11.2015 16:07 9,3 C 67 % 1026,6 hPa 0,0 l/m 7,5 km/h (2 Bft) W-NW 299 0 min 0,000 mm 0,0 UV-I 17 W/m 3,5 C 8,5 C 12,9 km/h (3 Bft) 100,00 %
14.11.2015 16:08 9,2 C 67 % 1026,6 hPa 0,0 l/m 8,0 km/h (2 Bft) W 265 0 min 0,000 mm 0,0 UV-I 14 W/m 3,4 C 8,0 C 12,9 km/h (3 Bft) 100,00 %
14.11.2015 16:09 9,2 C 67 % 1026,7 hPa 0,0 l/m 5,4 km/h (1 Bft) SW 236 0 min 0,000 mm 0,0 UV-I 14 W/m 3,4 C 9,2 C 8,0 km/h (2 Bft) 100,00 %
14.11.2015 16:10 9,2 C 66 % 1026,7 hPa 0,0 l/m 7,0 km/h (2 Bft) W 268 0 min 0,000 mm 0,0 UV-I 12 W/m 3,2 C 8,8 C 12,9 km/h (3 Bft) 100,00 %
14.11.2015 16:11 9,2 C 66 % 1026,7 hPa 0,0 l/m 6,3 km/h (2 Bft) W-SW 240 0 min 0,000 mm 0,0 UV-I 12 W/m 3,2 C 9,2 C 9,7 km/h (2 Bft) 100,00 %
14.11.2015 16:12 9,1 C 66 % 1026,7 hPa 0,0 l/m 9,2 km/h (2 Bft) W 269 0 min 0,000 mm 0,0 UV-I 11 W/m 3,1 C 7,1 C 11,3 km/h (2 Bft) 100,00 %
14.11.2015 16:13 9,1 C 65 % 1026,7 hPa 0,0 l/m 10,5 km/h (2 Bft) W-NW 296 0 min 0,000 mm 0,0 UV-I 11 W/m 2,9 C 6,3 C 14,5 km/h (3 Bft) 100,00 %
14.11.2015 16:14 9,1 C 65 % 1026,7 hPa 0,0 l/m 10,2 km/h (2 Bft) W-NW 286 0 min 0,000 mm 0,0 UV-I 11 W/m 2,9 C 6,5 C 12,9 km/h (3 Bft) 100,00 %
14.11.2015 16:15 9,1 C 65 % 1026,8 hPa 0,0 l/m 6,0 km/h (2 Bft) W 272 1 min 0,000 mm 0,0 UV-I 11 W/m 2,9 C 9,1 C 11,3 km/h (2 Bft) 100,00 %
14.11.2015 16:16 9,1 C 65 % 1026,8 hPa 0,0 l/m 12,3 km/h (3 Bft) W-NW 290 1 min 0,000 mm 0,0 UV-I 9 W/m 2,9 C 5,3 C 16,1 km/h (3 Bft) 100,00 %
14.11.2015 16:17 9,1 C 65 % 1026,8 hPa 0,0 l/m 6,2 km/h (2 Bft) S-SW 192 0 min 0,000 mm 0,0 UV-I 9 W/m 2,9 C 9,1 C 11,3 km/h (2 Bft) 100,00 %
14.11.2015 16:18 9,1 C 65 % 1026,8 hPa 0,0 l/m 6,3 km/h (2 Bft) W 271 0 min 0,000 mm 0,0 UV-I 9 W/m 2,9 C 9,1 C 9,7 km/h (2 Bft) 100,00 %
14.11.2015 16:19 9,0 C 64 % 1026,8 hPa 0,0 l/m 8,8 km/h (2 Bft) W-SW 244 0 min 0,000 mm 0,0 UV-I 8 W/m 2,6 C 7,3 C 16,1 km/h (3 Bft) 100,00 %
14.11.2015 16:20 9,0 C 65 % 1026,8 hPa 0,0 l/m 7,9 km/h (2 Bft) W-SW 245 0 min 0,000 mm 0,0 UV-I 7 W/m 2,8 C 7,9 C 11,3 km/h (2 Bft) 92,86 %
14.11.2015 16:21 8,9 C 64 % 1026,8 hPa 0,0 l/m 7,2 km/h (2 Bft) W 260 0 min 0,000 mm 0,0 UV-I 7 W/m 2,5 C 8,3 C 11,3 km/h (2 Bft) 100,00 %
14.11.2015 16:22 8,9 C 64 % 1026,8 hPa 0,0 l/m 7,9 km/h (2 Bft) W 266 0 min 0,000 mm 0,0 UV-I 6 W/m 2,5 C 7,8 C 12,9 km/h (3 Bft) 99,38 %
14.11.2015 16:23 8,9 C 64 % 1026,8 hPa 0,0 l/m 6,8 km/h (2 Bft) W 265 0 min 0,000 mm 0,0 UV-I 5 W/m 2,5 C 8,6 C 9,7 km/h (2 Bft) 100,00 %
14.11.2015 16:24 8,9 C 64 % 1026,7 hPa 0,0 l/m 7,5 km/h (2 Bft) W 276 0 min 0,000 mm 0,0 UV-I 5 W/m 2,5 C 8,1 C 11,3 km/h (2 Bft) 100,00 %
14.11.2015 16:25 8,8 C 64 % 1026,8 hPa 0,0 l/m 5,5 km/h (1 Bft) W 268 0 min 0,000 mm 0,0 UV-I 5 W/m 2,4 C 8,8 C 11,3 km/h (2 Bft) 100,00 %
14.11.2015 16:26 8,8 C 64 % 1026,8 hPa 0,0 l/m 8,1 km/h (2 Bft) W 264 0 min 0,000 mm 0,0 UV-I 5 W/m 2,4 C 7,5 C 12,9 km/h (3 Bft) 100,00 %
14.11.2015 16:27 8,8 C 64 % 1026,8 hPa 0,0 l/m 6,3 km/h (2 Bft) W-SW 242 0 min 0,000 mm 0,0 UV-I 5 W/m 2,4 C 8,8 C 9,7 km/h (2 Bft) 100,00 %
14.11.2015 16:28 8,8 C 64 % 1026,8 hPa 0,0 l/m 6,2 km/h (2 Bft) W 270 0 min 0,000 mm 0,0 UV-I 4 W/m 2,4 C 8,8 C 9,7 km/h (2 Bft) 100,00 %
14.11.2015 16:29 8,8 C 64 % 1026,7 hPa 0,0 l/m 7,7 km/h (2 Bft) W 270 0 min 0,000 mm 0,0 UV-I 0 W/m 2,4 C 7,8 C 12,9 km/h (3 Bft) 100,00 %
14.11.2015 16:30 8,7 C 64 % 1026,8 hPa 0,0 l/m 8,0 km/h (2 Bft) W 277 0 min 0,000 mm 0,0 UV-I 0 W/m 2,3 C 7,5 C 12,9 km/h (3 Bft) 100,00 %
14.11.2015 16:31 8,7 C 64 % 1026,7 hPa 0,0 l/m 5,7 km/h (1 Bft) W 267 0 min 0,000 mm 0,0 UV-I 0 W/m 2,3 C 8,7 C 9,7 km/h (2 Bft) 92,86 %
14.11.2015 16:32 8,7 C 64 % 1026,8 hPa 0,0 l/m 5,1 km/h (1 Bft) W-NW 284 0 min 0,000 mm 0,0 UV-I 0 W/m 2,3 C 8,7 C 8,0 km/h (2 Bft) 100,00 %
14.11.2015 16:33 8,7 C 64 % 1026,7 hPa 0,0 l/m 9,2 km/h (2 Bft) W 269 0 min 0,000 mm 0,0 UV-I 0 W/m 2,3 C 6,7 C 14,5 km/h (3 Bft) 100,00 %
14.11.2015 16:34 8,6 C 64 % 1026,8 hPa 0,0 l/m 6,4 km/h (2 Bft) W 269 0 min 0,000 mm 0,0 UV-I 0 W/m 2,2 C 8,6 C 11,3 km/h (2 Bft) 100,00 %
14.11.2015 16:35 8,6 C 64 % 1026,8 hPa 0,0 l/m 6,6 km/h (2 Bft) W 271 0 min 0,000 mm 0,0 UV-I 0 W/m 2,2 C 8,5 C 11,3 km/h (2 Bft) 100,00 %
14.11.2015 16:36 8,6 C 64 % 1026,8 hPa 0,0 l/m 5,4 km/h (1 Bft) W 264 0 min 0,000 mm 0,0 UV-I 0 W/m 2,2 C 8,6 C 9,7 km/h (2 Bft) 100,00 %
14.11.2015 16:37 8,6 C 64 % 1026,9 hPa 0,0 l/m 5,1 km/h (1 Bft) W-NW 286 0 min 0,000 mm 0,0 UV-I 0 W/m 2,2 C 8,6 C 8,0 km/h (2 Bft) 96,15 %
14.11.2015 16:38 8,6 C 64 % 1026,9 hPa 0,0 l/m 7,4 km/h (2 Bft) W 276 0 min 0,000 mm 0,0 UV-I 0 W/m 2,2 C 7,8 C 12,9 km/h (3 Bft) 100,00 %
14.11.2015 16:39 8,6 C 64 % 1026,9 hPa 0,0 l/m 5,1 km/h (1 Bft) W 278 0 min 0,000 mm 0,0 UV-I 0 W/m 2,2 C 8,6 C 9,7 km/h (2 Bft) 100,00 %
14.11.2015 16:40 8,6 C 64 % 1026,9 hPa 0,0 l/m 5,0 km/h (1 Bft) SW 223 0 min 0,000 mm 0,0 UV-I 0 W/m 2,2 C 8,6 C 9,7 km/h (2 Bft) 100,00 %
14.11.2015 16:41 8,5 C 64 % 1026,9 hPa 0,0 l/m 5,8 km/h (2 Bft) SW 219 0 min 0,000 mm 0,0 UV-I 0 W/m 2,1 C 8,5 C 9,7 km/h (2 Bft) 99,38 %
14.11.2015 16:42 8,5 C 65 % 1026,9 hPa 0,0 l/m 5,0 km/h (1 Bft) W-SW 250 0 min 0,000 mm 0,0 UV-I 0 W/m 2,3 C 8,5 C 9,7 km/h (2 Bft) 97,37 %
14.11.2015 16:43 8,4 C 65 % 1026,9 hPa 0,0 l/m 5,7 km/h (1 Bft) W-SW 241 0 min 0,000 mm 0,0 UV-I 0 W/m 2,2 C 8,4 C 8,0 km/h (2 Bft) 100,00 %
14.11.2015 16:44 8,4 C 65 % 1026,9 hPa 0,0 l/m 5,3 km/h (1 Bft) W-SW 248 0 min 0,000 mm 0,0 UV-I 0 W/m 2,2 C 8,4 C 9,7 km/h (2 Bft) 100,00 %
14.11.2015 16:45 8,4 C 65 % 1027,0 hPa 0,0 l/m 6,5 km/h (2 Bft) W 278 0 min 0,000 mm 0,0 UV-I 0 W/m 2,2 C 8,3 C 9,7 km/h (2 Bft) 100,00 %
14.11.2015 16:46 8,4 C 65 % 1026,9 hPa 0,0 l/m 4,8 km/h (1 Bft) W 276 0 min 0,000 mm 0,0 UV-I 0 W/m 2,2 C 8,4 C 6,4 km/h (2 Bft) 96,30 %
14.11.2015 16:47 8,3 C 65 % 1026,9 hPa 0,0 l/m 3,3 km/h (1 Bft) W-SW 255 0 min 0,000 mm 0,0 UV-I 0 W/m 2,1 C 8,3 C 6,4 km/h (2 Bft) 100,00 %
14.11.2015 16:48 8,3 C 65 % 1026,9 hPa 0,0 l/m 4,8 km/h (1 Bft) W-SW 257 0 min 0,000 mm 0,0 UV-I 0 W/m 2,1 C 8,3 C 8,0 km/h (2 Bft) 100,00 %
14.11.2015 16:49 8,3 C 66 % 1026,8 hPa 0,0 l/m 3,8 km/h (1 Bft) W-SW 239 0 min 0,000 mm 0,0 UV-I 0 W/m 2,3 C 8,3 C 6,4 km/h (2 Bft) 100,00 %
14.11.2015 16:50 8,2 C 66 % 1026,9 hPa 0,0 l/m 4,3 km/h (1 Bft) S-SW 211 0 min 0,000 mm 0,0 UV-I 0 W/m 2,2 C 8,2 C 6,4 km/h (2 Bft) 100,00 %
14.11.2015 16:51 8,2 C 66 % 1026,9 hPa 0,0 l/m 3,5 km/h (1 Bft) SW 231 0 min 0,000 mm 0,0 UV-I 0 W/m 2,2 C 8,2 C 8,0 km/h (2 Bft) 100,00 %
14.11.2015 16:52 8,1 C 66 % 1026,9 hPa 0,0 l/m 2,9 km/h (1 Bft) W-SW 248 0 min 0,000 mm 0,0 UV-I 0 W/m 2,1 C 8,1 C 4,8 km/h (1 Bft) 96,55 %
14.11.2015 16:53 8,1 C 67 % 1026,9 hPa 0,0 l/m 2,5 km/h (1 Bft) W-SW 238 0 min 0,000 mm 0,0 UV-I 0 W/m 2,3 C 8,1 C 4,8 km/h (1 Bft) 95,83 %
14.11.2015 16:54 8,0 C 67 % 1026,9 hPa 0,0 l/m 4,4 km/h (1 Bft) W-NW 284 0 min 0,000 mm 0,0 UV-I 0 W/m 2,3 C 8,0 C 6,4 km/h (2 Bft) 100,00 %
14.11.2015 16:55 7,9 C 67 % 1026,9 hPa 0,0 l/m 4,7 km/h (1 Bft) W-SW 237 0 min 0,000 mm 0,0 UV-I 0 W/m 2,2 C 7,9 C 6,4 km/h (2 Bft) 100,00 %
14.11.2015 16:56 7,9 C 67 % 1026,8 hPa 0,0 l/m 3,4 km/h (1 Bft) W 274 0 min 0,000 mm 0,0 UV-I 0 W/m 2,2 C 7,9 C 4,8 km/h (1 Bft) 95,65 %
14.11.2015 16:57 7,9 C 67 % 1026,9 hPa 0,0 l/m 4,4 km/h (1 Bft) W-SW 242 0 min 0,000 mm 0,0 UV-I 0 W/m 2,2 C 7,9 C 6,4 km/h (2 Bft) 100,00 %
14.11.2015 16:58 7,8 C 68 % 1026,8 hPa 0,0 l/m 2,9 km/h (1 Bft) W-SW 238 0 min 0,000 mm 0,0 UV-I 0 W/m 2,3 C 7,8 C 4,8 km/h (1 Bft) 100,00 %
14.11.2015 16:59 7,8 C 68 % 1026,8 hPa 0,0 l/m 4,4 km/h (1 Bft) SW 234 0 min 0,000 mm 0,0 UV-I 0 W/m 2,3 C 7,8 C 8,0 km/h (2 Bft) 100,00 %
14.11.2015 17:00 7,8 C 68 % 1026,9 hPa 0,0 l/m 4,6 km/h (1 Bft) W 271 0 min 0,000 mm 0,0 UV-I 0 W/m 2,3 C 7,8 C 6,4 km/h (2 Bft) 100,00 %
14.11.2015 17:01 7,8 C 68 % 1026,8 hPa 0,0 l/m 4,7 km/h (1 Bft) W 268 0 min 0,025 mm 0,0 UV-I 0 W/m 2,3 C 7,8 C 6,4 km/h (2 Bft) 96,30 %
14.11.2015 17:02 7,7 C 68 % 1026,8 hPa 0,0 l/m 4,2 km/h (1 Bft) W-SW 252 0 min 0,001 mm 0,0 UV-I 0 W/m 2,2 C 7,7 C 6,4 km/h (2 Bft) 100,00 %
14.11.2015 17:03 7,7 C 69 % 1026,8 hPa 0,0 l/m 3,0 km/h (1 Bft) W 263 0 min 0,000 mm 0,0 UV-I 0 W/m 2,4 C 7,7 C 6,4 km/h (2 Bft) 100,00 %
14.11.2015 17:04 7,7 C 69 % 1026,8 hPa 0,0 l/m 3,5 km/h (1 Bft) SW 222 0 min 0,000 mm 0,0 UV-I 0 W/m 2,4 C 7,7 C 4,8 km/h (1 Bft) 100,00 %
14.11.2015 17:05 7,6 C 70 % 1026,9 hPa 0,0 l/m 3,8 km/h (1 Bft) W-NW 288 0 min 0,000 mm 0,0 UV-I 0 W/m 2,5 C 7,6 C 6,4 km/h (2 Bft) 95,83 %
14.11.2015 17:06 7,6 C 70 % 1026,8 hPa 0,0 l/m 3,4 km/h (1 Bft) SW 219 0 min 0,000 mm 0,0 UV-I 0 W/m 2,5 C 7,6 C 6,4 km/h (2 Bft) 100,00 %
14.11.2015 17:07 7,5 C 70 % 1026,9 hPa 0,0 l/m 3,0 km/h (1 Bft) SW 217 0 min 0,000 mm 0,0 UV-I 0 W/m 2,4 C 7,5 C 4,8 km/h (1 Bft) 100,00 %
14.11.2015 17:08 7,5 C 70 % 1026,9 hPa 0,0 l/m 4,4 km/h (1 Bft) W 277 0 min 0,000 mm 0,0 UV-I 0 W/m 2,4 C 7,5 C 6,4 km/h (2 Bft) 100,00 %
14.11.2015 17:09 7,4 C 71 % 1026,8 hPa 0,0 l/m 4,4 km/h (1 Bft) W-SW 244 0 min 0,000 mm 0,0 UV-I 0 W/m 2,5 C 7,4 C 6,4 km/h (2 Bft) 100,00 %
14.11.2015 17:10 7,4 C 71 % 1026,9 hPa 0,0 l/m 4,2 km/h (1 Bft) SW 219 0 min 0,000 mm 0,0 UV-I 0 W/m 2,5 C 7,4 C 6,4 km/h (2 Bft) 100,00 %
14.11.2015 17:11 7,4 C 71 % 1026,9 hPa 0,0 l/m 4,0 km/h (1 Bft) W 270 0 min 0,000 mm 0,0 UV-I 0 W/m 2,5 C 7,4 C 6,4 km/h (2 Bft) 100,00 %
14.11.2015 17:12 7,4 C 71 % 1026,8 hPa 0,0 l/m 5,0 km/h (1 Bft) W 281 0 min 0,000 mm 0,0 UV-I 0 W/m 2,5 C 7,4 C 6,4 km/h (2 Bft) 100,00 %
14.11.2015 17:13 7,4 C 71 % 1026,8 hPa 0,0 l/m 4,7 km/h (1 Bft) W-NW 285 0 min 0,000 mm 0,0 UV-I 0 W/m 2,5 C 7,4 C 6,4 km/h (2 Bft) 100,00 %
14.11.2015 17:14 7,4 C 71 % 1026,8 hPa 0,0 l/m 5,3 km/h (1 Bft) W-SW 254 0 min 0,000 mm 0,0 UV-I 0 W/m 2,5 C 7,4 C 9,7 km/h (2 Bft) 100,00 %
14.11.2015 17:15 7,4 C 71 % 1026,8 hPa 0,0 l/m 3,6 km/h (1 Bft) SW 224 0 min 0,000 mm 0,0 UV-I 0 W/m 2,5 C 7,4 C 4,8 km/h (1 Bft) 95,65 %
14.11.2015 17:16 7,4 C 71 % 1026,8 hPa 0,0 l/m 5,2 km/h (1 Bft) W-NW 284 0 min 0,000 mm 0,0 UV-I 0 W/m 2,5 C 7,4 C 8,0 km/h (2 Bft) 100,00 %
14.11.2015 17:17 7,4 C 71 % 1026,8 hPa 0,0 l/m 4,9 km/h (1 Bft) W-SW 238 0 min 0,000 mm 0,0 UV-I 0 W/m 2,5 C 7,4 C 6,4 km/h (2 Bft) 100,00 %
14.11.2015 17:18 7,4 C 72 % 1026,9 hPa 0,0 l/m 4,3 km/h (1 Bft) W-NW 289 0 min 0,000 mm 0,0 UV-I 0 W/m 2,7 C 7,4 C 6,4 km/h (2 Bft) 100,00 %
14.11.2015 17:19 7,4 C 71 % 1026,8 hPa 0,0 l/m 5,7 km/h (1 Bft) W-SW 252 0 min 0,000 mm 0,0 UV-I 0 W/m 2,5 C 7,4 C 9,7 km/h (2 Bft) 100,00 %
14.11.2015 17:20 7,4 C 71 % 1026,9 hPa 0,0 l/m 4,0 km/h (1 Bft) W-SW 249 0 min 0,000 mm 0,0 UV-I 0 W/m 2,5 C 7,4 C 6,4 km/h (2 Bft) 100,00 %
14.11.2015 17:21 7,4 C 71 % 1026,9 hPa 0,0 l/m 6,5 km/h (2 Bft) W-NW 290 0 min 0,000 mm 0,0 UV-I 0 W/m 2,5 C 7,3 C 11,3 km/h (2 Bft) 100,00 %
14.11.2015 17:22 7,5 C 71 % 1026,9 hPa 0,0 l/m 5,4 km/h (1 Bft) W 275 0 min 0,000 mm 0,0 UV-I 0 W/m 2,6 C 7,5 C 11,3 km/h (2 Bft) 100,00 %
14.11.2015 17:23 7,5 C 71 % 1026,8 hPa 0,0 l/m 4,0 km/h (1 Bft) W 279 0 min 0,000 mm 0,0 UV-I 0 W/m 2,6 C 7,5 C 6,4 km/h (2 Bft) 100,00 %
14.11.2015 17:24 7,5 C 71 % 1026,8 hPa 0,0 l/m 4,8 km/h (1 Bft) W-SW 238 0 min 0,000 mm 0,0 UV-I 0 W/m 2,6 C 7,5 C 6,4 km/h (2 Bft) 95,83 %
14.11.2015 17:25 7,6 C 71 % 1026,8 hPa 0,0 l/m 3,4 km/h (1 Bft) W-SW 246 0 min 0,000 mm 0,0 UV-I 0 W/m 2,7 C 7,6 C 4,8 km/h (1 Bft) 100,00 %
14.11.2015 17:26 7,6 C 71 % 1026,9 hPa 0,0 l/m 5,1 km/h (1 Bft) W-SW 238 0 min 0,000 mm 0,0 UV-I 0 W/m 2,7 C 7,6 C 8,0 km/h (2 Bft) 97,56 %
14.11.2015 17:27 7,6 C 71 % 1026,8 hPa 0,0 l/m 4,0 km/h (1 Bft) W 261 0 min 0,000 mm 0,0 UV-I 0 W/m 2,7 C 7,6 C 6,4 km/h (2 Bft) 100,00 %
14.11.2015 17:28 7,6 C 71 % 1026,8 hPa 0,0 l/m 4,8 km/h (1 Bft) SW 219 0 min 0,000 mm 0,0 UV-I 0 W/m 2,7 C 7,6 C 9,7 km/h (2 Bft) 100,00 %
14.11.2015 17:29 7,6 C 71 % 1026,8 hPa 0,0 l/m 3,4 km/h (1 Bft) SW 226 0 min 0,000 mm 0,0 UV-I 0 W/m 2,7 C 7,6 C 6,4 km/h (2 Bft) 100,00 %
14.11.2015 17:30 7,6 C 71 % 1026,8 hPa 0,0 l/m 5,8 km/h (2 Bft) W 273 0 min 0,000 mm 0,0 UV-I 0 W/m 2,7 C 7,6 C 9,7 km/h (2 Bft) 100,00 %
14.11.2015 17:31 7,6 C 72 % 1026,8 hPa 0,0 l/m 4,1 km/h (1 Bft) W 266 0 min 0,000 mm 0,0 UV-I 0 W/m 2,9 C 7,6 C 6,4 km/h (2 Bft) 100,00 %
14.11.2015 17:32 7,6 C 72 % 1026,8 hPa 0,0 l/m 4,6 km/h (1 Bft) W 280 0 min 0,000 mm 0,0 UV-I 0 W/m 2,9 C 7,6 C 8,0 km/h (2 Bft) 100,00 %
14.11.2015 17:33 7,6 C 71 % 1026,8 hPa 0,0 l/m 4,7 km/h (1 Bft) W-SW 247 0 min 0,000 mm 0,0 UV-I 0 W/m 2,7 C 7,6 C 6,4 km/h (2 Bft) 100,00 %
14.11.2015 17:34 7,6 C 72 % 1026,9 hPa 0,0 l/m 3,7 km/h (1 Bft) W-SW 252 0 min 0,000 mm 0,0 UV-I 0 W/m 2,9 C 7,6 C 6,4 km/h (2 Bft) 100,00 %
14.11.2015 17:35 7,6 C 71 % 1026,8 hPa 0,0 l/m 5,0 km/h (1 Bft) W 271 0 min 0,000 mm 0,0 UV-I 0 W/m 2,7 C 7,6 C 6,4 km/h (2 Bft) 100,00 %
14.11.2015 17:36 7,6 C 72 % 1026,8 hPa 0,0 l/m 4,3 km/h (1 Bft) W-SW 248 0 min 0,000 mm 0,0 UV-I 0 W/m 2,9 C 7,6 C 6,4 km/h (2 Bft) 100,00 %
14.11.2015 17:37 7,6 C 72 % 1026,8 hPa 0,0 l/m 5,3 km/h (1 Bft) W-SW 241 0 min 0,000 mm 0,0 UV-I 0 W/m 2,9 C 7,6 C 11,3 km/h (2 Bft) 100,00 %
14.11.2015 17:38 7,6 C 71 % 1026,8 hPa 0,0 l/m 6,2 km/h (2 Bft) W 279 0 min 0,000 mm 0,0 UV-I 0 W/m 2,7 C 7,6 C 8,0 km/h (2 Bft) 100,00 %
14.11.2015 17:39 7,7 C 71 % 1026,8 hPa 0,0 l/m 4,5 km/h (1 Bft) W 262 0 min 0,000 mm 0,0 UV-I 0 W/m 2,8 C 7,7 C 6,4 km/h (2 Bft) 100,00 %
14.11.2015 17:40 7,7 C 71 % 1026,8 hPa 0,0 l/m 4,3 km/h (1 Bft) W 272 0 min 0,000 mm 0,0 UV-I 0 W/m 2,8 C 7,7 C 6,4 km/h (2 Bft) 100,00 %
14.11.2015 17:41 7,7 C 72 % 1026,8 hPa 0,0 l/m 4,3 km/h (1 Bft) W-SW 251 0 min 0,000 mm 0,0 UV-I 0 W/m 3,0 C 7,7 C 6,4 km/h (2 Bft) 100,00 %
14.11.2015 17:42 7,7 C 72 % 1026,8 hPa 0,0 l/m 4,5 km/h (1 Bft) W 267 0 min 0,000 mm 0,0 UV-I 0 W/m 3,0 C 7,7 C 6,4 km/h (2 Bft) 100,00 %
14.11.2015 17:43 7,7 C 72 % 1026,8 hPa 0,0 l/m 4,2 km/h (1 Bft) W-SW 255 0 min 0,000 mm 0,0 UV-I 0 W/m 3,0 C 7,7 C 6,4 km/h (2 Bft) 96,30 %
14.11.2015 17:44 7,7 C 72 % 1026,8 hPa 0,0 l/m 5,7 km/h (1 Bft) SW 230 0 min 0,000 mm 0,0 UV-I 0 W/m 3,0 C 7,7 C 9,7 km/h (2 Bft) 100,00 %
14.11.2015 17:45 7,7 C 71 % 1026,8 hPa 0,0 l/m 4,9 km/h (1 Bft) W 270 0 min 0,000 mm 0,0 UV-I 0 W/m 2,8 C 7,7 C 8,0 km/h (2 Bft) 100,00 %
14.11.2015 17:46 7,7 C 71 % 1026,8 hPa 0,0 l/m 4,9 km/h (1 Bft) W 274 0 min 0,000 mm 0,0 UV-I 0 W/m 2,8 C 7,7 C 9,7 km/h (2 Bft) 95,83 %
14.11.2015 17:47 7,7 C 71 % 1026,8 hPa 0,0 l/m 4,9 km/h (1 Bft) W-SW 249 0 min 0,000 mm 0,0 UV-I 0 W/m 2,8 C 7,7 C 9,7 km/h (2 Bft) 95,65 %
14.11.2015 17:48 7,7 C 71 % 1026,8 hPa 0,0 l/m 5,3 km/h (1 Bft) W 269 0 min 0,000 mm 0,0 UV-I 0 W/m 2,8 C 7,7 C 8,0 km/h (2 Bft) 100,00 %
14.11.2015 17:49 7,8 C 71 % 1026,8 hPa 0,0 l/m 5,4 km/h (1 Bft) W-NW 284 0 min 0,000 mm 0,0 UV-I 0 W/m 2,9 C 7,8 C 9,7 km/h (2 Bft) 100,00 %
14.11.2015 17:50 7,8 C 71 % 1026,8 hPa 0,0 l/m 7,2 km/h (2 Bft) W 265 0 min 0,000 mm 0,0 UV-I 0 W/m 2,9 C 7,2 C 9,7 km/h (2 Bft) 100,00 %
14.11.2015 17:51 7,8 C 71 % 1026,8 hPa 0,0 l/m 6,3 km/h (2 Bft) W-NW 295 0 min 0,000 mm 0,0 UV-I 0 W/m 2,9 C 7,8 C 9,7 km/h (2 Bft) 100,00 %
14.11.2015 17:52 7,8 C 71 % 1026,8 hPa 0,0 l/m 4,3 km/h (1 Bft) W 273 0 min 0,000 mm 0,0 UV-I 0 W/m 2,9 C 7,8 C 6,4 km/h (2 Bft) 100,00 %
14.11.2015 17:53 7,8 C 71 % 1026,8 hPa 0,0 l/m 4,2 km/h (1 Bft) W 269 0 min 0,000 mm 0,0 UV-I 0 W/m 2,9 C 7,8 C 8,0 km/h (2 Bft) 100,00 %
14.11.2015 17:54 7,8 C 71 % 1026,8 hPa 0,0 l/m 5,1 km/h (1 Bft) W-SW 242 0 min 0,000 mm 0,0 UV-I 0 W/m 2,9 C 7,8 C 8,0 km/h (2 Bft) 100,00 %
14.11.2015 17:55 7,8 C 71 % 1026,8 hPa 0,0 l/m 3,8 km/h (1 Bft) W 263 0 min 0,000 mm 0,0 UV-I 0 W/m 2,9 C 7,8 C 9,7 km/h (2 Bft) 100,00 %
14.11.2015 17:56 7,8 C 71 % 1026,8 hPa 0,0 l/m 3,2 km/h (1 Bft) SW 232 0 min 0,000 mm 0,0 UV-I 0 W/m 2,9 C 7,8 C 4,8 km/h (1 Bft) 100,00 %
14.11.2015 17:57 7,8 C 72 % 1026,8 hPa 0,0 l/m 4,0 km/h (1 Bft) W-SW 238 0 min 0,000 mm 0,0 UV-I 0 W/m 3,1 C 7,8 C 6,4 km/h (2 Bft) 100,00 %
14.11.2015 17:58 7,7 C 72 % 1026,8 hPa 0,0 l/m 4,7 km/h (1 Bft) W-SW 257 0 min 0,000 mm 0,0 UV-I 0 W/m 3,0 C 7,7 C 6,4 km/h (2 Bft) 100,00 %
14.11.2015 17:59 7,7 C 72 % 1026,8 hPa 0,0 l/m 5,2 km/h (1 Bft) W-SW 243 0 min 0,000 mm 0,0 UV-I 0 W/m 3,0 C 7,7 C 9,7 km/h (2 Bft) 96,15 %
14.11.2015 18:00 7,7 C 71 % 1026,8 hPa 0,0 l/m 6,5 km/h (2 Bft) S-SW 199 0 min 0,000 mm 0,0 UV-I 0 W/m 2,8 C 7,6 C 9,7 km/h (2 Bft) 100,00 %
14.11.2015 18:01 7,7 C 72 % 1026,8 hPa 0,0 l/m 6,4 km/h (2 Bft) SW 227 0 min 0,025 mm 0,0 UV-I 0 W/m 3,0 C 7,7 C 11,3 km/h (2 Bft) 100,00 %
14.11.2015 18:02 7,7 C 72 % 1026,8 hPa 0,0 l/m 6,4 km/h (2 Bft) S-SW 204 0 min 0,000 mm 0,0 UV-I 0 W/m 3,0 C 7,7 C 12,9 km/h (3 Bft) 100,00 %
14.11.2015 18:03 7,7 C 71 % 1026,7 hPa 0,0 l/m 5,2 km/h (1 Bft) SW 214 0 min 0,000 mm 0,0 UV-I 0 W/m 2,8 C 7,7 C 8,0 km/h (2 Bft) 100,00 %
14.11.2015 18:04 7,8 C 71 % 1026,7 hPa 0,0 l/m 7,6 km/h (2 Bft) W-NW 301 0 min 0,000 mm 0,0 UV-I 0 W/m 2,9 C 6,8 C 12,9 km/h (3 Bft) 95,83 %
14.11.2015 18:05 7,8 C 72 % 1026,7 hPa 0,0 l/m 6,4 km/h (2 Bft) S-SW 208 0 min 0,000 mm 0,0 UV-I 0 W/m 3,1 C 7,8 C 9,7 km/h (2 Bft) 100,00 %
14.11.2015 18:06 7,8 C 72 % 1026,8 hPa 0,0 l/m 6,2 km/h (2 Bft) S-SW 206 0 min 0,000 mm 0,0 UV-I 0 W/m 3,1 C 7,8 C 9,7 km/h (2 Bft) 100,00 %
14.11.2015 18:07 7,8 C 72 % 1026,7 hPa 0,0 l/m 5,1 km/h (1 Bft) SW 231 0 min 0,000 mm 0,0 UV-I 0 W/m 3,1 C 7,8 C 9,7 km/h (2 Bft) 100,00 %
14.11.2015 18:08 7,7 C 72 % 1026,8 hPa 0,0 l/m 4,6 km/h (1 Bft) W-NW 286 0 min 0,000 mm 0,0 UV-I 0 W/m 3,0 C 7,7 C 6,4 km/h (2 Bft) 96,15 %
14.11.2015 18:09 7,7 C 72 % 1026,7 hPa 0,0 l/m 5,3 km/h (1 Bft) SW 227 0 min 0,000 mm 0,0 UV-I 0 W/m 3,0 C 7,7 C 8,0 km/h (2 Bft) 100,00 %
14.11.2015 18:10 7,7 C 72 % 1026,8 hPa 0,0 l/m 2,7 km/h (1 Bft) W-SW 248 0 min 0,000 mm 0,0 UV-I 0 W/m 3,0 C 7,7 C 4,8 km/h (1 Bft) 100,00 %
14.11.2015 18:11 7,7 C 72 % 1026,7 hPa 0,0 l/m 6,6 km/h (2 Bft) W-SW 248 0 min 0,000 mm 0,0 UV-I 0 W/m 3,0 C 7,6 C 11,3 km/h (2 Bft) 100,00 %
14.11.2015 18:12 7,7 C 72 % 1026,7 hPa 0,0 l/m 5,6 km/h (1 Bft) W 279 0 min 0,000 mm 0,0 UV-I 0 W/m 3,0 C 7,7 C 8,0 km/h (2 Bft) 100,00 %
14.11.2015 18:13 7,7 C 72 % 1026,7 hPa 0,0 l/m 5,3 km/h (1 Bft) W-NW 284 0 min 0,000 mm 0,0 UV-I 0 W/m 3,0 C 7,7 C 9,7 km/h (2 Bft) 100,00 %
14.11.2015 18:14 7,7 C 72 % 1026,7 hPa 0,0 l/m 5,8 km/h (2 Bft) W 270 0 min 0,000 mm 0,0 UV-I 0 W/m 3,0 C 7,7 C 9,7 km/h (2 Bft) 100,00 %
14.11.2015 18:15 7,7 C 72 % 1026,8 hPa 0,0 l/m 4,5 km/h (1 Bft) W-SW 255 0 min 0,000 mm 0,0 UV-I 0 W/m 3,0 C 7,7 C 6,4 km/h (2 Bft) 100,00 %
14.11.2015 18:16 7,7 C 72 % 1026,8 hPa 0,0 l/m 5,2 km/h (1 Bft) W-SW 239 0 min 0,000 mm 0,0 UV-I 0 W/m 3,0 C 7,7 C 9,7 km/h (2 Bft) 100,00 %
14.11.2015 18:17 7,7 C 72 % 1026,8 hPa 0,0 l/m 5,9 km/h (2 Bft) W-NW 284 0 min 0,000 mm 0,0 UV-I 0 W/m 3,0 C 7,7 C 12,9 km/h (3 Bft) 100,00 %
14.11.2015 18:18 7,7 C 72 % 1026,8 hPa 0,0 l/m 4,2 km/h (1 Bft) S-SW 213 0 min 0,000 mm 0,0 UV-I 0 W/m 3,0 C 7,7 C 4,8 km/h (1 Bft) 100,00 %
14.11.2015 18:19 7,7 C 72 % 1026,8 hPa 0,0 l/m 3,1 km/h (1 Bft) W-NW 292 0 min 0,000 mm 0,0 UV-I 0 W/m 3,0 C 7,7 C 4,8 km/h (1 Bft) 100,00 %
14.11.2015 18:20 7,7 C 72 % 1026,7 hPa 0,0 l/m 4,6 km/h (1 Bft) SW 236 0 min 0,000 mm 0,0 UV-I 0 W/m 3,0 C 7,7 C 9,7 km/h (2 Bft) 96,15 %
14.11.2015 18:21 7,7 C 72 % 1026,7 hPa 0,0 l/m 4,4 km/h (1 Bft) W 276 0 min 0,000 mm 0,0 UV-I 0 W/m 3,0 C 7,7 C 6,4 km/h (2 Bft) 100,00 %
14.11.2015 18:22 7,7 C 72 % 1026,7 hPa 0,0 l/m 4,6 km/h (1 Bft) W 273 0 min 0,000 mm 0,0 UV-I 0 W/m 3,0 C 7,7 C 6,4 km/h (2 Bft) 96,15 %
14.11.2015 18:23 7,7 C 72 % 1026,7 hPa 0,0 l/m 4,0 km/h (1 Bft) W-SW 239 0 min 0,000 mm 0,0 UV-I 0 W/m 3,0 C 7,7 C 6,4 km/h (2 Bft) 100,00 %
14.11.2015 18:24 7,7 C 72 % 1026,8 hPa 0,0 l/m 4,1 km/h (1 Bft) W-NW 288 0 min 0,000 mm 0,0 UV-I 0 W/m 3,0 C 7,7 C 4,8 km/h (1 Bft) 100,00 %
14.11.2015 18:25 7,7 C 72 % 1026,8 hPa 0,0 l/m 4,1 km/h (1 Bft) SW 215 0 min 0,000 mm 0,0 UV-I 0 W/m 3,0 C 7,7 C 6,4 km/h (2 Bft) 100,00 %
14.11.2015 18:26 7,7 C 72 % 1026,7 hPa 0,0 l/m 3,8 km/h (1 Bft) W-SW 252 0 min 0,000 mm 0,0 UV-I 0 W/m 3,0 C 7,7 C 8,0 km/h (2 Bft) 100,00 %
14.11.2015 18:27 7,7 C 72 % 1026,7 hPa 0,0 l/m 6,6 km/h (2 Bft) W-SW 248 0 min 0,000 mm 0,0 UV-I 0 W/m 3,0 C 7,6 C 12,9 km/h (3 Bft) 96,15 %
14.11.2015 18:28 7,7 C 72 % 1026,7 hPa 0,0 l/m 6,2 km/h (2 Bft) W 264 0 min 0,000 mm 0,0 UV-I 0 W/m 3,0 C 7,7 C 9,7 km/h (2 Bft) 100,00 %
14.11.2015 18:29 7,7 C 72 % 1026,7 hPa 0,0 l/m 3,6 km/h (1 Bft) W-SW 239 0 min 0,000 mm 0,0 UV-I 0 W/m 3,0 C 7,7 C 4,8 km/h (1 Bft) 100,00 %
14.11.2015 18:30 7,7 C 72 % 1026,7 hPa 0,0 l/m 2,8 km/h (1 Bft) S-SW 208 0 min 0,000 mm 0,0 UV-I 0 W/m 3,0 C 7,7 C 3,2 km/h (1 Bft) 100,00 %
14.11.2015 18:31 7,7 C 72 % 1026,7 hPa 0,0 l/m 2,9 km/h (1 Bft) W-SW 248 0 min 0,000 mm 0,0 UV-I 0 W/m 3,0 C 7,7 C 4,8 km/h (1 Bft) 100,00 %
14.11.2015 18:32 7,7 C 73 % 1026,7 hPa 0,0 l/m 5,0 km/h (1 Bft) W-SW 238 0 min 0,000 mm 0,0 UV-I 0 W/m 3,2 C 7,7 C 6,4 km/h (2 Bft) 100,00 %
14.11.2015 18:33 7,7 C 72 % 1026,7 hPa 0,0 l/m 4,3 km/h (1 Bft) W-SW 244 0 min 0,000 mm 0,0 UV-I 0 W/m 3,0 C 7,7 C 9,7 km/h (2 Bft) 100,00 %
14.11.2015 18:34 7,7 C 72 % 1026,7 hPa 0,0 l/m 5,7 km/h (1 Bft) SW 227 0 min 0,000 mm 0,0 UV-I 0 W/m 3,0 C 7,7 C 9,7 km/h (2 Bft) 100,00 %
14.11.2015 18:35 7,7 C 72 % 1026,7 hPa 0,0 l/m 4,9 km/h (1 Bft) S-SW 202 0 min 0,000 mm 0,0 UV-I 0 W/m 3,0 C 7,7 C 8,0 km/h (2 Bft) 100,00 %
14.11.2015 18:36 7,7 C 73 % 1026,7 hPa 0,0 l/m 3,6 km/h (1 Bft) SW 218 0 min 0,000 mm 0,0 UV-I 0 W/m 3,2 C 7,7 C 9,7 km/h (2 Bft) 100,00 %
14.11.2015 18:37 7,7 C 73 % 1026,7 hPa 0,0 l/m 4,0 km/h (1 Bft) SW 227 0 min 0,000 mm 0,0 UV-I 0 W/m 3,2 C 7,7 C 4,8 km/h (1 Bft) 100,00 %
14.11.2015 18:38 7,7 C 73 % 1026,7 hPa 0,0 l/m 4,0 km/h (1 Bft) S-SW 208 0 min 0,000 mm 0,0 UV-I 0 W/m 3,2 C 7,7 C 8,0 km/h (2 Bft) 95,83 %
14.11.2015 18:39 7,7 C 72 % 1026,7 hPa 0,0 l/m 6,0 km/h (2 Bft) SW 228 0 min 0,000 mm 0,0 UV-I 0 W/m 3,0 C 7,7 C 9,7 km/h (2 Bft) 100,00 %
14.11.2015 18:40 7,7 C 73 % 1026,7 hPa 0,0 l/m 6,9 km/h (2 Bft) SW 224 0 min 0,000 mm 0,0 UV-I 0 W/m 3,2 C 7,3 C 8,0 km/h (2 Bft) 95,83 %
14.11.2015 18:41 7,7 C 73 % 1026,7 hPa 0,0 l/m 5,8 km/h (2 Bft) SW 226 0 min 0,000 mm 0,0 UV-I 0 W/m 3,2 C 7,7 C 11,3 km/h (2 Bft) 100,00 %
14.11.2015 18:42 7,7 C 73 % 1026,6 hPa 0,0 l/m 6,7 km/h (2 Bft) SW 215 0 min 0,000 mm 0,0 UV-I 0 W/m 3,2 C 7,5 C 9,7 km/h (2 Bft) 100,00 %
14.11.2015 18:43 7,7 C 72 % 1026,6 hPa 0,0 l/m 8,3 km/h (2 Bft) SW 220 0 min 0,000 mm 0,0 UV-I 0 W/m 3,0 C 6,2 C 9,7 km/h (2 Bft) 100,00 %
14.11.2015 18:44 7,7 C 72 % 1026,6 hPa 0,0 l/m 8,1 km/h (2 Bft) S-SW 207 0 min 0,000 mm 0,0 UV-I 0 W/m 3,0 C 6,4 C 11,3 km/h (2 Bft) 96,15 %
14.11.2015 18:45 7,7 C 72 % 1026,6 hPa 0,0 l/m 7,6 km/h (2 Bft) S-SW 196 0 min 0,000 mm 0,0 UV-I 0 W/m 3,0 C 6,7 C 11,3 km/h (2 Bft) 100,00 %
14.11.2015 18:46 7,7 C 73 % 1026,6 hPa 0,0 l/m 4,9 km/h (1 Bft) S-SW 205 0 min 0,000 mm 0,0 UV-I 0 W/m 3,2 C 7,7 C 11,3 km/h (2 Bft) 100,00 %
14.11.2015 18:47 7,7 C 73 % 1026,6 hPa 0,0 l/m 7,3 km/h (2 Bft) S-SW 200 0 min 0,000 mm 0,0 UV-I 0 W/m 3,2 C 7,0 C 11,3 km/h (2 Bft) 100,00 %
14.11.2015 18:48 7,7 C 73 % 1026,6 hPa 0,0 l/m 5,2 km/h (1 Bft) W 269 0 min 0,000 mm 0,0 UV-I 0 W/m 3,2 C 7,7 C 8,0 km/h (2 Bft) 100,00 %
14.11.2015 18:49 7,7 C 73 % 1026,7 hPa 0,0 l/m 6,6 km/h (2 Bft) S-SW 211 0 min 0,000 mm 0,0 UV-I 0 W/m 3,2 C 7,6 C 12,9 km/h (3 Bft) 100,00 %
14.11.2015 18:50 7,7 C 73 % 1026,6 hPa 0,0 l/m 6,6 km/h (2 Bft) SW 230 0 min 0,000 mm 0,0 UV-I 0 W/m 3,2 C 7,6 C 11,3 km/h (2 Bft) 100,00 %
14.11.2015 18:51 7,7 C 73 % 1026,6 hPa 0,0 l/m 10,1 km/h (2 Bft) SW 227 0 min 0,000 mm 0,0 UV-I 0 W/m 3,2 C 5,0 C 12,9 km/h (3 Bft) 100,00 %
14.11.2015 18:52 7,7 C 73 % 1026,7 hPa 0,0 l/m 8,2 km/h (2 Bft) SW 226 0 min 0,000 mm 0,0 UV-I 0 W/m 3,2 C 6,3 C 9,7 km/h (2 Bft) 100,00 %
14.11.2015 18:53 7,7 C 73 % 1026,5 hPa 0,0 l/m 8,6 km/h (2 Bft) W 268 0 min 0,000 mm 0,0 UV-I 0 W/m 3,2 C 6,0 C 11,3 km/h (2 Bft) 100,00 %
14.11.2015 18:54 7,7 C 73 % 1026,5 hPa 0,0 l/m 7,9 km/h (2 Bft) W-SW 246 0 min 0,000 mm 0,0 UV-I 0 W/m 3,2 C 6,5 C 12,9 km/h (3 Bft) 100,00 %
14.11.2015 18:55 7,7 C 73 % 1026,4 hPa 0,0 l/m 8,4 km/h (2 Bft) S-SW 194 0 min 0,000 mm 0,0 UV-I 0 W/m 3,2 C 6,1 C 11,3 km/h (2 Bft) 100,00 %
14.11.2015 18:56 7,7 C 73 % 1026,5 hPa 0,0 l/m 7,8 km/h (2 Bft) SW 225 0 min 0,000 mm 0,0 UV-I 0 W/m 3,2 C 6,6 C 11,3 km/h (2 Bft) 100,00 %
14.11.2015 18:57 7,7 C 73 % 1026,5 hPa 0,0 l/m 7,0 km/h (2 Bft) SW 215 0 min 0,000 mm 0,0 UV-I 0 W/m 3,2 C 7,2 C 12,9 km/h (3 Bft) 100,00 %
14.11.2015 18:58 7,7 C 73 % 1026,5 hPa 0,0 l/m 6,5 km/h (2 Bft) W-SW 246 0 min 0,000 mm 0,0 UV-I 0 W/m 3,2 C 7,6 C 11,3 km/h (2 Bft) 100,00 %
14.11.2015 18:59 7,7 C 73 % 1026,6 hPa 0,0 l/m 4,8 km/h (1 Bft) SW 227 0 min 0,000 mm 0,0 UV-I 0 W/m 3,2 C 7,7 C 8,0 km/h (2 Bft) 100,00 %
14.11.2015 19:00 7,7 C 73 % 1026,5 hPa 0,0 l/m 3,0 km/h (1 Bft) SW 218 0 min 0,000 mm 0,0 UV-I 0 W/m 3,2 C 7,7 C 4,8 km/h (1 Bft) 100,00 %
14.11.2015 19:01 7,7 C 74 % 1026,5 hPa 0,0 l/m 1,8 km/h (1 Bft) W 263 0 min 0,026 mm 0,0 UV-I 0 W/m 3,4 C 7,7 C 3,2 km/h (1 Bft) 100,00 %
14.11.2015 19:02 7,7 C 74 % 1026,5 hPa 0,0 l/m 2,8 km/h (1 Bft) W 266 0 min 0,000 mm 0,0 UV-I 0 W/m 3,4 C 7,7 C 4,8 km/h (1 Bft) 100,00 %
14.11.2015 19:03 7,7 C 74 % 1026,5 hPa 0,0 l/m 2,5 km/h (1 Bft) W 272 0 min 0,000 mm 0,0 UV-I 0 W/m 3,4 C 7,7 C 4,8 km/h (1 Bft) 100,00 %
14.11.2015 19:04 7,6 C 74 % 1026,5 hPa 0,0 l/m 3,1 km/h (1 Bft) SW 235 0 min 0,000 mm 0,0 UV-I 0 W/m 3,3 C 7,6 C 4,8 km/h (1 Bft) 100,00 %
14.11.2015 19:05 7,6 C 74 % 1026,6 hPa 0,0 l/m 3,3 km/h (1 Bft) S-SW 209 0 min 0,000 mm 0,0 UV-I 0 W/m 3,3 C 7,6 C 6,4 km/h (2 Bft) 100,00 %
14.11.2015 19:06 7,6 C 75 % 1026,7 hPa 0,0 l/m 3,3 km/h (1 Bft) W-NW 284 0 min 0,000 mm 0,0 UV-I 0 W/m 3,5 C 7,6 C 6,4 km/h (2 Bft) 100,00 %
14.11.2015 19:07 7,6 C 75 % 1026,6 hPa 0,0 l/m 3,6 km/h (1 Bft) W 269 0 min 0,000 mm 0,0 UV-I 0 W/m 3,5 C 7,6 C 6,4 km/h (2 Bft) 100,00 %
14.11.2015 19:08 7,5 C 75 % 1026,6 hPa 0,0 l/m 3,1 km/h (1 Bft) W 277 0 min 0,000 mm 0,0 UV-I 0 W/m 3,4 C 7,5 C 4,8 km/h (1 Bft) 100,00 %
14.11.2015 19:09 7,5 C 75 % 1026,6 hPa 0,0 l/m 3,1 km/h (1 Bft) SW 222 0 min 0,000 mm 0,0 UV-I 0 W/m 3,4 C 7,5 C 4,8 km/h (1 Bft) 100,00 %
14.11.2015 19:10 7,5 C 75 % 1026,5 hPa 0,0 l/m 2,9 km/h (1 Bft) SW 217 0 min 0,000 mm 0,0 UV-I 0 W/m 3,4 C 7,5 C 6,4 km/h (2 Bft) 100,00 %
14.11.2015 19:11 7,5 C 75 % 1026,5 hPa 0,0 l/m 6,1 km/h (2 Bft) SW 233 0 min 0,000 mm 0,0 UV-I 0 W/m 3,4 C 7,5 C 9,7 km/h (2 Bft) 100,00 %
14.11.2015 19:12 7,6 C 75 % 1026,5 hPa 0,0 l/m 4,4 km/h (1 Bft) W 278 0 min 0,000 mm 0,0 UV-I 0 W/m 3,5 C 7,6 C 8,0 km/h (2 Bft) 100,00 %
14.11.2015 19:13 7,6 C 75 % 1026,5 hPa 0,0 l/m 4,4 km/h (1 Bft) SW 227 0 min 0,000 mm 0,0 UV-I 0 W/m 3,5 C 7,6 C 6,4 km/h (2 Bft) 100,00 %
14.11.2015 19:14 7,6 C 74 % 1026,5 hPa 0,0 l/m 3,2 km/h (1 Bft) W-SW 254 0 min 0,000 mm 0,0 UV-I 0 W/m 3,3 C 7,6 C 4,8 km/h (1 Bft) 100,00 %
14.11.2015 19:15 7,6 C 74 % 1026,5 hPa 0,0 l/m 3,3 km/h (1 Bft) SW 214 0 min 0,000 mm 0,0 UV-I 0 W/m 3,3 C 7,6 C 4,8 km/h (1 Bft) 100,00 %
14.11.2015 19:16 7,6 C 74 % 1026,5 hPa 0,0 l/m 5,1 km/h (1 Bft) W-SW 240 0 min 0,000 mm 0,0 UV-I 0 W/m 3,3 C 7,6 C 8,0 km/h (2 Bft) 100,00 %
14.11.2015 19:17 7,6 C 74 % 1026,6 hPa 0,0 l/m 3,5 km/h (1 Bft) W 263 0 min 0,000 mm 0,0 UV-I 0 W/m 3,3 C 7,6 C 6,4 km/h (2 Bft) 100,00 %
14.11.2015 19:18 7,7 C 74 % 1026,5 hPa 0,0 l/m 5,6 km/h (1 Bft) W 266 0 min 0,000 mm 0,0 UV-I 0 W/m 3,4 C 7,7 C 9,7 km/h (2 Bft) 100,00 %
14.11.2015 19:19 7,6 C 74 % 1026,7 hPa 0,0 l/m 3,4 km/h (1 Bft) SW 236 0 min 0,000 mm 0,0 UV-I 0 W/m 3,3 C 7,6 C 6,4 km/h (2 Bft) 91,67 %
14.11.2015 19:20 7,7 C 74 % 1026,6 hPa 0,0 l/m 3,3 km/h (1 Bft) SW 232 0 min 0,000 mm 0,0 UV-I 0 W/m 3,4 C 7,7 C 6,4 km/h (2 Bft) 96,15 %
14.11.2015 19:21 7,6 C 75 % 1026,5 hPa 0,0 l/m 2,9 km/h (1 Bft) SW 233 0 min 0,000 mm 0,0 UV-I 0 W/m 3,5 C 7,6 C 4,8 km/h (1 Bft) 96,55 %
14.11.2015 19:22 7,6 C 75 % 1026,5 hPa 0,0 l/m 3,0 km/h (1 Bft) W-SW 242 0 min 0,000 mm 0,0 UV-I 0 W/m 3,5 C 7,6 C 4,8 km/h (1 Bft) 100,00 %
14.11.2015 19:23 7,6 C 75 % 1026,4 hPa 0,0 l/m 3,2 km/h (1 Bft) W 275 0 min 0,000 mm 0,0 UV-I 0 W/m 3,5 C 7,6 C 4,8 km/h (1 Bft) 100,00 %
14.11.2015 19:24 7,6 C 75 % 1026,5 hPa 0,0 l/m 3,1 km/h (1 Bft) W 265 0 min 0,000 mm 0,0 UV-I 0 W/m 3,5 C 7,6 C 4,8 km/h (1 Bft) 100,00 %
14.11.2015 19:25 7,6 C 75 % 1026,5 hPa 0,0 l/m 4,5 km/h (1 Bft) W 278 0 min 0,000 mm 0,0 UV-I 0 W/m 3,5 C 7,6 C 6,4 km/h (2 Bft) 100,00 %
14.11.2015 19:26 7,6 C 75 % 1026,5 hPa 0,0 l/m 4,1 km/h (1 Bft) W-SW 244 0 min 0,000 mm 0,0 UV-I 0 W/m 3,5 C 7,6 C 8,0 km/h (2 Bft) 100,00 %
14.11.2015 19:27 7,6 C 75 % 1026,5 hPa 0,0 l/m 4,0 km/h (1 Bft) W-SW 242 0 min 0,000 mm 0,0 UV-I 0 W/m 3,5 C 7,6 C 6,4 km/h (2 Bft) 100,00 %
14.11.2015 19:28 7,5 C 75 % 1026,5 hPa 0,0 l/m 3,6 km/h (1 Bft) W 267 0 min 0,000 mm 0,0 UV-I 0 W/m 3,4 C 7,5 C 6,4 km/h (2 Bft) 100,00 %
14.11.2015 19:29 7,5 C 75 % 1026,5 hPa 0,0 l/m 3,6 km/h (1 Bft) W-NW 288 0 min 0,000 mm 0,0 UV-I 0 W/m 3,4 C 7,5 C 4,8 km/h (1 Bft) 100,00 %
14.11.2015 19:30 7,5 C 75 % 1026,5 hPa 0,0 l/m 4,5 km/h (1 Bft) SW 219 0 min 0,000 mm 0,0 UV-I 0 W/m 3,4 C 7,5 C 6,4 km/h (2 Bft) 100,00 %
14.11.2015 19:31 7,5 C 75 % 1026,5 hPa 0,0 l/m 3,7 km/h (1 Bft) W 276 0 min 0,000 mm 0,0 UV-I 0 W/m 3,4 C 7,5 C 6,4 km/h (2 Bft) 100,00 %
14.11.2015 19:32 7,5 C 75 % 1026,5 hPa 0,0 l/m 4,5 km/h (1 Bft) S-SW 211 0 min 0,000 mm 0,0 UV-I 0 W/m 3,4 C 7,5 C 9,7 km/h (2 Bft) 100,00 %
14.11.2015 19:33 7,5 C 75 % 1026,4 hPa 0,0 l/m 3,8 km/h (1 Bft) W 260 0 min 0,000 mm 0,0 UV-I 0 W/m 3,4 C 7,5 C 4,8 km/h (1 Bft) 100,00 %
14.11.2015 19:34 7,5 C 75 % 1026,4 hPa 0,0 l/m 3,7 km/h (1 Bft) W 275 0 min 0,000 mm 0,0 UV-I 0 W/m 3,4 C 7,5 C 4,8 km/h (1 Bft) 100,00 %
14.11.2015 19:35 7,5 C 75 % 1026,4 hPa 0,0 l/m 3,8 km/h (1 Bft) SW 224 0 min 0,000 mm 0,0 UV-I 0 W/m 3,4 C 7,5 C 8,0 km/h (2 Bft) 100,00 %
14.11.2015 19:36 7,5 C 75 % 1026,4 hPa 0,0 l/m 3,5 km/h (1 Bft) W-SW 242 0 min 0,000 mm 0,0 UV-I 0 W/m 3,4 C 7,5 C 6,4 km/h (2 Bft) 100,00 %
14.11.2015 19:37 7,5 C 75 % 1026,4 hPa 0,0 l/m 4,5 km/h (1 Bft) W 260 0 min 0,000 mm 0,0 UV-I 0 W/m 3,4 C 7,5 C 8,0 km/h (2 Bft) 100,00 %
14.11.2015 19:38 7,5 C 75 % 1026,4 hPa 0,0 l/m 4,4 km/h (1 Bft) W-SW 244 0 min 0,000 mm 0,0 UV-I 0 W/m 3,4 C 7,5 C 6,4 km/h (2 Bft) 95,65 %
14.11.2015 19:39 7,5 C 75 % 1026,3 hPa 0,0 l/m 4,9 km/h (1 Bft) W-SW 256 0 min 0,000 mm 0,0 UV-I 0 W/m 3,4 C 7,5 C 9,7 km/h (2 Bft) 95,83 %
14.11.2015 19:40 7,6 C 75 % 1026,3 hPa 0,0 l/m 4,7 km/h (1 Bft) SW 225 0 min 0,000 mm 0,0 UV-I 0 W/m 3,5 C 7,6 C 9,7 km/h (2 Bft) 100,00 %
14.11.2015 19:41 7,6 C 75 % 1026,3 hPa 0,0 l/m 4,2 km/h (1 Bft) W-SW 250 0 min 0,000 mm 0,0 UV-I 0 W/m 3,5 C 7,6 C 6,4 km/h (2 Bft) 100,00 %
14.11.2015 19:42 7,6 C 75 % 1026,3 hPa 0,0 l/m 4,9 km/h (1 Bft) SW 221 0 min 0,000 mm 0,0 UV-I 0 W/m 3,5 C 7,6 C 8,0 km/h (2 Bft) 100,00 %
14.11.2015 19:43 7,6 C 75 % 1026,3 hPa 0,0 l/m 3,9 km/h (1 Bft) W 273 0 min 0,000 mm 0,0 UV-I 0 W/m 3,5 C 7,6 C 8,0 km/h (2 Bft) 92,11 %
14.11.2015 19:44 7,6 C 75 % 1026,2 hPa 0,0 l/m 3,6 km/h (1 Bft) W 261 0 min 0,000 mm 0,0 UV-I 0 W/m 3,5 C 7,6 C 4,8 km/h (1 Bft) 100,00 %
14.11.2015 19:45 7,6 C 75 % 1026,2 hPa 0,0 l/m 4,0 km/h (1 Bft) SW 225 0 min 0,000 mm 0,0 UV-I 0 W/m 3,5 C 7,6 C 6,4 km/h (2 Bft) 95,65 %
14.11.2015 19:46 7,6 C 75 % 1026,1 hPa 0,0 l/m 5,1 km/h (1 Bft) W 265 0 min 0,000 mm 0,0 UV-I 0 W/m 3,5 C 7,6 C 9,7 km/h (2 Bft) 100,00 %
14.11.2015 19:47 7,6 C 75 % 1026,1 hPa 0,0 l/m 4,6 km/h (1 Bft) W-SW 241 0 min 0,000 mm 0,0 UV-I 0 W/m 3,5 C 7,6 C 6,4 km/h (2 Bft) 96,15 %
14.11.2015 19:48 7,6 C 75 % 1026,2 hPa 0,0 l/m 3,9 km/h (1 Bft) W-SW 253 0 min 0,000 mm 0,0 UV-I 0 W/m 3,5 C 7,6 C 8,0 km/h (2 Bft) 100,00 %
14.11.2015 19:49 7,6 C 75 % 1026,2 hPa 0,0 l/m 4,1 km/h (1 Bft) W-SW 239 0 min 0,000 mm 0,0 UV-I 0 W/m 3,5 C 7,6 C 4,8 km/h (1 Bft) 100,00 %
14.11.2015 19:50 7,6 C 75 % 1026,2 hPa 0,0 l/m 3,2 km/h (1 Bft) W-SW 247 0 min 0,000 mm 0,0 UV-I 0 W/m 3,5 C 7,6 C 4,8 km/h (1 Bft) 100,00 %
14.11.2015 19:51 7,6 C 75 % 1026,2 hPa 0,0 l/m 3,9 km/h (1 Bft) W 261 0 min 0,000 mm 0,0 UV-I 0 W/m 3,5 C 7,6 C 4,8 km/h (1 Bft) 100,00 %
14.11.2015 19:52 7,5 C 75 % 1026,2 hPa 0,0 l/m 4,3 km/h (1 Bft) W 265 0 min 0,000 mm 0,0 UV-I 0 W/m 3,4 C 7,5 C 8,0 km/h (2 Bft) 100,00 %
14.11.2015 19:53 7,5 C 75 % 1026,2 hPa 0,0 l/m 2,8 km/h (1 Bft) SW 236 0 min 0,000 mm 0,0 UV-I 0 W/m 3,4 C 7,5 C 4,8 km/h (1 Bft) 100,00 %
14.11.2015 19:54 7,5 C 75 % 1026,2 hPa 0,0 l/m 3,2 km/h (1 Bft) W-SW 245 0 min 0,000 mm 0,0 UV-I 0 W/m 3,4 C 7,5 C 6,4 km/h (2 Bft) 100,00 %
14.11.2015 19:55 7,5 C 76 % 1026,2 hPa 0,0 l/m 3,6 km/h (1 Bft) W-SW 245 0 min 0,000 mm 0,0 UV-I 0 W/m 3,5 C 7,5 C 6,4 km/h (2 Bft) 95,65 %
14.11.2015 19:56 7,5 C 76 % 1026,1 hPa 0,0 l/m 4,7 km/h (1 Bft) SW 230 0 min 0,000 mm 0,0 UV-I 0 W/m 3,5 C 7,5 C 6,4 km/h (2 Bft) 100,00 %
14.11.2015 19:57 7,5 C 76 % 1026,2 hPa 0,0 l/m 5,1 km/h (1 Bft) SW 221 0 min 0,000 mm 0,0 UV-I 0 W/m 3,5 C 7,5 C 8,0 km/h (2 Bft) 100,00 %
14.11.2015 19:58 7,5 C 76 % 1026,2 hPa 0,0 l/m 4,6 km/h (1 Bft) W 273 0 min 0,000 mm 0,0 UV-I 0 W/m 3,5 C 7,5 C 6,4 km/h (2 Bft) 100,00 %
14.11.2015 19:59 7,5 C 76 % 1026,2 hPa 0,0 l/m 4,0 km/h (1 Bft) SW 234 0 min 0,000 mm 0,0 UV-I 0 W/m 3,5 C 7,5 C 6,4 km/h (2 Bft) 100,00 %
14.11.2015 20:00 7,5 C 76 % 1026,2 hPa 0,0 l/m 2,8 km/h (1 Bft) SW 224 0 min 0,000 mm 0,0 UV-I 0 W/m 3,5 C 7,5 C 4,8 km/h (1 Bft) 100,00 %
14.11.2015 20:01 7,5 C 77 % 1026,2 hPa 0,0 l/m 2,9 km/h (1 Bft) SW 224 0 min 0,025 mm 0,0 UV-I 0 W/m 3,7 C 7,5 C 3,2 km/h (1 Bft) 100,00 %
14.11.2015 20:02 7,5 C 77 % 1026,2 hPa 0,0 l/m 6,4 km/h (2 Bft) SW 225 0 min 0,000 mm 0,0 UV-I 0 W/m 3,7 C 7,5 C 9,7 km/h (2 Bft) 100,00 %
14.11.2015 20:03 7,5 C 77 % 1026,3 hPa 0,0 l/m 7,8 km/h (2 Bft) S-SW 210 0 min 0,000 mm 0,0 UV-I 0 W/m 3,7 C 6,4 C 11,3 km/h (2 Bft) 100,00 %
14.11.2015 20:04 7,6 C 77 % 1026,1 hPa 0,0 l/m 6,4 km/h (2 Bft) SW 222 0 min 0,000 mm 0,0 UV-I 0 W/m 3,8 C 7,6 C 9,7 km/h (2 Bft) 100,00 %
14.11.2015 20:05 7,6 C 77 % 1026,2 hPa 0,0 l/m 6,8 km/h (2 Bft) S-SW 209 0 min 0,000 mm 0,0 UV-I 0 W/m 3,8 C 7,3 C 12,9 km/h (3 Bft) 100,00 %
14.11.2015 20:06 7,6 C 77 % 1026,1 hPa 0,0 l/m 8,5 km/h (2 Bft) W-SW 246 0 min 0,000 mm 0,0 UV-I 0 W/m 3,8 C 6,0 C 11,3 km/h (2 Bft) 100,00 %
14.11.2015 20:07 7,6 C 77 % 1026,2 hPa 0,0 l/m 7,7 km/h (2 Bft) SW 227 0 min 0,000 mm 0,0 UV-I 0 W/m 3,8 C 6,6 C 11,3 km/h (2 Bft) 100,00 %
14.11.2015 20:08 7,6 C 77 % 1026,2 hPa 0,0 l/m 8,3 km/h (2 Bft) SW 224 0 min 0,000 mm 0,0 UV-I 0 W/m 3,8 C 6,1 C 11,3 km/h (2 Bft) 100,00 %
14.11.2015 20:09 7,6 C 77 % 1026,2 hPa 0,0 l/m 7,7 km/h (2 Bft) SW 218 0 min 0,000 mm 0,0 UV-I 0 W/m 3,8 C 6,6 C 12,9 km/h (3 Bft) 100,00 %
14.11.2015 20:10 7,6 C 77 % 1026,2 hPa 0,0 l/m 7,1 km/h (2 Bft) W-SW 241 0 min 0,000 mm 0,0 UV-I 0 W/m 3,8 C 7,0 C 9,7 km/h (2 Bft) 96,15 %
14.11.2015 20:11 7,7 C 77 % 1026,1 hPa 0,0 l/m 5,8 km/h (2 Bft) SW 216 0 min 0,000 mm 0,0 UV-I 0 W/m 3,9 C 7,7 C 8,0 km/h (2 Bft) 100,00 %
14.11.2015 20:12 7,7 C 77 % 1026,2 hPa 0,0 l/m 6,6 km/h (2 Bft) SW 217 0 min 0,000 mm 0,0 UV-I 0 W/m 3,9 C 7,6 C 8,0 km/h (2 Bft) 100,00 %
14.11.2015 20:13 7,6 C 77 % 1026,1 hPa 0,0 l/m 7,3 km/h (2 Bft) SW 218 0 min 0,000 mm 0,0 UV-I 0 W/m 3,8 C 6,9 C 11,3 km/h (2 Bft) 100,00 %
14.11.2015 20:14 7,6 C 77 % 1026,2 hPa 0,0 l/m 6,6 km/h (2 Bft) S-SW 206 0 min 0,000 mm 0,0 UV-I 0 W/m 3,8 C 7,5 C 9,7 km/h (2 Bft) 100,00 %
14.11.2015 20:15 7,6 C 77 % 1026,2 hPa 0,0 l/m 5,8 km/h (2 Bft) SW 221 0 min 0,000 mm 0,0 UV-I 0 W/m 3,8 C 7,6 C 9,7 km/h (2 Bft) 100,00 %
14.11.2015 20:16 7,6 C 77 % 1026,1 hPa 0,0 l/m 5,9 km/h (2 Bft) SW 229 0 min 0,000 mm 0,0 UV-I 0 W/m 3,8 C 7,6 C 8,0 km/h (2 Bft) 100,00 %
14.11.2015 20:17 7,6 C 77 % 1026,0 hPa 0,0 l/m 5,8 km/h (2 Bft) SW 225 0 min 0,000 mm 0,0 UV-I 0 W/m 3,8 C 7,6 C 9,7 km/h (2 Bft) 100,00 %
14.11.2015 20:18 7,6 C 77 % 1026,0 hPa 0,0 l/m 6,9 km/h (2 Bft) SW 226 0 min 0,000 mm 0,0 UV-I 0 W/m 3,8 C 7,2 C 9,7 km/h (2 Bft) 96,55 %
14.11.2015 20:19 7,6 C 78 % 1026,1 hPa 0,0 l/m 5,8 km/h (2 Bft) S-SW 200 0 min 0,000 mm 0,0 UV-I 0 W/m 4,0 C 7,6 C 9,7 km/h (2 Bft) 100,00 %
14.11.2015 20:20 7,6 C 78 % 1026,1 hPa 0,0 l/m 6,9 km/h (2 Bft) SW 231 0 min 0,000 mm 0,0 UV-I 0 W/m 4,0 C 7,2 C 9,7 km/h (2 Bft) 100,00 %
14.11.2015 20:21 7,6 C 78 % 1026,1 hPa 0,0 l/m 5,5 km/h (1 Bft) SW 222 0 min 0,000 mm 0,0 UV-I 0 W/m 4,0 C 7,6 C 9,7 km/h (2 Bft) 100,00 %
14.11.2015 20:22 7,6 C 78 % 1026,2 hPa 0,0 l/m 4,0 km/h (1 Bft) SW 229 0 min 0,000 mm 0,0 UV-I 0 W/m 4,0 C 7,6 C 4,8 km/h (1 Bft) 99,37 %
14.11.2015 20:23 7,5 C 78 % 1026,1 hPa 0,0 l/m 5,2 km/h (1 Bft) S-SW 202 0 min 0,000 mm 0,0 UV-I 0 W/m 3,9 C 7,5 C 9,7 km/h (2 Bft) 100,00 %
14.11.2015 20:24 7,5 C 78 % 1026,1 hPa 0,0 l/m 6,8 km/h (2 Bft) W-SW 246 0 min 0,000 mm 0,0 UV-I 0 W/m 3,9 C 7,2 C 9,7 km/h (2 Bft) 100,00 %
14.11.2015 20:25 7,5 C 78 % 1026,1 hPa 0,0 l/m 4,5 km/h (1 Bft) S-SW 209 0 min 0,000 mm 0,0 UV-I 0 W/m 3,9 C 7,5 C 6,4 km/h (2 Bft) 93,10 %
14.11.2015 20:26 7,5 C 78 % 1026,0 hPa 0,0 l/m 5,1 km/h (1 Bft) S-SW 213 0 min 0,000 mm 0,0 UV-I 0 W/m 3,9 C 7,5 C 6,4 km/h (2 Bft) 95,83 %
14.11.2015 20:27 7,5 C 78 % 1026,1 hPa 0,0 l/m 5,2 km/h (1 Bft) SW 219 0 min 0,000 mm 0,0 UV-I 0 W/m 3,9 C 7,5 C 8,0 km/h (2 Bft) 96,15 %
14.11.2015 20:28 7,5 C 78 % 1026,1 hPa 0,0 l/m 3,9 km/h (1 Bft) SW 223 0 min 0,000 mm 0,0 UV-I 0 W/m 3,9 C 7,5 C 6,4 km/h (2 Bft) 100,00 %
14.11.2015 20:29 7,4 C 79 % 1026,1 hPa 0,0 l/m 3,8 km/h (1 Bft) W-NW 296 0 min 0,000 mm 0,0 UV-I 0 W/m 4,0 C 7,4 C 6,4 km/h (2 Bft) 100,00 %
14.11.2015 20:30 7,4 C 79 % 1026,1 hPa 0,0 l/m 3,9 km/h (1 Bft) SW 227 0 min 0,000 mm 0,0 UV-I 0 W/m 4,0 C 7,4 C 6,4 km/h (2 Bft) 100,00 %
14.11.2015 20:31 7,4 C 79 % 1026,1 hPa 0,0 l/m 3,5 km/h (1 Bft) SW 227 0 min 0,000 mm 0,0 UV-I 0 W/m 4,0 C 7,4 C 4,8 km/h (1 Bft) 100,00 %
14.11.2015 20:32 7,4 C 79 % 1026,0 hPa 0,0 l/m 4,8 km/h (1 Bft) W-SW 248 0 min 0,000 mm 0,0 UV-I 0 W/m 4,0 C 7,4 C 8,0 km/h (2 Bft) 100,00 %
14.11.2015 20:33 7,4 C 79 % 1026,1 hPa 0,0 l/m 5,0 km/h (1 Bft) W-SW 255 0 min 0,000 mm 0,0 UV-I 0 W/m 4,0 C 7,4 C 9,7 km/h (2 Bft) 100,00 %
14.11.2015 20:34 7,4 C 79 % 1026,1 hPa 0,0 l/m 3,7 km/h (1 Bft) SW 218 0 min 0,000 mm 0,0 UV-I 0 W/m 4,0 C 7,4 C 6,4 km/h (2 Bft) 100,00 %
14.11.2015 20:35 7,4 C 79 % 1026,1 hPa 0,0 l/m 3,1 km/h (1 Bft) W 260 0 min 0,000 mm 0,0 UV-I 0 W/m 4,0 C 7,4 C 4,8 km/h (1 Bft) 100,00 %
14.11.2015 20:36 7,3 C 79 % 1026,0 hPa 0,0 l/m 2,6 km/h (1 Bft) S-SW 200 0 min 0,000 mm 0,0 UV-I 0 W/m 3,9 C 7,3 C 4,8 km/h (1 Bft) 100,00 %
14.11.2015 20:37 7,3 C 79 % 1025,9 hPa 0,0 l/m 4,5 km/h (1 Bft) S-SW 213 0 min 0,000 mm 0,0 UV-I 0 W/m 3,9 C 7,3 C 6,4 km/h (2 Bft) 96,15 %
14.11.2015 20:38 7,3 C 79 % 1025,8 hPa 0,0 l/m 7,4 km/h (2 Bft) W-SW 240 0 min 0,000 mm 0,0 UV-I 0 W/m 3,9 C 6,5 C 11,3 km/h (2 Bft) 100,00 %
14.11.2015 20:39 7,3 C 79 % 1025,8 hPa 0,0 l/m 6,8 km/h (2 Bft) SW 223 0 min 0,000 mm 0,0 UV-I 0 W/m 3,9 C 7,0 C 11,3 km/h (2 Bft) 96,15 %
14.11.2015 20:40 7,3 C 79 % 1025,8 hPa 0,0 l/m 5,8 km/h (2 Bft) S-SW 198 0 min 0,000 mm 0,0 UV-I 0 W/m 3,9 C 7,3 C 8,0 km/h (2 Bft) 100,00 %
14.11.2015 20:41 7,4 C 79 % 1025,8 hPa 0,0 l/m 6,1 km/h (2 Bft) SW 227 0 min 0,000 mm 0,0 UV-I 0 W/m 4,0 C 7,4 C 8,0 km/h (2 Bft) 100,00 %
14.11.2015 20:42 7,3 C 79 % 1025,8 hPa 0,0 l/m 3,3 km/h (1 Bft) SW 220 0 min 0,000 mm 0,0 UV-I 0 W/m 3,9 C 7,3 C 6,4 km/h (2 Bft) 100,00 %
14.11.2015 20:43 7,3 C 79 % 1025,8 hPa 0,0 l/m 4,3 km/h (1 Bft) SW 225 0 min 0,000 mm 0,0 UV-I 0 W/m 3,9 C 7,3 C 6,4 km/h (2 Bft) 100,00 %
14.11.2015 20:44 7,3 C 79 % 1025,8 hPa 0,0 l/m 3,4 km/h (1 Bft) SW 231 0 min 0,000 mm 0,0 UV-I 0 W/m 3,9 C 7,3 C 4,8 km/h (1 Bft) 100,00 %
14.11.2015 20:45 7,3 C 79 % 1025,6 hPa 0,0 l/m 1,9 km/h (1 Bft) SW 231 0 min 0,000 mm 0,0 UV-I 0 W/m 3,9 C 7,3 C 4,8 km/h (1 Bft) 95,83 %
14.11.2015 20:46 7,3 C 79 % 1025,6 hPa 0,0 l/m 3,5 km/h (1 Bft) SW 222 0 min 0,000 mm 0,0 UV-I 0 W/m 3,9 C 7,3 C 6,4 km/h (2 Bft) 96,15 %
14.11.2015 20:47 7,3 C 79 % 1025,6 hPa 0,0 l/m 2,8 km/h (1 Bft) W-SW 241 0 min 0,000 mm 0,0 UV-I 0 W/m 3,9 C 7,3 C 4,8 km/h (1 Bft) 100,00 %
14.11.2015 20:48 7,3 C 79 % 1025,6 hPa 0,0 l/m 2,1 km/h (1 Bft) W-SW 245 0 min 0,000 mm 0,0 UV-I 0 W/m 3,9 C 7,3 C 3,2 km/h (1 Bft) 100,00 %
14.11.2015 20:49 7,3 C 80 % 1025,6 hPa 0,0 l/m 0,7 km/h (0 Bft) W-SW 251 0 min 0,000 mm 0,0 UV-I 0 W/m 4,1 C 7,3 C 1,6 km/h (1 Bft) 100,00 %
14.11.2015 20:50 7,3 C 80 % 1025,5 hPa 0,0 l/m 0,9 km/h (0 Bft) W-SW 251 0 min 0,000 mm 0,0 UV-I 0 W/m 4,1 C 7,3 C 1,6 km/h (1 Bft) 96,55 %
14.11.2015 20:51 7,2 C 80 % 1025,5 hPa 0,0 l/m 1,8 km/h (1 Bft) W-SW 250 0 min 0,000 mm 0,0 UV-I 0 W/m 4,0 C 7,2 C 3,2 km/h (1 Bft) 100,00 %
14.11.2015 20:52 7,2 C 80 % 1025,5 hPa 0,0 l/m 2,3 km/h (1 Bft) W-SW 250 0 min 0,000 mm 0,0 UV-I 0 W/m 4,0 C 7,2 C 3,2 km/h (1 Bft) 100,00 %
14.11.2015 20:53 7,2 C 80 % 1025,5 hPa 0,0 l/m 1,5 km/h (1 Bft) W 267 0 min 0,000 mm 0,0 UV-I 0 W/m 4,0 C 7,2 C 3,2 km/h (1 Bft) 100,00 %
14.11.2015 20:54 7,2 C 80 % 1025,5 hPa 0,0 l/m 3,1 km/h (1 Bft) SW 219 0 min 0,000 mm 0,0 UV-I 0 W/m 4,0 C 7,2 C 4,8 km/h (1 Bft) 100,00 %
14.11.2015 20:55 7,2 C 80 % 1025,6 hPa 0,0 l/m 2,2 km/h (1 Bft) W-SW 242 0 min 0,000 mm 0,0 UV-I 0 W/m 4,0 C 7,2 C 4,8 km/h (1 Bft) 100,00 %
14.11.2015 20:56 7,2 C 80 % 1025,6 hPa 0,0 l/m 3,1 km/h (1 Bft) SW 222 0 min 0,000 mm 0,0 UV-I 0 W/m 4,0 C 7,2 C 4,8 km/h (1 Bft) 100,00 %
14.11.2015 20:57 7,1 C 81 % 1025,6 hPa 0,0 l/m 2,9 km/h (1 Bft) SW 215 0 min 0,000 mm 0,0 UV-I 0 W/m 4,1 C 7,1 C 6,4 km/h (2 Bft) 100,00 %
14.11.2015 20:58 7,1 C 80 % 1025,6 hPa 0,0 l/m 2,6 km/h (1 Bft) SW 215 0 min 0,000 mm 0,0 UV-I 0 W/m 3,9 C 7,1 C 4,8 km/h (1 Bft) 100,00 %
14.11.2015 20:59 7,2 C 81 % 1025,6 hPa 0,0 l/m 1,7 km/h (1 Bft) SW 217 0 min 0,000 mm 0,0 UV-I 0 W/m 4,2 C 7,2 C 3,2 km/h (1 Bft) 100,00 %
14.11.2015 21:00 7,2 C 80 % 1025,6 hPa 0,0 l/m 1,5 km/h (1 Bft) SW 217 0 min 0,000 mm 0,0 UV-I 0 W/m 4,0 C 7,2 C 3,2 km/h (1 Bft) 100,00 %
14.11.2015 21:01 7,2 C 80 % 1025,6 hPa 0,0 l/m 3,2 km/h (1 Bft) W-SW 250 0 min 0,025 mm 0,0 UV-I 0 W/m 4,0 C 7,2 C 4,8 km/h (1 Bft) 100,00 %
14.11.2015 21:02 7,2 C 80 % 1025,6 hPa 0,0 l/m 2,5 km/h (1 Bft) SW 232 0 min 0,000 mm 0,0 UV-I 0 W/m 4,0 C 7,2 C 4,8 km/h (1 Bft) 100,00 %
14.11.2015 21:03 7,2 C 80 % 1025,7 hPa 0,0 l/m 2,2 km/h (1 Bft) SW 231 0 min 0,000 mm 0,0 UV-I 0 W/m 4,0 C 7,2 C 3,2 km/h (1 Bft) 100,00 %
14.11.2015 21:04 7,2 C 80 % 1025,7 hPa 0,0 l/m 2,1 km/h (1 Bft) SW 231 0 min 0,000 mm 0,0 UV-I 0 W/m 4,0 C 7,2 C 3,2 km/h (1 Bft) 100,00 %
14.11.2015 21:05 7,2 C 80 % 1025,6 hPa 0,0 l/m 3,0 km/h (1 Bft) SW 235 0 min 0,000 mm 0,0 UV-I 0 W/m 4,0 C 7,2 C 4,8 km/h (1 Bft) 100,00 %
14.11.2015 21:06 7,2 C 80 % 1025,6 hPa 0,0 l/m 3,6 km/h (1 Bft) SW 225 0 min 0,000 mm 0,0 UV-I 0 W/m 4,0 C 7,2 C 4,8 km/h (1 Bft) 95,83 %
14.11.2015 21:07 7,2 C 81 % 1025,7 hPa 0,0 l/m 2,6 km/h (1 Bft) SW 227 0 min 0,000 mm 0,0 UV-I 0 W/m 4,2 C 7,2 C 4,8 km/h (1 Bft) 100,00 %
14.11.2015 21:08 7,2 C 81 % 1025,7 hPa 0,0 l/m 2,8 km/h (1 Bft) S-SW 213 0 min 0,000 mm 0,0 UV-I 0 W/m 4,2 C 7,2 C 4,8 km/h (1 Bft) 100,00 %
14.11.2015 21:09 7,1 C 81 % 1025,7 hPa 0,0 l/m 1,8 km/h (1 Bft) W 281 0 min 0,000 mm 0,0 UV-I 0 W/m 4,1 C 7,1 C 3,2 km/h (1 Bft) 100,00 %
14.11.2015 21:10 7,1 C 81 % 1025,7 hPa 0,0 l/m 2,2 km/h (1 Bft) S-SW 212 0 min 0,000 mm 0,0 UV-I 0 W/m 4,1 C 7,1 C 3,2 km/h (1 Bft) 100,00 %
14.11.2015 21:11 7,1 C 81 % 1025,7 hPa 0,0 l/m 3,9 km/h (1 Bft) SW 215 0 min 0,000 mm 0,0 UV-I 0 W/m 4,1 C 7,1 C 4,8 km/h (1 Bft) 100,00 %
14.11.2015 21:12 7,1 C 81 % 1025,7 hPa 0,0 l/m 5,6 km/h (1 Bft) SW 232 0 min 0,000 mm 0,0 UV-I 0 W/m 4,1 C 7,1 C 8,0 km/h (2 Bft) 100,00 %
14.11.2015 21:13 7,1 C 80 % 1025,6 hPa 0,0 l/m 6,6 km/h (2 Bft) SW 220 0 min 0,000 mm 0,0 UV-I 0 W/m 3,9 C 7,0 C 8,0 km/h (2 Bft) 100,00 %
14.11.2015 21:14 7,2 C 80 % 1025,6 hPa 0,0 l/m 6,1 km/h (2 Bft) S-SW 209 0 min 0,000 mm 0,0 UV-I 0 W/m 4,0 C 7,2 C 8,0 km/h (2 Bft) 100,00 %
14.11.2015 21:15 7,2 C 80 % 1025,6 hPa 0,0 l/m 6,9 km/h (2 Bft) SW 219 0 min 0,000 mm 0,0 UV-I 0 W/m 4,0 C 6,8 C 11,3 km/h (2 Bft) 100,00 %
14.11.2015 21:16 7,2 C 80 % 1025,6 hPa 0,0 l/m 6,2 km/h (2 Bft) S-SW 211 0 min 0,000 mm 0,0 UV-I 0 W/m 4,0 C 7,2 C 9,7 km/h (2 Bft) 100,00 %
14.11.2015 21:17 7,2 C 80 % 1025,5 hPa 0,0 l/m 5,0 km/h (1 Bft) SW 233 0 min 0,000 mm 0,0 UV-I 0 W/m 4,0 C 7,2 C 6,4 km/h (2 Bft) 100,00 %
14.11.2015 21:18 7,2 C 80 % 1025,5 hPa 0,0 l/m 4,8 km/h (1 Bft) SW 222 0 min 0,000 mm 0,0 UV-I 0 W/m 4,0 C 7,2 C 6,4 km/h (2 Bft) 100,00 %
14.11.2015 21:19 7,2 C 80 % 1025,5 hPa 0,0 l/m 6,0 km/h (2 Bft) SW 215 0 min 0,000 mm 0,0 UV-I 0 W/m 4,0 C 7,2 C 8,0 km/h (2 Bft) 100,00 %
14.11.2015 21:20 7,3 C 80 % 1025,5 hPa 0,0 l/m 5,9 km/h (2 Bft) SW 220 0 min 0,000 mm 0,0 UV-I 0 W/m 4,1 C 7,3 C 8,0 km/h (2 Bft) 100,00 %
14.11.2015 21:21 7,3 C 80 % 1025,5 hPa 0,0 l/m 3,3 km/h (1 Bft) W-SW 254 0 min 0,000 mm 0,0 UV-I 0 W/m 4,1 C 7,3 C 4,8 km/h (1 Bft) 100,00 %
14.11.2015 21:22 7,3 C 80 % 1025,5 hPa 0,0 l/m 2,2 km/h (1 Bft) W-SW 254 0 min 0,000 mm 0,0 UV-I 0 W/m 4,1 C 7,3 C 4,8 km/h (1 Bft) 100,00 %
14.11.2015 21:23 7,2 C 80 % 1025,5 hPa 0,0 l/m 1,7 km/h (1 Bft) W-SW 254 0 min 0,000 mm 0,0 UV-I 0 W/m 4,0 C 7,2 C 3,2 km/h (1 Bft) 100,00 %
14.11.2015 21:24 7,2 C 80 % 1025,5 hPa 0,0 l/m 2,1 km/h (1 Bft) W-SW 241 0 min 0,000 mm 0,0 UV-I 0 W/m 4,0 C 7,2 C 3,2 km/h (1 Bft) 100,00 %
14.11.2015 21:25 7,2 C 80 % 1025,5 hPa 0,0 l/m 2,3 km/h (1 Bft) W-SW 242 0 min 0,000 mm 0,0 UV-I 0 W/m 4,0 C 7,2 C 3,2 km/h (1 Bft) 100,00 %
14.11.2015 21:26 7,1 C 80 % 1025,5 hPa 0,0 l/m 3,0 km/h (1 Bft) SW 215 0 min 0,000 mm 0,0 UV-I 0 W/m 3,9 C 7,1 C 4,8 km/h (1 Bft) 96,15 %
14.11.2015 21:27 7,1 C 81 % 1025,4 hPa 0,0 l/m 4,6 km/h (1 Bft) SW 224 0 min 0,000 mm 0,0 UV-I 0 W/m 4,1 C 7,1 C 6,4 km/h (2 Bft) 95,83 %
14.11.2015 21:28 7,1 C 81 % 1025,4 hPa 0,0 l/m 4,1 km/h (1 Bft) SW 217 0 min 0,000 mm 0,0 UV-I 0 W/m 4,1 C 7,1 C 4,8 km/h (1 Bft) 100,00 %
14.11.2015 21:29 7,1 C 81 % 1025,4 hPa 0,0 l/m 3,6 km/h (1 Bft) SW 219 0 min 0,000 mm 0,0 UV-I 0 W/m 4,1 C 7,1 C 6,4 km/h (2 Bft) 100,00 %
14.11.2015 21:30 7,1 C 80 % 1025,4 hPa 0,0 l/m 6,2 km/h (2 Bft) SW 224 0 min 0,000 mm 0,0 UV-I 0 W/m 3,9 C 7,1 C 8,0 km/h (2 Bft) 100,00 %
14.11.2015 21:31 7,1 C 80 % 1025,4 hPa 0,0 l/m 3,8 km/h (1 Bft) SW 224 0 min 0,000 mm 0,0 UV-I 0 W/m 3,9 C 7,1 C 6,4 km/h (2 Bft) 95,83 %
14.11.2015 21:32 7,1 C 81 % 1025,3 hPa 0,0 l/m 2,4 km/h (1 Bft) W-SW 242 0 min 0,000 mm 0,0 UV-I 0 W/m 4,1 C 7,1 C 4,8 km/h (1 Bft) 95,65 %
14.11.2015 21:33 7,1 C 81 % 1025,3 hPa 0,0 l/m 1,2 km/h (1 Bft) W-SW 242 0 min 0,000 mm 0,0 UV-I 0 W/m 4,1 C 7,1 C 3,2 km/h (1 Bft) 100,00 %
14.11.2015 21:34 7,1 C 81 % 1025,3 hPa 0,0 l/m 1,9 km/h (1 Bft) W-SW 248 0 min 0,000 mm 0,0 UV-I 0 W/m 4,1 C 7,1 C 4,8 km/h (1 Bft) 96,15 %
14.11.2015 21:35 7,0 C 81 % 1025,3 hPa 0,0 l/m 2,7 km/h (1 Bft) SW 219 0 min 0,000 mm 0,0 UV-I 0 W/m 4,0 C 7,0 C 4,8 km/h (1 Bft) 100,00 %
14.11.2015 21:36 7,0 C 81 % 1025,4 hPa 0,0 l/m 1,9 km/h (1 Bft) SW 226 0 min 0,000 mm 0,0 UV-I 0 W/m 4,0 C 7,0 C 4,8 km/h (1 Bft) 100,00 %
14.11.2015 21:37 6,9 C 82 % 1025,3 hPa 0,0 l/m 2,2 km/h (1 Bft) W-SW 256 0 min 0,000 mm 0,0 UV-I 0 W/m 4,0 C 6,9 C 3,2 km/h (1 Bft) 100,00 %
14.11.2015 21:38 6,9 C 81 % 1025,3 hPa 0,0 l/m 2,5 km/h (1 Bft) SW 228 0 min 0,000 mm 0,0 UV-I 0 W/m 3,9 C 6,9 C 3,2 km/h (1 Bft) 100,00 %
14.11.2015 21:39 6,9 C 82 % 1025,2 hPa 0,0 l/m 2,3 km/h (1 Bft) W-SW 243 0 min 0,000 mm 0,0 UV-I 0 W/m 4,0 C 6,9 C 4,8 km/h (1 Bft) 100,00 %
14.11.2015 21:40 6,9 C 82 % 1025,2 hPa 0,0 l/m 2,7 km/h (1 Bft) SW 214 0 min 0,000 mm 0,0 UV-I 0 W/m 4,0 C 6,9 C 4,8 km/h (1 Bft) 96,15 %
14.11.2015 21:41 6,8 C 82 % 1025,2 hPa 0,0 l/m 3,6 km/h (1 Bft) S-SW 213 0 min 0,000 mm 0,0 UV-I 0 W/m 3,9 C 6,8 C 6,4 km/h (2 Bft) 100,00 %
14.11.2015 21:42 6,8 C 82 % 1025,2 hPa 0,0 l/m 6,1 km/h (2 Bft) SW 229 0 min 0,000 mm 0,0 UV-I 0 W/m 3,9 C 6,8 C 8,0 km/h (2 Bft) 100,00 %
14.11.2015 21:43 6,9 C 81 % 1025,2 hPa 0,0 l/m 6,5 km/h (2 Bft) S-SW 213 0 min 0,000 mm 0,0 UV-I 0 W/m 3,9 C 6,8 C 9,7 km/h (2 Bft) 100,00 %
14.11.2015 21:44 6,9 C 81 % 1025,2 hPa 0,0 l/m 5,5 km/h (1 Bft) SW 223 0 min 0,000 mm 0,0 UV-I 0 W/m 3,9 C 6,9 C 8,0 km/h (2 Bft) 100,00 %
14.11.2015 21:45 6,9 C 81 % 1025,1 hPa 0,0 l/m 6,4 km/h (2 Bft) SW 219 0 min 0,000 mm 0,0 UV-I 0 W/m 3,9 C 6,9 C 8,0 km/h (2 Bft) 100,00 %
14.11.2015 21:46 7,0 C 81 % 1025,1 hPa 0,0 l/m 4,8 km/h (1 Bft) S-SW 212 0 min 0,000 mm 0,0 UV-I 0 W/m 4,0 C 7,0 C 6,4 km/h (2 Bft) 100,00 %
14.11.2015 21:47 7,0 C 81 % 1025,0 hPa 0,0 l/m 5,2 km/h (1 Bft) S-SW 210 0 min 0,000 mm 0,0 UV-I 0 W/m 4,0 C 7,0 C 9,7 km/h (2 Bft) 100,00 %
14.11.2015 21:48 7,1 C 81 % 1025,0 hPa 0,0 l/m 6,2 km/h (2 Bft) SW 221 0 min 0,000 mm 0,0 UV-I 0 W/m 4,1 C 7,1 C 9,7 km/h (2 Bft) 95,83 %
14.11.2015 21:49 7,1 C 81 % 1025,0 hPa 0,0 l/m 5,5 km/h (1 Bft) SW 214 0 min 0,000 mm 0,0 UV-I 0 W/m 4,1 C 7,1 C 8,0 km/h (2 Bft) 100,00 %
14.11.2015 21:50 7,1 C 81 % 1024,9 hPa 0,0 l/m 3,8 km/h (1 Bft) SW 225 0 min 0,000 mm 0,0 UV-I 0 W/m 4,1 C 7,1 C 6,4 km/h (2 Bft) 100,00 %
14.11.2015 21:51 7,1 C 81 % 1024,9 hPa 0,0 l/m 3,9 km/h (1 Bft) SW 224 0 min 0,000 mm 0,0 UV-I 0 W/m 4,1 C 7,1 C 6,4 km/h (2 Bft) 100,00 %
14.11.2015 21:52 7,1 C 81 % 1024,9 hPa 0,0 l/m 2,4 km/h (1 Bft) SW 232 0 min 0,000 mm 0,0 UV-I 0 W/m 4,1 C 7,1 C 4,8 km/h (1 Bft) 95,83 %
14.11.2015 21:53 7,1 C 81 % 1024,9 hPa 0,0 l/m 2,0 km/h (1 Bft) S-SW 205 0 min 0,000 mm 0,0 UV-I 0 W/m 4,1 C 7,1 C 3,2 km/h (1 Bft) 100,00 %
14.11.2015 21:54 7,0 C 81 % 1024,8 hPa 0,0 l/m 2,2 km/h (1 Bft) S-SW 205 0 min 0,000 mm 0,0 UV-I 0 W/m 4,0 C 7,0 C 3,2 km/h (1 Bft) 100,00 %
14.11.2015 21:55 7,0 C 81 % 1024,8 hPa 0,0 l/m 2,6 km/h (1 Bft) S-SW 203 0 min 0,000 mm 0,0 UV-I 0 W/m 4,0 C 7,0 C 4,8 km/h (1 Bft) 100,00 %
14.11.2015 21:56 7,1 C 81 % 1024,8 hPa 0,0 l/m 3,9 km/h (1 Bft) SW 216 0 min 0,000 mm 0,0 UV-I 0 W/m 4,1 C 7,1 C 6,4 km/h (2 Bft) 100,00 %
14.11.2015 21:57 7,1 C 81 % 1024,8 hPa 0,0 l/m 2,5 km/h (1 Bft) SW 218 0 min 0,000 mm 0,0 UV-I 0 W/m 4,1 C 7,1 C 4,8 km/h (1 Bft) 95,65 %
14.11.2015 21:58 7,0 C 81 % 1024,8 hPa 0,0 l/m 1,1 km/h (1 Bft) SW 218 0 min 0,000 mm 0,0 UV-I 0 W/m 4,0 C 7,0 C 3,2 km/h (1 Bft) 100,00 %
14.11.2015 21:59 7,0 C 81 % 1024,7 hPa 0,0 l/m 3,1 km/h (1 Bft) SW 219 0 min 0,000 mm 0,0 UV-I 0 W/m 4,0 C 7,0 C 4,8 km/h (1 Bft) 100,00 %
14.11.2015 22:00 7,0 C 81 % 1024,8 hPa 0,0 l/m 1,5 km/h (1 Bft) SW 219 0 min 0,000 mm 0,0 UV-I 0 W/m 4,0 C 7,0 C 3,2 km/h (1 Bft) 100,00 %
14.11.2015 22:01 6,9 C 81 % 1024,9 hPa 0,0 l/m 2,0 km/h (1 Bft) SW 219 0 min 0,000 mm 0,0 UV-I 0 W/m 3,9 C 6,9 C 3,2 km/h (1 Bft) 100,00 %
14.11.2015 22:02 6,9 C 81 % 1024,9 hPa 0,0 l/m 1,7 km/h (1 Bft) W 274 0 min 0,000 mm 0,0 UV-I 0 W/m 3,9 C 6,9 C 3,2 km/h (1 Bft) 100,00 %
14.11.2015 22:03 6,9 C 81 % 1024,9 hPa 0,0 l/m 2,7 km/h (1 Bft) W 270 0 min 0,000 mm 0,0 UV-I 0 W/m 3,9 C 6,9 C 4,8 km/h (1 Bft) 100,00 %
14.11.2015 22:04 6,9 C 82 % 1024,9 hPa 0,0 l/m 2,1 km/h (1 Bft) W 266 0 min 0,000 mm 0,0 UV-I 0 W/m 4,0 C 6,9 C 3,2 km/h (1 Bft) 95,65 %
14.11.2015 22:05 6,8 C 82 % 1024,8 hPa 0,0 l/m 3,5 km/h (1 Bft) SW 215 0 min 0,000 mm 0,0 UV-I 0 W/m 3,9 C 6,8 C 4,8 km/h (1 Bft) 100,00 %
14.11.2015 22:06 6,8 C 82 % 1024,7 hPa 0,0 l/m 3,6 km/h (1 Bft) S 186 0 min 0,000 mm 0,0 UV-I 0 W/m 3,9 C 6,8 C 4,8 km/h (1 Bft) 100,00 %
14.11.2015 22:07 6,8 C 82 % 1024,7 hPa 0,0 l/m 4,2 km/h (1 Bft) S-SW 198 0 min 0,000 mm 0,0 UV-I 0 W/m 3,9 C 6,8 C 4,8 km/h (1 Bft) 100,00 %
14.11.2015 22:08 6,8 C 82 % 1024,7 hPa 0,0 l/m 3,5 km/h (1 Bft) S-SW 207 0 min 0,000 mm 0,0 UV-I 0 W/m 3,9 C 6,8 C 6,4 km/h (2 Bft) 96,43 %
14.11.2015 22:09 6,8 C 82 % 1024,7 hPa 0,0 l/m 3,8 km/h (1 Bft) S-SW 200 0 min 0,000 mm 0,0 UV-I 0 W/m 3,9 C 6,8 C 4,8 km/h (1 Bft) 95,83 %
14.11.2015 22:10 6,8 C 82 % 1024,7 hPa 0,0 l/m 4,1 km/h (1 Bft) W-SW 239 0 min 0,000 mm 0,0 UV-I 0 W/m 3,9 C 6,8 C 6,4 km/h (2 Bft) 100,00 %
14.11.2015 22:11 6,8 C 82 % 1024,7 hPa 0,0 l/m 5,6 km/h (1 Bft) SW 216 0 min 0,000 mm 0,0 UV-I 0 W/m 3,9 C 6,8 C 6,4 km/h (2 Bft) 100,00 %
14.11.2015 22:12 6,8 C 82 % 1024,8 hPa 0,0 l/m 6,0 km/h (2 Bft) SW 232 0 min 0,000 mm 0,0 UV-I 0 W/m 3,9 C 6,8 C 8,0 km/h (2 Bft) 100,00 %
14.11.2015 22:13 6,8 C 82 % 1024,7 hPa 0,0 l/m 6,2 km/h (2 Bft) SW 230 0 min 0,000 mm 0,0 UV-I 0 W/m 3,9 C 6,8 C 9,7 km/h (2 Bft) 100,00 %
14.11.2015 22:14 6,9 C 81 % 1024,7 hPa 0,0 l/m 4,6 km/h (1 Bft) SW 223 0 min 0,000 mm 0,0 UV-I 0 W/m 3,9 C 6,9 C 6,4 km/h (2 Bft) 100,00 %
14.11.2015 22:15 6,9 C 81 % 1024,6 hPa 0,0 l/m 5,0 km/h (1 Bft) SW 230 0 min 0,000 mm 0,0 UV-I 0 W/m 3,9 C 6,9 C 6,4 km/h (2 Bft) 100,00 %
14.11.2015 22:16 6,9 C 81 % 1024,7 hPa 0,0 l/m 3,2 km/h (1 Bft) SW 221 0 min 0,000 mm 0,0 UV-I 0 W/m 3,9 C 6,9 C 4,8 km/h (1 Bft) 100,00 %
14.11.2015 22:17 6,9 C 81 % 1024,6 hPa 0,0 l/m 5,2 km/h (1 Bft) SW 225 0 min 0,000 mm 0,0 UV-I 0 W/m 3,9 C 6,9 C 6,4 km/h (2 Bft) 100,00 %
14.11.2015 22:18 6,9 C 81 % 1024,6 hPa 0,0 l/m 4,8 km/h (1 Bft) S-SW 213 0 min 0,000 mm 0,0 UV-I 0 W/m 3,9 C 6,9 C 8,0 km/h (2 Bft) 100,00 %
14.11.2015 22:19 6,9 C 81 % 1024,6 hPa 0,0 l/m 3,1 km/h (1 Bft) SW 232 0 min 0,000 mm 0,0 UV-I 0 W/m 3,9 C 6,9 C 4,8 km/h (1 Bft) 100,00 %
14.11.2015 22:20 6,9 C 81 % 1024,5 hPa 0,0 l/m 3,5 km/h (1 Bft) SW 223 0 min 0,000 mm 0,0 UV-I 0 W/m 3,9 C 6,9 C 4,8 km/h (1 Bft) 100,00 %
14.11.2015 22:21 6,9 C 81 % 1024,4 hPa 0,0 l/m 3,9 km/h (1 Bft) S-SW 199 0 min 0,000 mm 0,0 UV-I 0 W/m 3,9 C 6,9 C 4,8 km/h (1 Bft) 100,00 %
14.11.2015 22:22 6,9 C 81 % 1024,3 hPa 0,0 l/m 4,7 km/h (1 Bft) SW 225 0 min 0,000 mm 0,0 UV-I 0 W/m 3,9 C 6,9 C 6,4 km/h (2 Bft) 100,00 %
14.11.2015 22:23 7,0 C 81 % 1024,4 hPa 0,0 l/m 3,5 km/h (1 Bft) SW 219 0 min 0,000 mm 0,0 UV-I 0 W/m 4,0 C 7,0 C 4,8 km/h (1 Bft) 96,55 %
14.11.2015 22:24 7,0 C 81 % 1024,3 hPa 0,0 l/m 5,5 km/h (1 Bft) SW 217 0 min 0,000 mm 0,0 UV-I 0 W/m 4,0 C 7,0 C 8,0 km/h (2 Bft) 100,00 %
14.11.2015 22:25 7,0 C 81 % 1024,2 hPa 0,0 l/m 5,1 km/h (1 Bft) S-SW 198 0 min 0,000 mm 0,0 UV-I 0 W/m 4,0 C 7,0 C 6,4 km/h (2 Bft) 95,65 %
14.11.2015 22:26 7,1 C 81 % 1024,2 hPa 0,0 l/m 4,0 km/h (1 Bft) S 189 0 min 0,000 mm 0,0 UV-I 0 W/m 4,1 C 7,1 C 6,4 km/h (2 Bft) 95,83 %
14.11.2015 22:27 7,1 C 81 % 1024,2 hPa 0,0 l/m 4,2 km/h (1 Bft) S-SW 207 0 min 0,000 mm 0,0 UV-I 0 W/m 4,1 C 7,1 C 6,4 km/h (2 Bft) 96,15 %
14.11.2015 22:28 7,1 C 81 % 1024,1 hPa 0,0 l/m 4,0 km/h (1 Bft) S 190 0 min 0,000 mm 0,0 UV-I 0 W/m 4,1 C 7,1 C 4,8 km/h (1 Bft) 100,00 %
14.11.2015 22:29 7,1 C 81 % 1024,1 hPa 0,0 l/m 6,0 km/h (2 Bft) S 177 0 min 0,000 mm 0,0 UV-I 0 W/m 4,1 C 7,1 C 8,0 km/h (2 Bft) 100,00 %
14.11.2015 22:30 7,1 C 81 % 1024,1 hPa 0,0 l/m 4,9 km/h (1 Bft) S-SW 197 0 min 0,000 mm 0,0 UV-I 0 W/m 4,1 C 7,1 C 8,0 km/h (2 Bft) 100,00 %
14.11.2015 22:31 7,2 C 80 % 1024,1 hPa 0,0 l/m 5,3 km/h (1 Bft) SW 221 0 min 0,000 mm 0,0 UV-I 0 W/m 4,0 C 7,2 C 6,4 km/h (2 Bft) 100,00 %
14.11.2015 22:32 7,2 C 80 % 1024,1 hPa 0,0 l/m 5,8 km/h (2 Bft) S 188 0 min 0,000 mm 0,0 UV-I 0 W/m 4,0 C 7,2 C 8,0 km/h (2 Bft) 100,00 %
14.11.2015 22:33 7,2 C 80 % 1024,0 hPa 0,0 l/m 4,3 km/h (1 Bft) S-SO 154 0 min 0,000 mm 0,0 UV-I 0 W/m 4,0 C 7,2 C 6,4 km/h (2 Bft) 100,00 %
14.11.2015 22:34 7,2 C 80 % 1023,9 hPa 0,0 l/m 6,0 km/h (2 Bft) S-SW 209 0 min 0,000 mm 0,0 UV-I 0 W/m 4,0 C 7,2 C 11,3 km/h (2 Bft) 95,83 %
14.11.2015 22:35 7,2 C 80 % 1023,9 hPa 0,0 l/m 7,6 km/h (2 Bft) S-SW 196 0 min 0,000 mm 0,0 UV-I 0 W/m 4,0 C 6,2 C 11,3 km/h (2 Bft) 100,00 %
14.11.2015 22:36 7,2 C 80 % 1023,9 hPa 0,0 l/m 5,9 km/h (2 Bft) S 185 0 min 0,000 mm 0,0 UV-I 0 W/m 4,0 C 7,2 C 9,7 km/h (2 Bft) 100,00 %
14.11.2015 22:37 7,2 C 80 % 1023,8 hPa 0,0 l/m 5,0 km/h (1 Bft) SW 225 0 min 0,000 mm 0,0 UV-I 0 W/m 4,0 C 7,2 C 6,4 km/h (2 Bft) 100,00 %
14.11.2015 22:38 7,2 C 80 % 1023,8 hPa 0,0 l/m 4,5 km/h (1 Bft) S-SW 205 0 min 0,000 mm 0,0 UV-I 0 W/m 4,0 C 7,2 C 8,0 km/h (2 Bft) 95,83 %
14.11.2015 22:39 7,2 C 80 % 1023,8 hPa 0,0 l/m 7,6 km/h (2 Bft) S-SW 198 0 min 0,000 mm 0,0 UV-I 0 W/m 4,0 C 6,2 C 9,7 km/h (2 Bft) 100,00 %
14.11.2015 22:40 7,2 C 80 % 1023,7 hPa 0,0 l/m 6,6 km/h (2 Bft) S 187 0 min 0,000 mm 0,0 UV-I 0 W/m 4,0 C 7,1 C 9,7 km/h (2 Bft) 100,00 %
14.11.2015 22:41 7,2 C 80 % 1023,7 hPa 0,0 l/m 4,3 km/h (1 Bft) S-SW 212 0 min 0,000 mm 0,0 UV-I 0 W/m 4,0 C 7,2 C 6,4 km/h (2 Bft) 91,67 %
14.11.2015 22:42 7,2 C 80 % 1023,8 hPa 0,0 l/m 5,4 km/h (1 Bft) S-SW 209 0 min 0,000 mm 0,0 UV-I 0 W/m 4,0 C 7,2 C 9,7 km/h (2 Bft) 100,00 %
14.11.2015 22:43 7,2 C 80 % 1023,9 hPa 0,0 l/m 4,6 km/h (1 Bft) SW 214 0 min 0,000 mm 0,0 UV-I 0 W/m 4,0 C 7,2 C 6,4 km/h (2 Bft) 100,00 %
14.11.2015 22:44 7,2 C 80 % 1023,9 hPa 0,0 l/m 5,4 km/h (1 Bft) S-SW 195 0 min 0,000 mm 0,0 UV-I 0 W/m 4,0 C 7,2 C 9,7 km/h (2 Bft) 100,00 %
14.11.2015 22:45 7,2 C 80 % 1023,8 hPa 0,0 l/m 5,3 km/h (1 Bft) S 190 0 min 0,000 mm 0,0 UV-I 0 W/m 4,0 C 7,2 C 6,4 km/h (2 Bft) 100,00 %
14.11.2015 22:46 7,2 C 80 % 1023,8 hPa 0,0 l/m 5,6 km/h (1 Bft) SW 225 0 min 0,000 mm 0,0 UV-I 0 W/m 4,0 C 7,2 C 8,0 km/h (2 Bft) 100,00 %
14.11.2015 22:47 7,2 C 80 % 1023,8 hPa 0,0 l/m 4,2 km/h (1 Bft) SW 222 0 min 0,000 mm 0,0 UV-I 0 W/m 4,0 C 7,2 C 6,4 km/h (2 Bft) 100,00 %
14.11.2015 22:48 7,2 C 80 % 1023,9 hPa 0,0 l/m 3,3 km/h (1 Bft) S 188 0 min 0,000 mm 0,0 UV-I 0 W/m 4,0 C 7,2 C 4,8 km/h (1 Bft) 100,00 %
14.11.2015 22:49 7,1 C 81 % 1023,8 hPa 0,0 l/m 2,5 km/h (1 Bft) S 188 0 min 0,000 mm 0,0 UV-I 0 W/m 4,1 C 7,1 C 3,2 km/h (1 Bft) 100,00 %
14.11.2015 22:50 7,1 C 81 % 1023,8 hPa 0,0 l/m 3,4 km/h (1 Bft) S-SW 202 0 min 0,000 mm 0,0 UV-I 0 W/m 4,1 C 7,1 C 4,8 km/h (1 Bft) 100,00 %
14.11.2015 22:51 7,1 C 81 % 1023,8 hPa 0,0 l/m 4,4 km/h (1 Bft) SW 221 0 min 0,000 mm 0,0 UV-I 0 W/m 4,1 C 7,1 C 8,0 km/h (2 Bft) 100,00 %
14.11.2015 22:52 7,1 C 81 % 1023,7 hPa 0,0 l/m 3,4 km/h (1 Bft) S-SW 210 0 min 0,000 mm 0,0 UV-I 0 W/m 4,1 C 7,1 C 4,8 km/h (1 Bft) 100,00 %
14.11.2015 22:53 7,1 C 81 % 1023,8 hPa 0,0 l/m 3,0 km/h (1 Bft) SW 215 0 min 0,000 mm 0,0 UV-I 0 W/m 4,1 C 7,1 C 4,8 km/h (1 Bft) 95,83 %
14.11.2015 22:54 7,1 C 81 % 1023,8 hPa 0,0 l/m 4,0 km/h (1 Bft) SW 235 0 min 0,000 mm 0,0 UV-I 0 W/m 4,1 C 7,1 C 6,4 km/h (2 Bft) 100,00 %
14.11.2015 22:55 7,1 C 81 % 1023,8 hPa 0,0 l/m 3,6 km/h (1 Bft) SW 219 0 min 0,000 mm 0,0 UV-I 0 W/m 4,1 C 7,1 C 6,4 km/h (2 Bft) 100,00 %
14.11.2015 22:56 7,1 C 81 % 1023,8 hPa 0,0 l/m 1,9 km/h (1 Bft) SW 216 0 min 0,000 mm 0,0 UV-I 0 W/m 4,1 C 7,1 C 3,2 km/h (1 Bft) 100,00 %
14.11.2015 22:57 7,1 C 81 % 1023,8 hPa 0,0 l/m 1,9 km/h (1 Bft) SW 216 0 min 0,000 mm 0,0 UV-I 0 W/m 4,1 C 7,1 C 3,2 km/h (1 Bft) 100,00 %
14.11.2015 22:58 7,1 C 80 % 1023,7 hPa 0,0 l/m 3,1 km/h (1 Bft) SW 230 0 min 0,000 mm 0,0 UV-I 0 W/m 3,9 C 7,1 C 4,8 km/h (1 Bft) 100,00 %
14.11.2015 22:59 7,1 C 80 % 1023,7 hPa 0,0 l/m 3,3 km/h (1 Bft) S-SW 212 0 min 0,000 mm 0,0 UV-I 0 W/m 3,9 C 7,1 C 4,8 km/h (1 Bft) 100,00 %
14.11.2015 23:00 7,1 C 80 % 1023,6 hPa 0,0 l/m 3,9 km/h (1 Bft) S-SW 202 0 min 0,000 mm 0,0 UV-I 0 W/m 3,9 C 7,1 C 4,8 km/h (1 Bft) 100,00 %
14.11.2015 23:01 7,1 C 80 % 1023,6 hPa 0,0 l/m 3,0 km/h (1 Bft) S-SW 196 0 min 0,000 mm 0,0 UV-I 0 W/m 3,9 C 7,1 C 4,8 km/h (1 Bft) 100,00 %
14.11.2015 23:02 7,2 C 79 % 1023,5 hPa 0,0 l/m 3,7 km/h (1 Bft) SW 215 0 min 0,000 mm 0,0 UV-I 0 W/m 3,8 C 7,2 C 4,8 km/h (1 Bft) 95,83 %
14.11.2015 23:03 7,2 C 79 % 1023,5 hPa 0,0 l/m 4,1 km/h (1 Bft) S-SW 202 0 min 0,000 mm 0,0 UV-I 0 W/m 3,8 C 7,2 C 6,4 km/h (2 Bft) 100,00 %
14.11.2015 23:04 7,3 C 79 % 1023,4 hPa 0,0 l/m 3,8 km/h (1 Bft) S 191 0 min 0,000 mm 0,0 UV-I 0 W/m 3,9 C 7,3 C 6,4 km/h (2 Bft) 100,00 %
14.11.2015 23:05 7,3 C 79 % 1023,4 hPa 0,0 l/m 3,1 km/h (1 Bft) SW 235 0 min 0,000 mm 0,0 UV-I 0 W/m 3,9 C 7,3 C 4,8 km/h (1 Bft) 100,00 %
14.11.2015 23:06 7,3 C 80 % 1023,4 hPa 0,0 l/m 2,3 km/h (1 Bft) S-SW 198 0 min 0,000 mm 0,0 UV-I 0 W/m 4,1 C 7,3 C 4,8 km/h (1 Bft) 100,00 %
14.11.2015 23:07 7,3 C 79 % 1023,3 hPa 0,0 l/m 2,1 km/h (1 Bft) S-SW 207 0 min 0,000 mm 0,0 UV-I 0 W/m 3,9 C 7,3 C 3,2 km/h (1 Bft) 100,00 %
14.11.2015 23:08 7,3 C 78 % 1023,4 hPa 0,0 l/m 3,7 km/h (1 Bft) S-SW 202 0 min 0,000 mm 0,0 UV-I 0 W/m 3,7 C 7,3 C 4,8 km/h (1 Bft) 100,00 %
14.11.2015 23:09 7,4 C 78 % 1023,4 hPa 0,0 l/m 4,4 km/h (1 Bft) SW 230 0 min 0,000 mm 0,0 UV-I 0 W/m 3,8 C 7,4 C 6,4 km/h (2 Bft) 100,00 %
14.11.2015 23:10 7,4 C 78 % 1023,5 hPa 0,0 l/m 3,6 km/h (1 Bft) W-SW 243 0 min 0,000 mm 0,0 UV-I 0 W/m 3,8 C 7,4 C 6,4 km/h (2 Bft) 100,00 %
14.11.2015 23:11 7,5 C 78 % 1023,4 hPa 0,0 l/m 2,7 km/h (1 Bft) SW 222 0 min 0,000 mm 0,0 UV-I 0 W/m 3,9 C 7,5 C 4,8 km/h (1 Bft) 100,00 %
14.11.2015 23:12 7,5 C 78 % 1023,5 hPa 0,0 l/m 2,1 km/h (1 Bft) SW 223 0 min 0,000 mm 0,0 UV-I 0 W/m 3,9 C 7,5 C 4,8 km/h (1 Bft) 95,83 %
14.11.2015 23:13 7,6 C 78 % 1023,5 hPa 0,0 l/m 3,6 km/h (1 Bft) W-SW 251 0 min 0,000 mm 0,0 UV-I 0 W/m 4,0 C 7,6 C 4,8 km/h (1 Bft) 100,00 %
14.11.2015 23:14 7,6 C 77 % 1023,5 hPa 0,0 l/m 2,5 km/h (1 Bft) W-NW 299 0 min 0,000 mm 0,0 UV-I 0 W/m 3,8 C 7,6 C 3,2 km/h (1 Bft) 100,00 %
14.11.2015 23:15 7,6 C 77 % 1023,5 hPa 0,0 l/m 4,2 km/h (1 Bft) W 277 0 min 0,000 mm 0,0 UV-I 0 W/m 3,8 C 7,6 C 4,8 km/h (1 Bft) 100,00 %
14.11.2015 23:16 7,6 C 77 % 1023,7 hPa 0,0 l/m 5,1 km/h (1 Bft) W 281 0 min 0,000 mm 0,0 UV-I 0 W/m 3,8 C 7,6 C 6,4 km/h (2 Bft) 100,00 %
14.11.2015 23:17 7,6 C 78 % 1023,7 hPa 0,0 l/m 4,6 km/h (1 Bft) W-SW 248 0 min 0,000 mm 0,0 UV-I 0 W/m 4,0 C 7,6 C 6,4 km/h (2 Bft) 100,00 %
14.11.2015 23:18 7,6 C 78 % 1023,8 hPa 0,0 l/m 4,9 km/h (1 Bft) W 275 0 min 0,000 mm 0,0 UV-I 0 W/m 4,0 C 7,6 C 6,4 km/h (2 Bft) 96,15 %
14.11.2015 23:19 7,7 C 78 % 1023,8 hPa 0,0 l/m 5,4 km/h (1 Bft) SW 229 0 min 0,000 mm 0,0 UV-I 0 W/m 4,1 C 7,7 C 8,0 km/h (2 Bft) 100,00 %
14.11.2015 23:20 7,7 C 77 % 1023,8 hPa 0,0 l/m 4,9 km/h (1 Bft) W 271 0 min 0,000 mm 0,0 UV-I 0 W/m 3,9 C 7,7 C 6,4 km/h (2 Bft) 100,00 %
14.11.2015 23:21 7,7 C 77 % 1023,8 hPa 0,0 l/m 4,9 km/h (1 Bft) W-SW 245 0 min 0,000 mm 0,0 UV-I 0 W/m 3,9 C 7,7 C 6,4 km/h (2 Bft) 100,00 %
14.11.2015 23:22 7,7 C 77 % 1023,8 hPa 0,0 l/m 5,8 km/h (2 Bft) W-SW 258 0 min 0,000 mm 0,0 UV-I 0 W/m 3,9 C 7,7 C 9,7 km/h (2 Bft) 95,83 %
14.11.2015 23:23 7,8 C 77 % 1023,8 hPa 0,0 l/m 4,3 km/h (1 Bft) SW 232 0 min 0,000 mm 0,0 UV-I 0 W/m 4,0 C 7,8 C 6,4 km/h (2 Bft) 95,65 %
14.11.2015 23:24 7,8 C 77 % 1023,8 hPa 0,0 l/m 4,3 km/h (1 Bft) SW 230 0 min 0,000 mm 0,0 UV-I 0 W/m 4,0 C 7,8 C 6,4 km/h (2 Bft) 100,00 %
14.11.2015 23:25 7,8 C 77 % 1023,7 hPa 0,0 l/m 5,3 km/h (1 Bft) W-SW 250 0 min 0,000 mm 0,0 UV-I 0 W/m 4,0 C 7,8 C 9,7 km/h (2 Bft) 100,00 %
14.11.2015 23:26 7,9 C 77 % 1023,7 hPa 0,0 l/m 3,6 km/h (1 Bft) S-SW 201 0 min 0,000 mm 0,0 UV-I 0 W/m 4,1 C 7,9 C 4,8 km/h (1 Bft) 92,31 %
14.11.2015 23:27 7,9 C 77 % 1023,6 hPa 0,0 l/m 3,4 km/h (1 Bft) W-NW 282 0 min 0,000 mm 0,0 UV-I 0 W/m 4,1 C 7,9 C 6,4 km/h (2 Bft) 100,00 %
14.11.2015 23:28 7,9 C 77 % 1023,6 hPa 0,0 l/m 4,8 km/h (1 Bft) W 281 0 min 0,000 mm 0,0 UV-I 0 W/m 4,1 C 7,9 C 9,7 km/h (2 Bft) 96,55 %
14.11.2015 23:29 8,0 C 76 % 1023,6 hPa 0,0 l/m 5,4 km/h (1 Bft) W 275 0 min 0,000 mm 0,0 UV-I 0 W/m 4,0 C 8,0 C 9,7 km/h (2 Bft) 100,00 %
14.11.2015 23:30 8,0 C 76 % 1023,6 hPa 0,0 l/m 6,8 km/h (2 Bft) W 267 0 min 0,000 mm 0,0 UV-I 0 W/m 4,0 C 7,7 C 11,3 km/h (2 Bft) 100,00 %
14.11.2015 23:31 8,1 C 77 % 1023,5 hPa 0,0 l/m 5,8 km/h (2 Bft) W-NW 290 0 min 0,000 mm 0,0 UV-I 0 W/m 4,3 C 8,1 C 9,7 km/h (2 Bft) 100,00 %
14.11.2015 23:32 8,1 C 76 % 1023,5 hPa 0,0 l/m 5,4 km/h (1 Bft) W-NW 299 0 min 0,000 mm 0,0 UV-I 0 W/m 4,1 C 8,1 C 9,7 km/h (2 Bft) 100,00 %
14.11.2015 23:33 8,1 C 76 % 1023,5 hPa 0,0 l/m 4,8 km/h (1 Bft) W 266 0 min 0,000 mm 0,0 UV-I 0 W/m 4,1 C 8,1 C 9,7 km/h (2 Bft) 100,00 %
14.11.2015 23:34 8,1 C 76 % 1023,5 hPa 0,0 l/m 4,2 km/h (1 Bft) W 261 0 min 0,000 mm 0,0 UV-I 0 W/m 4,1 C 8,1 C 6,4 km/h (2 Bft) 100,00 %
14.11.2015 23:35 8,1 C 76 % 1023,4 hPa 0,0 l/m 3,9 km/h (1 Bft) W-SW 243 0 min 0,000 mm 0,0 UV-I 0 W/m 4,1 C 8,1 C 4,8 km/h (1 Bft) 100,00 %
14.11.2015 23:36 8,2 C 76 % 1023,5 hPa 0,0 l/m 4,2 km/h (1 Bft) W-SW 252 0 min 0,000 mm 0,0 UV-I 0 W/m 4,2 C 8,2 C 4,8 km/h (1 Bft) 100,00 %
14.11.2015 23:37 8,2 C 76 % 1023,5 hPa 0,0 l/m 3,4 km/h (1 Bft) W-NW 283 0 min 0,000 mm 0,0 UV-I 0 W/m 4,2 C 8,2 C 4,8 km/h (1 Bft) 100,00 %
14.11.2015 23:38 8,2 C 76 % 1023,4 hPa 0,0 l/m 4,2 km/h (1 Bft) W 277 0 min 0,000 mm 0,0 UV-I 0 W/m 4,2 C 8,2 C 4,8 km/h (1 Bft) 100,00 %
14.11.2015 23:39 8,2 C 76 % 1023,4 hPa 0,0 l/m 2,9 km/h (1 Bft) W 265 0 min 0,000 mm 0,0 UV-I 0 W/m 4,2 C 8,2 C 4,8 km/h (1 Bft) 100,00 %
14.11.2015 23:40 8,2 C 76 % 1023,3 hPa 0,0 l/m 1,7 km/h (1 Bft) W 265 0 min 0,000 mm 0,0 UV-I 0 W/m 4,2 C 8,2 C 3,2 km/h (1 Bft) 100,00 %
14.11.2015 23:41 8,1 C 76 % 1023,3 hPa 0,0 l/m 1,6 km/h (1 Bft) W 265 0 min 0,000 mm 0,0 UV-I 0 W/m 4,1 C 8,1 C 3,2 km/h (1 Bft) 96,15 %
14.11.2015 23:42 8,1 C 76 % 1023,3 hPa 0,0 l/m 2,2 km/h (1 Bft) W 265 0 min 0,000 mm 0,0 UV-I 0 W/m 4,1 C 8,1 C 3,2 km/h (1 Bft) 100,00 %
14.11.2015 23:43 8,1 C 76 % 1023,2 hPa 0,0 l/m 3,0 km/h (1 Bft) W-SW 258 0 min 0,000 mm 0,0 UV-I 0 W/m 4,1 C 8,1 C 4,8 km/h (1 Bft) 100,00 %
14.11.2015 23:44 8,1 C 76 % 1023,3 hPa 0,0 l/m 2,5 km/h (1 Bft) W 267 0 min 0,000 mm 0,0 UV-I 0 W/m 4,1 C 8,1 C 3,2 km/h (1 Bft) 100,00 %
14.11.2015 23:45 8,1 C 76 % 1023,3 hPa 0,0 l/m 3,6 km/h (1 Bft) W-SW 248 0 min 0,000 mm 0,0 UV-I 0 W/m 4,1 C 8,1 C 4,8 km/h (1 Bft) 100,00 %
14.11.2015 23:46 8,1 C 76 % 1023,3 hPa 0,0 l/m 3,6 km/h (1 Bft) SW 235 0 min 0,000 mm 0,0 UV-I 0 W/m 4,1 C 8,1 C 4,8 km/h (1 Bft) 100,00 %
14.11.2015 23:47 8,1 C 76 % 1023,3 hPa 0,0 l/m 2,7 km/h (1 Bft) W-SW 238 0 min 0,000 mm 0,0 UV-I 0 W/m 4,1 C 8,1 C 4,8 km/h (1 Bft) 100,00 %
14.11.2015 23:48 8,1 C 76 % 1023,3 hPa 0,0 l/m 2,2 km/h (1 Bft) W-SW 238 0 min 0,000 mm 0,0 UV-I 0 W/m 4,1 C 8,1 C 4,8 km/h (1 Bft) 100,00 %
14.11.2015 23:49 8,1 C 76 % 1023,3 hPa 0,0 l/m 2,3 km/h (1 Bft) W-SW 248 0 min 0,000 mm 0,0 UV-I 0 W/m 4,1 C 8,1 C 4,8 km/h (1 Bft) 100,00 %
14.11.2015 23:50 8,1 C 76 % 1023,3 hPa 0,0 l/m 2,7 km/h (1 Bft) W 269 0 min 0,000 mm 0,0 UV-I 0 W/m 4,1 C 8,1 C 4,8 km/h (1 Bft) 100,00 %
14.11.2015 23:51 8,1 C 76 % 1023,2 hPa 0,0 l/m 3,6 km/h (1 Bft) W-NW 282 0 min 0,000 mm 0,0 UV-I 0 W/m 4,1 C 8,1 C 4,8 km/h (1 Bft) 100,00 %
14.11.2015 23:52 8,1 C 76 % 1023,3 hPa 0,0 l/m 3,4 km/h (1 Bft) W 275 0 min 0,000 mm 0,0 UV-I 0 W/m 4,1 C 8,1 C 4,8 km/h (1 Bft) 100,00 %
14.11.2015 23:53 8,2 C 76 % 1023,2 hPa 0,0 l/m 1,8 km/h (1 Bft) W 265 0 min 0,000 mm 0,0 UV-I 0 W/m 4,2 C 8,2 C 4,8 km/h (1 Bft) 100,00 %
14.11.2015 23:54 8,2 C 76 % 1023,2 hPa 0,0 l/m 2,0 km/h (1 Bft) W-NW 284 0 min 0,000 mm 0,0 UV-I 0 W/m 4,2 C 8,2 C 3,2 km/h (1 Bft) 95,83 %
14.11.2015 23:55 8,2 C 76 % 1023,2 hPa 0,0 l/m 2,9 km/h (1 Bft) W 265 0 min 0,000 mm 0,0 UV-I 0 W/m 4,2 C 8,2 C 4,8 km/h (1 Bft) 100,00 %
14.11.2015 23:56 8,2 C 76 % 1023,2 hPa 0,0 l/m 1,8 km/h (1 Bft) W 265 0 min 0,000 mm 0,0 UV-I 0 W/m 4,2 C 8,2 C 3,2 km/h (1 Bft) 95,83 %
14.11.2015 23:57 8,2 C 76 % 1023,1 hPa 0,0 l/m 0,8 km/h (0 Bft) W 265 0 min 0,000 mm 0,0 UV-I 0 W/m 4,2 C 8,2 C 1,6 km/h (1 Bft) 100,00 %
14.11.2015 23:58 8,2 C 76 % 1023,1 hPa 0,0 l/m 1,2 km/h (1 Bft) W 265 0 min 0,000 mm 0,0 UV-I 0 W/m 4,2 C 8,2 C 3,2 km/h (1 Bft) 100,00 %
14.11.2015 23:59 8,2 C 76 % 1023,1 hPa 0,0 l/m 1,2 km/h (1 Bft) S-SW 193 0 min 0,000 mm 0,0 UV-I 0 W/m 4,2 C 8,2 C 3,2 km/h (1 Bft) 100,00 %
_ Min-Zeit 21:41 14:43 23:57 - 20:49 - - - - - - 16:41 03:35 20:49 08:32
Minimum _ 6,8 C 64 % 1023,1 hPa - 0,7 km/h (0 Bft) - - - - - - 2,1 C 1,7 C 1,6 km/h (1 Bft) 91,30 %
_ Max-Zeit 13:38 01:31 08:32 00:59 03:35 - - 08:49 14:00 13:19 13:36 02:50 15:08 13:46 00:00
Maximum _ 11,2 C 91 % 1029,7 hPa 0,2 l/m 20,5 km/h
W-NW (4 Bft)
- - 1 min 0,178 mm 0,9 UV-I 469 W/m 9,1 C 10,4 C 40,2 km/h
SW (6 Bft)
100,00 %
Durchschnitt _ 8,8 C 78 % 1027,0 hPa #1,8 l/m 8,4 km/h (2 Bft) W - #1:51 h #1,041 mm 0,5 UV-I 119 W/m 5,1 C 7,1 C 13,6 km/h (3 Bft) 99,33 %